Time,TemperatureF,DewpointF,PressureIn,WindDirection,WindDirectionDegrees,WindSpeedMPH,WindSpeedGustMPH,Humidity,HourlyPrecipIn,Conditions,Clouds,dailyrainin,SoftwareType,DateUTC
2013-01-22 00:00:00,39.5,-0.5,30.31,West,262,22.0,31.0,18,0.00,,SKC,0.00,VWS V14.01,2013-01-22 07:00:00,
2013-01-22 00:01:00,39.5,-0.5,30.31,West,262,22.0,31.0,18,0.00,,SKC,0.00,VWS V14.01,2013-01-22 07:01:00,
2013-01-22 00:02:00,39.5,-0.5,30.32,WNW,302,25.0,38.0,18,0.00,,SKC,0.00,VWS V14.01,2013-01-22 07:02:00,
2013-01-22 00:03:00,39.6,-0.4,30.32,West,275,26.0,33.0,18,0.00,,SKC,0.00,VWS V14.01,2013-01-22 07:03:00,
2013-01-22 00:04:00,39.6,-0.4,30.33,WNW,290,16.0,27.0,18,0.00,,SKC,0.00,VWS V14.01,2013-01-22 07:04:00,
2013-01-22 00:05:00,39.6,-0.4,30.32,WNW,284,40.0,40.0,18,0.00,,SKC,0.00,VWS V14.01,2013-01-22 07:05:00,
2013-01-22 00:06:00,39.7,-1.5,30.32,West,275,31.0,40.0,17,0.00,,SKC,0.00,VWS V14.01,2013-01-22 07:06:00,
2013-01-22 00:07:00,39.7,-1.5,30.32,West,274,15.0,31.0,17,0.00,,SKC,0.00,VWS V14.01,2013-01-22 07:07:00,
2013-01-22 00:08:00,39.7,-1.5,30.32,WSW,257,33.0,33.0,17,0.00,,SKC,0.00,VWS V14.01,2013-01-22 07:08:00,
2013-01-22 00:09:00,39.7,-1.5,30.32,North,360,33.0,33.0,17,0.00,,SKC,0.00,VWS V14.01,2013-01-22 07:09:00,
2013-01-22 00:10:00,39.7,-1.5,30.31,West,261,24.0,40.0,17,0.00,,SKC,0.00,VWS V14.01,2013-01-22 07:10:00,
2013-01-22 00:11:00,39.8,-1.5,30.32,WNW,283,30.0,36.0,17,0.00,,SKC,0.00,VWS V14.01,2013-01-22 07:11:00,
2013-01-22 00:12:00,39.8,-1.5,30.32,WSW,240,30.0,35.0,17,0.00,,SKC,0.00,VWS V14.01,2013-01-22 07:12:00,
2013-01-22 00:13:00,39.8,-1.5,30.32,WSW,250,21.0,42.0,17,0.00,,SKC,0.00,VWS V14.01,2013-01-22 07:13:00,
2013-01-22 00:14:00,39.8,-1.5,30.31,West,259,33.0,35.0,17,0.00,,SKC,0.00,VWS V14.01,2013-01-22 07:14:00,
2013-01-22 00:15:00,39.8,-1.5,30.32,WSW,254,25.0,40.0,17,0.00,,SKC,0.00,VWS V14.01,2013-01-22 07:15:00,
2013-01-22 00:16:00,39.9,-1.4,30.32,WSW,257,18.0,28.0,17,0.00,,SKC,0.00,VWS V14.01,2013-01-22 07:16:00,
2013-01-22 00:17:00,39.9,-1.4,30.32,West,277,23.0,29.0,17,0.00,,SKC,0.00,VWS V14.01,2013-01-22 07:17:00,
2013-01-22 00:18:00,39.9,-1.4,30.32,WNW,303,36.0,40.0,17,0.00,,SKC,0.00,VWS V14.01,2013-01-22 07:18:00,
2013-01-22 00:19:00,39.9,-1.4,30.32,West,272,23.0,39.0,17,0.00,,SKC,0.00,VWS V14.01,2013-01-22 07:19:00,
2013-01-22 00:20:00,39.9,-1.4,30.32,WNW,297,30.0,33.0,17,0.00,,SKC,0.00,VWS V14.01,2013-01-22 07:20:00,
2013-01-22 00:21:00,40.0,-1.3,30.32,West,265,22.0,42.0,17,0.00,,SKC,0.00,VWS V14.01,2013-01-22 07:21:00,
2013-01-22 00:22:00,40.0,-1.3,30.32,WSW,257,21.0,31.0,17,0.00,,SKC,0.00,VWS V14.01,2013-01-22 07:22:00,
2013-01-22 00:23:00,40.0,-1.3,30.32,SW,230,21.0,30.0,17,0.00,,SKC,0.00,VWS V14.01,2013-01-22 07:23:00,
2013-01-22 00:24:00,39.9,-1.4,30.31,WNW,286,33.0,46.0,17,0.00,,SKC,0.00,VWS V14.01,2013-01-22 07:24:00,
2013-01-22 00:25:00,40.0,-2.6,30.32,North,360,23.0,40.0,16,0.00,,SKC,0.00,VWS V14.01,2013-01-22 07:25:00,
2013-01-22 00:26:00,40.1,-1.2,30.32,West,265,24.0,34.0,17,0.00,,SKC,0.00,VWS V14.01,2013-01-22 07:26:00,
2013-01-22 00:27:00,40.0,-1.3,30.33,North,360,18.0,29.0,17,0.00,,SKC,0.00,VWS V14.01,2013-01-22 07:27:00,
2013-01-22 00:28:00,40.0,-1.3,30.32,West,273,22.0,28.0,17,0.00,,SKC,0.00,VWS V14.01,2013-01-22 07:28:00,
2013-01-22 00:29:00,39.9,-1.4,30.32,West,266,20.0,41.0,17,0.00,,SKC,0.00,VWS V14.01,2013-01-22 07:29:00,
2013-01-22 00:30:00,39.9,-1.4,30.31,West,260,26.0,36.0,17,0.00,,SKC,0.00,VWS V14.01,2013-01-22 07:30:00,
2013-01-22 00:31:00,40.0,-2.6,30.32,West,262,21.0,37.0,16,0.00,,SKC,0.00,VWS V14.01,2013-01-22 07:31:00,
2013-01-22 00:33:00,40.3,-2.3,30.32,WSW,248,31.0,40.0,16,0.00,,SKC,0.00,VWS V14.01,2013-01-22 07:33:00,
2013-01-22 00:34:00,40.4,-2.2,30.31,West,265,45.0,51.0,16,0.00,,SKC,0.00,VWS V14.01,2013-01-22 07:34:00,
2013-01-22 00:35:00,40.5,-2.2,30.32,WSW,246,39.0,45.0,16,0.00,,SKC,0.00,VWS V14.01,2013-01-22 07:35:00,
2013-01-22 00:36:00,40.6,-2.1,30.30,WSW,238,30.0,39.0,16,0.00,,SKC,0.00,VWS V14.01,2013-01-22 07:36:00,
2013-01-22 00:37:00,40.6,-2.1,30.32,North,360,33.0,33.0,16,0.00,,SKC,0.00,VWS V14.01,2013-01-22 07:37:00,
2013-01-22 00:38:00,40.5,-2.2,30.31,West,263,30.0,34.0,16,0.00,,SKC,0.00,VWS V14.01,2013-01-22 07:38:00,
2013-01-22 00:39:00,40.4,-2.2,30.32,WSW,251,26.0,40.0,16,0.00,,SKC,0.00,VWS V14.01,2013-01-22 07:39:00,
2013-01-22 00:40:00,40.4,-2.2,30.31,West,261,31.0,33.0,16,0.00,,SKC,0.00,VWS V14.01,2013-01-22 07:40:00,
2013-01-22 00:41:00,40.4,-2.2,30.31,WSW,254,28.0,40.0,16,0.00,,SKC,0.00,VWS V14.01,2013-01-22 07:41:00,
2013-01-22 00:42:00,40.5,-2.2,30.31,West,259,29.0,30.0,16,0.00,,SKC,0.00,VWS V14.01,2013-01-22 07:42:00,
2013-01-22 00:43:00,40.5,-2.2,30.31,WSW,248,37.0,44.0,16,0.00,,SKC,0.00,VWS V14.01,2013-01-22 07:43:00,
2013-01-22 00:44:00,40.6,-2.1,30.30,WSW,256,38.0,38.0,16,0.00,,SKC,0.00,VWS V14.01,2013-01-22 07:44:00,
2013-01-22 00:45:00,40.6,-2.1,30.31,WSW,245,26.0,39.0,16,0.00,,SKC,0.00,VWS V14.01,2013-01-22 07:45:00,
2013-01-22 00:46:00,40.7,-2.0,30.31,West,279,40.0,42.0,16,0.00,,SKC,0.00,VWS V14.01,2013-01-22 07:46:00,
2013-01-22 00:47:00,40.7,-2.0,30.31,WSW,243,33.0,40.0,16,0.00,,SKC,0.00,VWS V14.01,2013-01-22 07:47:00,
2013-01-22 00:48:00,40.8,-1.9,30.31,West,271,22.0,35.0,16,0.00,,SKC,0.00,VWS V14.01,2013-01-22 07:48:00,
2013-01-22 00:50:00,40.7,-2.0,30.31,SW,231,34.0,40.0,16,0.00,,SKC,0.00,VWS V14.01,2013-01-22 07:50:00,
2013-01-22 00:51:00,40.7,-2.0,30.30,West,259,37.0,37.0,16,0.00,,SKC,0.00,VWS V14.01,2013-01-22 07:51:00,
2013-01-22 00:52:00,40.8,-1.9,30.31,North,360,30.0,39.0,16,0.00,,SKC,0.00,VWS V14.01,2013-01-22 07:52:00,
2013-01-22 00:53:00,40.8,-1.9,30.31,West,268,27.0,33.0,16,0.00,,SKC,0.00,VWS V14.01,2013-01-22 07:53:00,
2013-01-22 00:54:00,40.7,-2.0,30.32,West,269,22.0,32.0,16,0.00,,SKC,0.00,VWS V14.01,2013-01-22 07:54:00,
2013-01-22 00:55:00,40.7,-2.0,30.31,WSW,250,25.0,39.0,16,0.00,,SKC,0.00,VWS V14.01,2013-01-22 07:55:00,
2013-01-22 00:56:00,40.6,-2.1,30.31,West,267,35.0,35.0,16,0.00,,SKC,0.00,VWS V14.01,2013-01-22 07:56:00,
2013-01-22 00:57:00,40.6,-2.1,30.30,West,270,28.0,35.0,16,0.00,,SKC,0.00,VWS V14.01,2013-01-22 07:57:00,
2013-01-22 00:58:00,40.6,-2.1,30.32,West,273,34.0,42.0,16,0.00,,SKC,0.00,VWS V14.01,2013-01-22 07:58:00,
2013-01-22 00:59:00,40.7,-3.3,30.31,WSW,251,23.0,41.0,15,0.00,,SKC,0.00,VWS V14.01,2013-01-22 07:59:00,
2013-01-22 01:00:00,40.7,-2.0,30.32,North,360,24.0,41.0,16,0.00,,SKC,0.00,VWS V14.01,2013-01-22 08:00:00,
2013-01-22 01:01:00,40.8,-1.9,30.32,West,263,19.0,29.0,16,0.00,,SKC,0.00,VWS V14.01,2013-01-22 08:01:00,
2013-01-22 01:02:00,40.7,-2.0,30.31,WSW,252,25.0,32.0,16,0.00,,SKC,0.00,VWS V14.01,2013-01-22 08:02:00,
2013-01-22 01:03:00,40.7,-2.0,30.32,SW,236,29.0,30.0,16,0.00,,SKC,0.00,VWS V14.01,2013-01-22 08:03:00,
2013-01-22 01:04:00,40.6,-2.1,30.31,West,271,37.0,41.0,16,0.00,,SKC,0.00,VWS V14.01,2013-01-22 08:04:00,
2013-01-22 01:05:00,40.7,-2.0,30.31,West,260,19.0,37.0,16,0.00,,SKC,0.00,VWS V14.01,2013-01-22 08:05:00,
2013-01-22 01:07:00,40.6,-2.1,30.32,WSW,247,29.0,34.0,16,0.00,,SKC,0.00,VWS V14.01,2013-01-22 08:07:00,
2013-01-22 01:08:00,40.6,-2.1,30.31,WSW,247,37.0,37.0,16,0.00,,SKC,0.00,VWS V14.01,2013-01-22 08:08:00,
2013-01-22 01:09:00,40.6,-2.1,30.30,WSW,250,30.0,37.0,16,0.00,,SKC,0.00,VWS V14.01,2013-01-22 08:09:00,
2013-01-22 01:10:00,40.7,-2.0,30.31,West,265,30.0,33.0,16,0.00,,SKC,0.00,VWS V14.01,2013-01-22 08:10:00,
2013-01-22 01:11:00,40.7,-2.0,30.31,North,360,20.0,33.0,16,0.00,,SKC,0.00,VWS V14.01,2013-01-22 08:11:00,
2013-01-22 01:12:00,40.7,-2.0,30.32,West,260,23.0,40.0,16,0.00,,SKC,0.00,VWS V14.01,2013-01-22 08:12:00,
2013-01-22 01:13:00,40.7,-2.0,30.31,WSW,258,24.0,33.0,16,0.00,,SKC,0.00,VWS V14.01,2013-01-22 08:13:00,
2013-01-22 01:14:00,40.6,-2.1,30.31,West,269,31.0,34.0,16,0.00,,SKC,0.00,VWS V14.01,2013-01-22 08:14:00,
2013-01-22 01:15:00,40.6,-2.1,30.31,West,276,26.0,33.0,16,0.00,,SKC,0.00,VWS V14.01,2013-01-22 08:15:00,
2013-01-22 01:16:00,40.6,-2.1,30.31,West,267,27.0,38.0,16,0.00,,SKC,0.00,VWS V14.01,2013-01-22 08:16:00,
2013-01-22 01:17:00,40.5,-2.2,30.32,West,271,40.0,40.0,16,0.00,,SKC,0.00,VWS V14.01,2013-01-22 08:17:00,
2013-01-22 01:18:00,40.5,-2.2,30.31,WSW,255,23.0,41.0,16,0.00,,SKC,0.00,VWS V14.01,2013-01-22 08:18:00,
2013-01-22 01:19:00,40.5,-2.2,30.32,West,265,25.0,26.0,16,0.00,,SKC,0.00,VWS V14.01,2013-01-22 08:19:00,
2013-01-22 01:20:00,40.4,-2.2,30.32,WNW,291,23.0,25.0,16,0.00,,SKC,0.00,VWS V14.01,2013-01-22 08:20:00,
2013-01-22 01:21:00,40.3,-2.3,30.32,WNW,284,18.0,33.0,16,0.00,,SKC,0.00,VWS V14.01,2013-01-22 08:21:00,
2013-01-22 01:22:00,40.2,-2.4,30.31,West,278,34.0,34.0,16,0.00,,SKC,0.00,VWS V14.01,2013-01-22 08:22:00,
2013-01-22 01:23:00,40.2,-2.4,30.32,West,271,25.0,39.0,16,0.00,,SKC,0.00,VWS V14.01,2013-01-22 08:23:00,
2013-01-22 01:24:00,40.1,-2.5,30.32,West,264,20.0,28.0,16,0.00,,SKC,0.00,VWS V14.01,2013-01-22 08:24:00,
2013-01-22 01:25:00,40.1,-2.5,30.32,West,261,37.0,39.0,16,0.00,,SKC,0.00,VWS V14.01,2013-01-22 08:25:00,
2013-01-22 01:26:00,40.1,-2.5,30.32,West,271,16.0,37.0,16,0.00,,SKC,0.00,VWS V14.01,2013-01-22 08:26:00,
2013-01-22 01:27:00,40.1,-2.5,30.32,WNW,290,27.0,27.0,16,0.00,,SKC,0.00,VWS V14.01,2013-01-22 08:27:00,
2013-01-22 01:28:00,40.1,-2.5,30.33,WSW,243,25.0,35.0,16,0.00,,SKC,0.00,VWS V14.01,2013-01-22 08:28:00,
2013-01-22 01:29:00,40.1,-2.5,30.33,West,263,25.0,35.0,16,0.00,,SKC,0.00,VWS V14.01,2013-01-22 08:29:00,
2013-01-22 01:30:00,40.1,-2.5,30.32,WNW,283,24.0,33.0,16,0.00,,SKC,0.00,VWS V14.01,2013-01-22 08:30:00,
2013-01-22 01:31:00,40.0,-2.6,30.32,West,262,20.0,30.0,16,0.00,,SKC,0.00,VWS V14.01,2013-01-22 08:31:00,
2013-01-22 01:32:00,40.0,-2.6,30.33,North,360,20.0,32.0,16,0.00,,SKC,0.00,VWS V14.01,2013-01-22 08:32:00,
2013-01-22 01:33:00,40.0,-2.6,30.33,WSW,249,17.0,25.0,16,0.00,,SKC,0.00,VWS V14.01,2013-01-22 08:33:00,
2013-01-22 01:34:00,39.9,-2.6,30.33,North,360,17.0,22.0,16,0.00,,SKC,0.00,VWS V14.01,2013-01-22 08:34:00,
2013-01-22 01:35:00,39.9,-1.4,30.32,WSW,242,21.0,33.0,17,0.00,,SKC,0.00,VWS V14.01,2013-01-22 08:35:00,
2013-01-22 01:36:00,39.8,-1.5,30.33,West,281,26.0,28.0,17,0.00,,SKC,0.00,VWS V14.01,2013-01-22 08:36:00,
2013-01-22 01:37:00,39.8,-1.5,30.32,SW,221,22.0,26.0,17,0.00,,SKC,0.00,VWS V14.01,2013-01-22 08:37:00,
2013-01-22 01:38:00,39.8,-1.5,30.32,West,259,15.0,25.0,17,0.00,,SKC,0.00,VWS V14.01,2013-01-22 08:38:00,
2013-01-22 01:39:00,39.7,-1.5,30.33,WSW,257,26.0,34.0,17,0.00,,SKC,0.00,VWS V14.01,2013-01-22 08:39:00,
2013-01-22 01:40:00,39.7,-1.5,30.32,WSW,237,17.0,31.0,17,0.00,,SKC,0.00,VWS V14.01,2013-01-22 08:40:00,
2013-01-22 01:41:00,39.7,-1.5,30.32,West,275,19.0,27.0,17,0.00,,SKC,0.00,VWS V14.01,2013-01-22 08:41:00,
2013-01-22 01:42:00,39.7,-1.5,30.33,NW,306,21.0,34.0,17,0.00,,SKC,0.00,VWS V14.01,2013-01-22 08:42:00,
2013-01-22 01:43:00,39.7,-1.5,30.33,WNW,302,19.0,29.0,17,0.00,,SKC,0.00,VWS V14.01,2013-01-22 08:43:00,
2013-01-22 01:44:00,39.7,-1.5,30.33,North,360,33.0,33.0,17,0.00,,SKC,0.00,VWS V14.01,2013-01-22 08:44:00,
2013-01-22 01:45:00,39.8,-1.5,30.33,West,268,27.0,37.0,17,0.00,,SKC,0.00,VWS V14.01,2013-01-22 08:45:00,
2013-01-22 01:46:00,39.8,-2.7,30.31,West,264,27.0,28.0,16,0.00,,SKC,0.00,VWS V14.01,2013-01-22 08:46:00,
2013-01-22 01:47:00,39.9,-1.4,30.33,West,266,21.0,27.0,17,0.00,,SKC,0.00,VWS V14.01,2013-01-22 08:47:00,
2013-01-22 01:48:00,39.8,-1.5,30.33,West,277,17.0,27.0,17,0.00,,SKC,0.00,VWS V14.01,2013-01-22 08:48:00,
2013-01-22 01:49:00,39.8,-1.5,30.33,WSW,240,25.0,31.0,17,0.00,,SKC,0.00,VWS V14.01,2013-01-22 08:49:00,
2013-01-22 01:50:00,39.8,-1.5,30.33,West,272,20.0,32.0,17,0.00,,SKC,0.00,VWS V14.01,2013-01-22 08:50:00,
2013-01-22 01:51:00,39.8,-1.5,30.32,West,279,23.0,25.0,17,0.00,,SKC,0.00,VWS V14.01,2013-01-22 08:51:00,
2013-01-22 01:52:00,39.7,-1.5,30.32,West,271,14.0,23.0,17,0.00,,SKC,0.00,VWS V14.01,2013-01-22 08:52:00,
2013-01-22 01:53:00,39.7,-1.5,30.33,West,270,12.0,23.0,17,0.00,,SKC,0.00,VWS V14.01,2013-01-22 08:53:00,
2013-01-22 01:54:00,39.7,-1.5,30.33,WNW,291,27.0,27.0,17,0.00,,SKC,0.00,VWS V14.01,2013-01-22 08:54:00,
2013-01-22 01:55:00,39.6,-1.6,30.33,North,360,33.0,35.0,17,0.00,,SKC,0.00,VWS V14.01,2013-01-22 08:55:00,
2013-01-22 01:56:00,39.6,-1.6,30.32,West,274,29.0,34.0,17,0.00,,SKC,0.00,VWS V14.01,2013-01-22 08:56:00,
2013-01-22 01:57:00,39.7,-1.5,30.33,North,360,25.0,29.0,17,0.00,,SKC,0.00,VWS V14.01,2013-01-22 08:57:00,
2013-01-22 01:58:00,39.7,-1.5,30.32,WNW,288,24.0,32.0,17,0.00,,SKC,0.00,VWS V14.01,2013-01-22 08:58:00,
2013-01-22 01:59:00,39.7,-1.5,30.33,WNW,287,26.0,32.0,17,0.00,,SKC,0.00,VWS V14.01,2013-01-22 08:59:00,
2013-01-22 02:00:00,39.7,-2.8,30.33,North,360,30.0,30.0,16,0.00,,SKC,0.00,VWS V14.01,2013-01-22 09:00:00,
2013-01-22 02:01:00,39.8,-2.7,30.34,NW,306,20.0,30.0,16,0.00,,SKC,0.00,VWS V14.01,2013-01-22 09:01:00,
2013-01-22 02:02:00,39.8,-2.7,30.33,WNW,302,27.0,39.0,16,0.00,,SKC,0.00,VWS V14.01,2013-01-22 09:02:00,
2013-01-22 02:03:00,39.8,-2.7,30.33,WNW,283,33.0,33.0,16,0.00,,SKC,0.00,VWS V14.01,2013-01-22 09:03:00,
2013-01-22 02:04:00,39.9,-2.6,30.32,North,360,30.0,33.0,16,0.00,,SKC,0.00,VWS V14.01,2013-01-22 09:04:00,
2013-01-22 02:05:00,40.0,-2.6,30.33,NW,315,18.0,30.0,16,0.00,,SKC,0.00,VWS V14.01,2013-01-22 09:05:00,
2013-01-22 02:06:00,40.0,-2.6,30.33,North,360,19.0,22.0,16,0.00,,SKC,0.00,VWS V14.01,2013-01-22 09:06:00,
2013-01-22 02:07:00,40.0,-2.6,30.32,NW,309,20.0,30.0,16,0.00,,SKC,0.00,VWS V14.01,2013-01-22 09:07:00,
2013-01-22 02:08:00,40.0,-2.6,30.33,North,360,23.0,29.0,16,0.00,,SKC,0.00,VWS V14.01,2013-01-22 09:08:00,
2013-01-22 02:09:00,40.0,-2.6,30.33,West,270,19.0,28.0,16,0.00,,SKC,0.00,VWS V14.01,2013-01-22 09:09:00,
2013-01-22 02:10:00,40.0,-2.6,30.33,WNW,301,14.0,22.0,16,0.00,,SKC,0.00,VWS V14.01,2013-01-22 09:10:00,
2013-01-22 02:11:00,39.9,-2.6,30.33,West,274,19.0,28.0,16,0.00,,SKC,0.00,VWS V14.01,2013-01-22 09:11:00,
2013-01-22 02:12:00,39.9,-2.6,30.33,WNW,290,24.0,24.0,16,0.00,,SKC,0.00,VWS V14.01,2013-01-22 09:12:00,
2013-01-22 02:13:00,40.0,-2.6,30.33,WNW,290,24.0,26.0,16,0.00,,SKC,0.00,VWS V14.01,2013-01-22 09:13:00,
2013-01-22 02:14:00,40.0,-2.6,30.33,West,281,18.0,24.0,16,0.00,,SKC,0.00,VWS V14.01,2013-01-22 09:14:00,
2013-01-22 02:15:00,39.9,-2.6,30.33,WNW,296,18.0,24.0,16,0.00,,SKC,0.00,VWS V14.01,2013-01-22 09:15:00,
2013-01-22 02:16:00,39.9,-2.6,30.33,WNW,287,20.0,24.0,16,0.00,,SKC,0.00,VWS V14.01,2013-01-22 09:16:00,
2013-01-22 02:17:00,39.9,-2.6,30.34,NW,306,19.0,21.0,16,0.00,,SKC,0.00,VWS V14.01,2013-01-22 09:17:00,
2013-01-22 02:18:00,39.9,-2.6,30.34,NW,315,17.0,27.0,16,0.00,,SKC,0.00,VWS V14.01,2013-01-22 09:18:00,
2013-01-22 02:19:00,39.8,-2.7,30.34,WNW,288,19.0,19.0,16,0.00,,SKC,0.00,VWS V14.01,2013-01-22 09:19:00,
2013-01-22 02:20:00,39.8,-2.7,30.34,North,360,15.0,20.0,16,0.00,,SKC,0.00,VWS V14.01,2013-01-22 09:20:00,
2013-01-22 02:21:00,39.8,-2.7,30.34,North,360,15.0,20.0,16,0.00,,SKC,0.00,VWS V14.01,2013-01-22 09:21:00,
2013-01-22 02:22:00,39.8,-2.7,30.34,WNW,296,20.0,23.0,16,0.00,,SKC,0.00,VWS V14.01,2013-01-22 09:22:00,
2013-01-22 02:23:00,39.8,-2.7,30.33,NNW,327,15.0,25.0,16,0.00,,SKC,0.00,VWS V14.01,2013-01-22 09:23:00,
2013-01-22 02:24:00,39.8,-2.7,30.34,NW,319,15.0,23.0,16,0.00,,SKC,0.00,VWS V14.01,2013-01-22 09:24:00,
2013-01-22 02:25:00,39.8,-2.7,30.34,North,360,17.0,23.0,16,0.00,,SKC,0.00,VWS V14.01,2013-01-22 09:25:00,
2013-01-22 02:26:00,39.8,-2.7,30.34,NW,322,10.0,25.0,16,0.00,,SKC,0.00,VWS V14.01,2013-01-22 09:26:00,
2013-01-22 02:27:00,39.8,-2.7,30.34,NW,305,17.0,21.0,16,0.00,,SKC,0.00,VWS V14.01,2013-01-22 09:27:00,
2013-01-22 02:28:00,39.8,-2.7,30.34,WNW,287,13.0,17.0,16,0.00,,SKC,0.00,VWS V14.01,2013-01-22 09:28:00,
2013-01-22 02:29:00,39.9,-2.6,30.33,NW,305,23.0,23.0,16,0.00,,SKC,0.00,VWS V14.01,2013-01-22 09:29:00,
2013-01-22 02:30:00,39.9,-2.6,30.33,North,360,6.0,23.0,16,0.00,,SKC,0.00,VWS V14.01,2013-01-22 09:30:00,
2013-01-22 02:31:00,39.9,-2.6,30.33,North,360,11.0,17.0,16,0.00,,SKC,0.00,VWS V14.01,2013-01-22 09:31:00,
2013-01-22 02:32:00,39.9,-2.6,30.33,NNW,336,5.0,16.0,16,0.00,,SKC,0.00,VWS V14.01,2013-01-22 09:32:00,
2013-01-22 02:33:00,39.9,-2.6,30.33,North,5,4.0,9.0,16,0.00,,SKC,0.00,VWS V14.01,2013-01-22 09:33:00,
2013-01-22 02:34:00,39.8,-2.7,30.33,NNE,21,9.0,9.0,16,0.00,,SKC,0.00,VWS V14.01,2013-01-22 09:34:00,
2013-01-22 02:35:00,39.8,-2.7,30.33,NW,313,9.0,15.0,16,0.00,,SKC,0.00,VWS V14.01,2013-01-22 09:35:00,
2013-01-22 02:36:00,39.8,-2.7,30.32,WNW,290,18.0,21.0,16,0.00,,SKC,0.00,VWS V14.01,2013-01-22 09:36:00,
2013-01-22 02:37:00,39.7,-1.5,30.33,NW,316,17.0,18.0,17,0.00,,SKC,0.00,VWS V14.01,2013-01-22 09:37:00,
2013-01-22 02:38:00,39.7,-1.5,30.33,NNW,336,6.0,21.0,17,0.00,,SKC,0.00,VWS V14.01,2013-01-22 09:38:00,
2013-01-22 02:39:00,39.7,-1.5,30.33,NNW,336,14.0,24.0,17,0.00,,SKC,0.00,VWS V14.01,2013-01-22 09:39:00,
2013-01-22 02:40:00,39.6,-1.6,30.33,NW,313,26.0,26.0,17,0.00,,SKC,0.00,VWS V14.01,2013-01-22 09:40:00,
2013-01-22 02:41:00,39.6,-1.6,30.33,West,277,12.0,29.0,17,0.00,,SKC,0.00,VWS V14.01,2013-01-22 09:41:00,
2013-01-22 02:42:00,39.6,-1.6,30.32,North,350,17.0,17.0,17,0.00,,SKC,0.00,VWS V14.01,2013-01-22 09:42:00,
2013-01-22 02:43:00,39.5,-1.7,30.32,NW,319,14.0,21.0,17,0.00,,SKC,0.00,VWS V14.01,2013-01-22 09:43:00,
2013-01-22 02:44:00,39.5,-3.0,30.32,NNW,338,4.0,17.0,16,0.00,,SKC,0.00,VWS V14.01,2013-01-22 09:44:00,
2013-01-22 02:45:00,39.5,-1.7,30.31,NW,308,10.0,20.0,17,0.00,,SKC,0.00,VWS V14.01,2013-01-22 09:45:00,
2013-01-22 02:46:00,39.5,-1.7,30.31,North,360,18.0,18.0,17,0.00,,SKC,0.00,VWS V14.01,2013-01-22 09:46:00,
2013-01-22 02:47:00,39.5,-1.7,30.32,NNW,344,13.0,20.0,17,0.00,,SKC,0.00,VWS V14.01,2013-01-22 09:47:00,
2013-01-22 02:48:00,39.5,-1.7,30.31,WNW,300,10.0,19.0,17,0.00,,SKC,0.00,VWS V14.01,2013-01-22 09:48:00,
2013-01-22 02:49:00,39.5,-3.0,30.31,WSW,255,16.0,21.0,16,0.00,,SKC,0.00,VWS V14.01,2013-01-22 09:49:00,
2013-01-22 02:50:00,39.5,-1.7,30.32,WSW,248,11.0,16.0,17,0.00,,SKC,0.00,VWS V14.01,2013-01-22 09:50:00,
2013-01-22 02:51:00,39.5,-1.7,30.31,WNW,296,0.0,11.0,17,0.00,,SKC,0.00,VWS V14.01,2013-01-22 09:51:00,
2013-01-22 02:52:00,39.5,-1.7,30.30,NW,305,14.0,14.0,17,0.00,,SKC,0.00,VWS V14.01,2013-01-22 09:52:00,
2013-01-22 02:53:00,39.4,-1.8,30.30,WNW,287,14.0,21.0,17,0.00,,SKC,0.00,VWS V14.01,2013-01-22 09:53:00,
2013-01-22 02:54:00,39.3,-1.9,30.31,WSW,257,15.0,24.0,17,0.00,,SKC,0.00,VWS V14.01,2013-01-22 09:54:00,
2013-01-22 02:55:00,39.4,-1.8,30.30,North,360,27.0,33.0,17,0.00,,SKC,0.00,VWS V14.01,2013-01-22 09:55:00,
2013-01-22 02:56:00,39.4,-1.8,30.30,West,274,17.0,33.0,17,0.00,,SKC,0.00,VWS V14.01,2013-01-22 09:56:00,
2013-01-22 02:57:00,39.5,-1.7,30.29,WNW,288,15.0,20.0,17,0.00,,SKC,0.00,VWS V14.01,2013-01-22 09:57:00,
2013-01-22 02:58:00,39.5,-1.7,30.29,West,277,16.0,33.0,17,0.00,,SKC,0.00,VWS V14.01,2013-01-22 09:58:00,
2013-01-22 02:59:00,39.5,-1.7,30.29,WNW,285,19.0,19.0,17,0.00,,SKC,0.00,VWS V14.01,2013-01-22 09:59:00,
2013-01-22 03:00:00,39.5,-1.7,30.29,North,360,16.0,20.0,17,0.00,,SKC,0.00,VWS V14.01,2013-01-22 10:00:00,
2013-01-22 03:01:00,39.4,-1.8,30.28,North,360,15.0,20.0,17,0.00,,SKC,0.00,VWS V14.01,2013-01-22 10:01:00,
2013-01-22 03:02:00,39.4,-1.8,30.28,West,267,15.0,33.0,17,0.00,,SKC,0.00,VWS V14.01,2013-01-22 10:02:00,
2013-01-22 03:03:00,39.3,-1.9,30.27,West,275,11.0,27.0,17,0.00,,SKC,0.00,VWS V14.01,2013-01-22 10:03:00,
2013-01-22 03:04:00,39.3,-1.9,30.28,WNW,289,19.0,31.0,17,0.00,,SKC,0.00,VWS V14.01,2013-01-22 10:04:00,
2013-01-22 03:05:00,39.3,-1.9,30.28,NW,308,22.0,22.0,17,0.00,,SKC,0.00,VWS V14.01,2013-01-22 10:05:00,
2013-01-22 03:06:00,39.3,-1.9,30.28,NW,323,24.0,32.0,17,0.00,,SKC,0.00,VWS V14.01,2013-01-22 10:06:00,
2013-01-22 03:07:00,39.3,-1.9,30.28,NW,317,11.0,27.0,17,0.00,,SKC,0.00,VWS V14.01,2013-01-22 10:07:00,
2013-01-22 03:08:00,39.2,-1.9,30.27,West,261,27.0,27.0,17,0.00,,SKC,0.00,VWS V14.01,2013-01-22 10:08:00,
2013-01-22 03:09:00,39.2,-1.9,30.27,WNW,292,28.0,33.0,17,0.00,,SKC,0.00,VWS V14.01,2013-01-22 10:09:00,
2013-01-22 03:10:00,39.3,-1.9,30.27,West,263,19.0,34.0,17,0.00,,SKC,0.00,VWS V14.01,2013-01-22 10:10:00,
2013-01-22 03:11:00,39.3,-1.9,30.27,West,278,26.0,32.0,17,0.00,,SKC,0.00,VWS V14.01,2013-01-22 10:11:00,
2013-01-22 03:12:00,39.3,-1.9,30.26,North,360,31.0,41.0,17,0.00,,SKC,0.00,VWS V14.01,2013-01-22 10:12:00,
2013-01-22 03:13:00,39.3,-1.9,30.27,NW,317,16.0,41.0,17,0.00,,SKC,0.00,VWS V14.01,2013-01-22 10:13:00,
2013-01-22 03:14:00,39.3,-1.9,30.26,North,360,30.0,31.0,17,0.00,,SKC,0.00,VWS V14.01,2013-01-22 10:14:00,
2013-01-22 03:15:00,39.3,-1.9,30.25,WSW,257,27.0,34.0,17,0.00,,SKC,0.00,VWS V14.01,2013-01-22 10:15:00,
2013-01-22 03:16:00,39.3,-1.9,30.25,NW,306,31.0,34.0,17,0.00,,SKC,0.00,VWS V14.01,2013-01-22 10:16:00,
2013-01-22 03:17:00,39.3,-1.9,30.26,WNW,286,22.0,45.0,17,0.00,,SKC,0.00,VWS V14.01,2013-01-22 10:17:00,
2013-01-22 03:18:00,39.3,-1.9,30.24,SW,236,33.0,38.0,17,0.00,,SKC,0.00,VWS V14.01,2013-01-22 10:18:00,
2013-01-22 03:19:00,39.3,-1.9,30.25,North,360,40.0,43.0,17,0.00,,SKC,0.00,VWS V14.01,2013-01-22 10:19:00,
2013-01-22 03:20:00,39.3,-1.9,30.24,West,274,23.0,40.0,17,0.00,,SKC,0.00,VWS V14.01,2013-01-22 10:20:00,
2013-01-22 03:21:00,39.4,-1.8,30.24,WSW,254,41.0,45.0,17,0.00,,SKC,0.00,VWS V14.01,2013-01-22 10:21:00,
2013-01-22 03:22:00,39.4,-1.8,30.22,SW,218,23.0,41.0,17,0.00,,SKC,0.00,VWS V14.01,2013-01-22 10:22:00,
2013-01-22 03:23:00,39.5,-1.7,30.24,NW,304,31.0,31.0,17,0.00,,SKC,0.00,VWS V14.01,2013-01-22 10:23:00,
2013-01-22 03:24:00,39.5,-1.7,30.24,SW,235,34.0,39.0,17,0.00,,SKC,0.00,VWS V14.01,2013-01-22 10:24:00,
2013-01-22 03:25:00,39.5,-1.7,30.24,West,265,37.0,42.0,17,0.00,,SKC,0.00,VWS V14.01,2013-01-22 10:25:00,
2013-01-22 03:26:00,39.5,-1.7,30.25,West,278,27.0,43.0,17,0.00,,SKC,0.00,VWS V14.01,2013-01-22 10:26:00,
2013-01-22 03:27:00,39.5,-1.7,30.25,SSW,207,20.0,34.0,17,0.00,,SKC,0.00,VWS V14.01,2013-01-22 10:27:00,
2013-01-22 03:28:00,39.5,-1.7,30.25,WNW,282,29.0,40.0,17,0.00,,SKC,0.00,VWS V14.01,2013-01-22 10:28:00,
2013-01-22 03:29:00,39.5,-1.7,30.24,WNW,302,16.0,29.0,17,0.00,,SKC,0.00,VWS V14.01,2013-01-22 10:29:00,
2013-01-22 03:30:00,39.5,-1.7,30.23,West,280,35.0,39.0,17,0.00,,SKC,0.00,VWS V14.01,2013-01-22 10:30:00,
2013-01-22 03:31:00,39.4,-1.8,30.24,WNW,294,41.0,41.0,17,0.00,,SKC,0.00,VWS V14.01,2013-01-22 10:31:00,
2013-01-22 03:32:00,39.4,-1.8,30.24,North,360,24.0,50.0,17,0.00,,SKC,0.00,VWS V14.01,2013-01-22 10:32:00,
2013-01-22 03:33:00,39.4,-1.8,30.24,West,263,23.0,30.0,17,0.00,,SKC,0.00,VWS V14.01,2013-01-22 10:33:00,
2013-01-22 03:34:00,39.4,-1.8,30.23,West,269,26.0,33.0,17,0.00,,SKC,0.00,VWS V14.01,2013-01-22 10:34:00,
2013-01-22 03:35:00,39.5,-1.7,30.23,WNW,286,46.0,46.0,17,0.00,,SKC,0.00,VWS V14.01,2013-01-22 10:35:00,
2013-01-22 03:36:00,39.5,-1.7,30.24,West,268,37.0,46.0,17,0.00,,SKC,0.00,VWS V14.01,2013-01-22 10:36:00,
2013-01-22 03:37:00,39.5,-1.7,30.23,West,277,30.0,38.0,17,0.00,,SKC,0.00,VWS V14.01,2013-01-22 10:37:00,
2013-01-22 03:38:00,39.6,-1.6,30.23,North,360,22.0,46.0,17,0.00,,SKC,0.00,VWS V14.01,2013-01-22 10:38:00,
2013-01-22 03:39:00,39.6,-1.6,30.24,WNW,292,24.0,40.0,17,0.00,,SKC,0.00,VWS V14.01,2013-01-22 10:39:00,
2013-01-22 03:41:00,39.7,-2.8,30.24,WNW,296,27.0,44.0,16,0.00,,SKC,0.00,VWS V14.01,2013-01-22 10:41:00,
2013-01-22 03:42:00,39.7,-2.8,30.23,North,360,27.0,33.0,16,0.00,,SKC,0.00,VWS V14.01,2013-01-22 10:42:00,
2013-01-22 03:43:00,39.7,-2.8,30.23,WNW,288,25.0,31.0,16,0.00,,SKC,0.00,VWS V14.01,2013-01-22 10:43:00,
2013-01-22 03:44:00,39.7,-2.8,30.23,West,279,25.0,33.0,16,0.00,,SKC,0.00,VWS V14.01,2013-01-22 10:44:00,
2013-01-22 03:45:00,39.7,-2.8,30.22,WNW,296,47.0,52.0,16,0.00,,SKC,0.00,VWS V14.01,2013-01-22 10:45:00,
2013-01-22 03:46:00,39.8,-2.7,30.23,North,360,40.0,47.0,16,0.00,,SKC,0.00,VWS V14.01,2013-01-22 10:46:00,
2013-01-22 03:48:00,39.9,-2.6,30.22,North,360,27.0,50.0,16,0.00,,SKC,0.00,VWS V14.01,2013-01-22 10:48:00,
2013-01-22 03:49:00,40.0,-2.6,30.22,WNW,283,33.0,36.0,16,0.00,,SKC,0.00,VWS V14.01,2013-01-22 10:49:00,
2013-01-22 03:51:00,40.1,-2.5,30.22,West,267,27.0,46.0,16,0.00,,SKC,0.00,VWS V14.01,2013-01-22 10:51:00,
2013-01-22 03:52:00,40.1,-2.5,30.23,WNW,297,22.0,29.0,16,0.00,,SKC,0.00,VWS V14.01,2013-01-22 10:52:00,
2013-01-22 03:53:00,40.0,-2.6,30.23,West,281,24.0,25.0,16,0.00,,SKC,0.00,VWS V14.01,2013-01-22 10:53:00,
2013-01-22 03:54:00,40.0,-2.6,30.23,WNW,283,26.0,42.0,16,0.00,,SKC,0.00,VWS V14.01,2013-01-22 10:54:00,
2013-01-22 03:55:00,40.0,-2.6,30.23,WNW,302,31.0,35.0,16,0.00,,SKC,0.00,VWS V14.01,2013-01-22 10:55:00,
2013-01-22 03:56:00,40.0,-2.6,30.23,WNW,298,26.0,39.0,16,0.00,,SKC,0.00,VWS V14.01,2013-01-22 10:56:00,
2013-01-22 03:57:00,40.1,-2.5,30.23,West,272,30.0,37.0,16,0.00,,SKC,0.00,VWS V14.01,2013-01-22 10:57:00,
2013-01-22 03:58:00,40.1,-2.5,30.24,WNW,284,32.0,37.0,16,0.00,,SKC,0.00,VWS V14.01,2013-01-22 10:58:00,
2013-01-22 03:59:00,40.2,-2.4,30.23,NNW,340,27.0,32.0,16,0.00,,SKC,0.00,VWS V14.01,2013-01-22 10:59:00,
2013-01-22 04:00:00,40.2,-2.4,30.24,NW,311,20.0,33.0,16,0.00,,SKC,0.00,VWS V14.01,2013-01-22 11:00:00,
2013-01-22 04:01:00,40.2,-3.8,30.24,WNW,296,25.0,31.0,15,0.00,,SKC,0.00,VWS V14.01,2013-01-22 11:01:00,
2013-01-22 04:02:00,40.3,-3.7,30.23,NW,320,21.0,33.0,15,0.00,,SKC,0.00,VWS V14.01,2013-01-22 11:02:00,
2013-01-22 04:03:00,40.4,-3.6,30.22,NNW,340,20.0,32.0,15,0.00,,SKC,0.00,VWS V14.01,2013-01-22 11:03:00,
2013-01-22 04:04:00,40.4,-3.6,30.23,WNW,302,12.0,30.0,15,0.00,,SKC,0.00,VWS V14.01,2013-01-22 11:04:00,
2013-01-22 04:05:00,40.5,-3.5,30.23,NW,317,26.0,26.0,15,0.00,,SKC,0.00,VWS V14.01,2013-01-22 11:05:00,
2013-01-22 04:06:00,40.6,-3.4,30.24,WNW,286,25.0,26.0,15,0.00,,SKC,0.00,VWS V14.01,2013-01-22 11:06:00,
2013-01-22 04:07:00,40.6,-3.4,30.23,North,360,21.0,36.0,15,0.00,,SKC,0.00,VWS V14.01,2013-01-22 11:07:00,
2013-01-22 04:08:00,40.6,-3.4,30.23,NW,320,30.0,30.0,15,0.00,,SKC,0.00,VWS V14.01,2013-01-22 11:08:00,
2013-01-22 04:09:00,40.6,-3.4,30.23,NW,315,5.0,30.0,15,0.00,,SKC,0.00,VWS V14.01,2013-01-22 11:09:00,
2013-01-22 04:10:00,40.6,-3.4,30.23,North,5,7.0,19.0,15,0.00,,SKC,0.00,VWS V14.01,2013-01-22 11:10:00,
2013-01-22 04:11:00,40.6,-3.4,30.23,North,360,19.0,37.0,15,0.00,,SKC,0.00,VWS V14.01,2013-01-22 11:11:00,
2013-01-22 04:12:00,40.5,-3.5,30.23,North,360,17.0,33.0,15,0.00,,SKC,0.00,VWS V14.01,2013-01-22 11:12:00,
2013-01-22 04:13:00,40.5,-3.5,30.22,NW,305,20.0,24.0,15,0.00,,SKC,0.00,VWS V14.01,2013-01-22 11:13:00,
2013-01-22 04:14:00,40.5,-3.5,30.24,North,9,23.0,23.0,15,0.00,,SKC,0.00,VWS V14.01,2013-01-22 11:14:00,
2013-01-22 04:15:00,40.5,-3.5,30.24,NW,316,23.0,23.0,15,0.00,,SKC,0.00,VWS V14.01,2013-01-22 11:15:00,
2013-01-22 04:16:00,40.5,-3.5,30.25,North,360,17.0,27.0,15,0.00,,SKC,0.00,VWS V14.01,2013-01-22 11:16:00,
2013-01-22 04:17:00,40.6,-3.4,30.24,SSW,196,25.0,29.0,15,0.00,,SKC,0.00,VWS V14.01,2013-01-22 11:17:00,
2013-01-22 04:18:00,40.6,-3.4,30.24,North,360,28.0,31.0,15,0.00,,SKC,0.00,VWS V14.01,2013-01-22 11:18:00,
2013-01-22 04:19:00,40.6,-3.4,30.25,North,349,32.0,36.0,15,0.00,,SKC,0.00,VWS V14.01,2013-01-22 11:19:00,
2013-01-22 04:20:00,40.6,-3.4,30.24,North,360,22.0,32.0,15,0.00,,SKC,0.00,VWS V14.01,2013-01-22 11:20:00,
2013-01-22 04:21:00,40.5,-3.5,30.23,North,360,30.0,30.0,15,0.00,,SKC,0.00,VWS V14.01,2013-01-22 11:21:00,
2013-01-22 04:22:00,40.5,-3.5,30.23,NW,319,18.0,30.0,15,0.00,,SKC,0.00,VWS V14.01,2013-01-22 11:22:00,
2013-01-22 04:23:00,40.6,-3.4,30.25,NNW,333,11.0,28.0,15,0.00,,SKC,0.00,VWS V14.01,2013-01-22 11:23:00,
2013-01-22 04:24:00,40.6,-3.4,30.25,North,360,17.0,17.0,15,0.00,,SKC,0.00,VWS V14.01,2013-01-22 11:24:00,
2013-01-22 04:25:00,40.6,-3.4,30.24,NW,315,24.0,28.0,15,0.00,,SKC,0.00,VWS V14.01,2013-01-22 11:25:00,
2013-01-22 04:26:00,40.6,-3.4,30.25,NNE,15,24.0,27.0,15,0.00,,SKC,0.00,VWS V14.01,2013-01-22 11:26:00,
2013-01-22 04:27:00,40.6,-3.4,30.24,NW,311,22.0,28.0,15,0.00,,SKC,0.00,VWS V14.01,2013-01-22 11:27:00,
2013-01-22 04:28:00,40.5,-3.5,30.25,North,360,19.0,33.0,15,0.00,,SKC,0.00,VWS V14.01,2013-01-22 11:28:00,
2013-01-22 04:29:00,40.5,-3.5,30.25,North,360,14.0,23.0,15,0.00,,SKC,0.00,VWS V14.01,2013-01-22 11:29:00,
2013-01-22 04:30:00,40.5,-3.5,30.26,NNW,347,17.0,24.0,15,0.00,,SKC,0.00,VWS V14.01,2013-01-22 11:30:00,
2013-01-22 04:31:00,40.4,-3.6,30.25,NW,320,12.0,21.0,15,0.00,,SKC,0.00,VWS V14.01,2013-01-22 11:31:00,
2013-01-22 04:32:00,40.4,-3.6,30.25,North,350,17.0,24.0,15,0.00,,SKC,0.00,VWS V14.01,2013-01-22 11:32:00,
2013-01-22 04:33:00,40.3,-3.7,30.25,North,360,15.0,26.0,15,0.00,,SKC,0.00,VWS V14.01,2013-01-22 11:33:00,
2013-01-22 04:34:00,40.3,-2.3,30.26,NW,321,13.0,33.0,16,0.00,,SKC,0.00,VWS V14.01,2013-01-22 11:34:00,
2013-01-22 04:35:00,40.2,-2.4,30.26,NNW,335,18.0,24.0,16,0.00,,SKC,0.00,VWS V14.01,2013-01-22 11:35:00,
2013-01-22 04:36:00,40.1,-2.5,30.26,North,360,17.0,21.0,16,0.00,,SKC,0.00,VWS V14.01,2013-01-22 11:36:00,
2013-01-22 04:37:00,40.1,-2.5,30.27,NNW,348,24.0,25.0,16,0.00,,SKC,0.00,VWS V14.01,2013-01-22 11:37:00,
2013-01-22 04:38:00,40.0,-2.6,30.26,North,10,12.0,29.0,16,0.00,,SKC,0.00,VWS V14.01,2013-01-22 11:38:00,
2013-01-22 04:39:00,40.0,-2.6,30.27,NW,325,12.0,31.0,16,0.00,,SKC,0.00,VWS V14.01,2013-01-22 11:39:00,
2013-01-22 04:40:00,40.0,-2.6,30.27,NNW,327,14.0,21.0,16,0.00,,SKC,0.00,VWS V14.01,2013-01-22 11:40:00,
2013-01-22 04:41:00,40.0,-2.6,30.26,NE,42,15.0,28.0,16,0.00,,SKC,0.00,VWS V14.01,2013-01-22 11:41:00,
2013-01-22 04:42:00,40.0,-2.6,30.27,NW,309,24.0,28.0,16,0.00,,SKC,0.00,VWS V14.01,2013-01-22 11:42:00,
2013-01-22 04:43:00,40.0,-2.6,30.26,WNW,295,15.0,26.0,16,0.00,,SKC,0.00,VWS V14.01,2013-01-22 11:43:00,
2013-01-22 04:44:00,40.0,-2.6,30.28,NNW,329,14.0,15.0,16,0.00,,SKC,0.00,VWS V14.01,2013-01-22 11:44:00,
2013-01-22 04:45:00,40.0,-2.6,30.27,NNW,327,24.0,33.0,16,0.00,,SKC,0.00,VWS V14.01,2013-01-22 11:45:00,
2013-01-22 04:46:00,40.1,-3.8,30.27,NNW,329,14.0,32.0,15,0.00,,SKC,0.00,VWS V14.01,2013-01-22 11:46:00,
2013-01-22 04:47:00,40.1,-2.5,30.28,North,355,25.0,26.0,16,0.00,,SKC,0.00,VWS V14.01,2013-01-22 11:47:00,
2013-01-22 04:48:00,40.0,-2.6,30.28,NW,319,20.0,33.0,16,0.00,,SKC,0.00,VWS V14.01,2013-01-22 11:48:00,
2013-01-22 04:49:00,40.0,-2.6,30.28,North,351,12.0,33.0,16,0.00,,SKC,0.00,VWS V14.01,2013-01-22 11:49:00,
2013-01-22 04:50:00,40.1,-3.8,30.27,NNW,327,30.0,30.0,15,0.00,,SKC,0.00,VWS V14.01,2013-01-22 11:50:00,
2013-01-22 04:51:00,40.1,-3.8,30.28,NNW,331,15.0,30.0,15,0.00,,SKC,0.00,VWS V14.01,2013-01-22 11:51:00,
2013-01-22 04:52:00,40.1,-2.5,30.28,NNW,328,24.0,31.0,16,0.00,,SKC,0.00,VWS V14.01,2013-01-22 11:52:00,
2013-01-22 04:53:00,40.1,-2.5,30.29,NNW,336,28.0,28.0,16,0.00,,SKC,0.00,VWS V14.01,2013-01-22 11:53:00,
2013-01-22 04:54:00,40.1,-2.5,30.29,WNW,292,16.0,28.0,16,0.00,,SKC,0.00,VWS V14.01,2013-01-22 11:54:00,
2013-01-22 04:55:00,40.2,-2.4,30.29,West,280,7.0,18.0,16,0.00,,SKC,0.00,VWS V14.01,2013-01-22 11:55:00,
2013-01-22 04:56:00,40.2,-3.8,30.29,North,360,17.0,23.0,15,0.00,,SKC,0.00,VWS V14.01,2013-01-22 11:56:00,
2013-01-22 04:57:00,40.2,-3.8,30.30,North,360,21.0,27.0,15,0.00,,SKC,0.00,VWS V14.01,2013-01-22 11:57:00,
2013-01-22 04:58:00,40.2,-3.8,30.30,NW,317,24.0,32.0,15,0.00,,SKC,0.00,VWS V14.01,2013-01-22 11:58:00,
2013-01-22 04:59:00,40.2,-3.8,30.29,North,360,13.0,25.0,15,0.00,,SKC,0.00,VWS V14.01,2013-01-22 11:59:00,
2013-01-22 05:00:00,40.2,-3.8,30.29,NW,305,28.0,30.0,15,0.00,,SKC,0.00,VWS V14.01,2013-01-22 12:00:00,
2013-01-22 05:01:00,40.2,-3.8,30.29,NW,305,28.0,30.0,15,0.00,,SKC,0.00,VWS V14.01,2013-01-22 12:01:00,
2013-01-22 05:02:00,40.3,-3.7,30.28,North,360,26.0,30.0,15,0.00,,SKC,0.00,VWS V14.01,2013-01-22 12:02:00,
2013-01-22 05:03:00,40.4,-3.6,30.30,NW,324,15.0,26.0,15,0.00,,SKC,0.00,VWS V14.01,2013-01-22 12:03:00,
2013-01-22 05:04:00,40.4,-3.6,30.30,WNW,288,19.0,34.0,15,0.00,,SKC,0.00,VWS V14.01,2013-01-22 12:04:00,
2013-01-22 05:05:00,40.4,-3.6,30.30,WNW,284,21.0,40.0,15,0.00,,SKC,0.00,VWS V14.01,2013-01-22 12:05:00,
2013-01-22 05:06:00,40.4,-3.6,30.30,NW,314,26.0,36.0,15,0.00,,SKC,0.00,VWS V14.01,2013-01-22 12:06:00,
2013-01-22 05:07:00,40.4,-2.2,30.29,West,271,26.0,35.0,16,0.00,,SKC,0.00,VWS V14.01,2013-01-22 12:07:00,
2013-01-22 05:08:00,40.4,-2.2,30.30,WNW,301,32.0,34.0,16,0.00,,SKC,0.00,VWS V14.01,2013-01-22 12:08:00,
2013-01-22 05:09:00,40.4,-2.2,30.30,WNW,301,21.0,38.0,16,0.00,,SKC,0.00,VWS V14.01,2013-01-22 12:09:00,
2013-01-22 05:10:00,40.4,-3.6,30.30,North,360,22.0,29.0,15,0.00,,SKC,0.00,VWS V14.01,2013-01-22 12:10:00,
2013-01-22 05:11:00,40.4,-3.6,30.30,West,281,22.0,33.0,15,0.00,,SKC,0.00,VWS V14.01,2013-01-22 12:11:00,
2013-01-22 05:12:00,40.3,-3.7,30.30,WNW,300,19.0,35.0,15,0.00,,SKC,0.00,VWS V14.01,2013-01-22 12:12:00,
2013-01-22 05:13:00,40.3,-2.3,30.29,WSW,252,18.0,34.0,16,0.00,,SKC,0.00,VWS V14.01,2013-01-22 12:13:00,
2013-01-22 05:14:00,40.3,-2.3,30.29,WNW,286,20.0,24.0,16,0.00,,SKC,0.00,VWS V14.01,2013-01-22 12:14:00,
2013-01-22 05:15:00,40.2,-3.8,30.30,WNW,286,23.0,42.0,15,0.00,,SKC,0.00,VWS V14.01,2013-01-22 12:15:00,
2013-01-22 05:16:00,40.2,-2.4,30.30,WNW,289,36.0,36.0,16,0.00,,SKC,0.00,VWS V14.01,2013-01-22 12:16:00,
2013-01-22 05:17:00,40.2,-2.4,30.30,WNW,296,37.0,37.0,16,0.00,,SKC,0.00,VWS V14.01,2013-01-22 12:17:00,
2013-01-22 05:18:00,40.3,-3.7,30.30,West,263,33.0,42.0,15,0.00,,SKC,0.00,VWS V14.01,2013-01-22 12:18:00,
2013-01-22 05:19:00,40.4,-3.6,30.31,NW,315,20.0,37.0,15,0.00,,SKC,0.00,VWS V14.01,2013-01-22 12:19:00,
2013-01-22 05:20:00,40.5,-3.5,30.31,WNW,285,40.0,43.0,15,0.00,,SKC,0.00,VWS V14.01,2013-01-22 12:20:00,
2013-01-22 05:21:00,40.5,-3.5,30.30,North,360,41.0,45.0,15,0.00,,SKC,0.00,VWS V14.01,2013-01-22 12:21:00,
2013-01-22 05:22:00,40.5,-3.5,30.31,West,274,38.0,42.0,15,0.00,,SKC,0.00,VWS V14.01,2013-01-22 12:22:00,
2013-01-22 05:23:00,40.5,-3.5,30.31,WNW,291,19.0,38.0,15,0.00,,SKC,0.00,VWS V14.01,2013-01-22 12:23:00,
2013-01-22 05:24:00,40.4,-3.6,30.29,West,262,26.0,33.0,15,0.00,,SKC,0.00,VWS V14.01,2013-01-22 12:24:00,
2013-01-22 05:25:00,40.4,-3.6,30.30,West,278,30.0,40.0,15,0.00,,SKC,0.00,VWS V14.01,2013-01-22 12:25:00,
2013-01-22 05:26:00,40.5,-3.5,30.30,WNW,298,27.0,37.0,15,0.00,,SKC,0.00,VWS V14.01,2013-01-22 12:26:00,
2013-01-22 05:27:00,40.5,-3.5,30.31,West,273,31.0,39.0,15,0.00,,SKC,0.00,VWS V14.01,2013-01-22 12:27:00,
2013-01-22 05:28:00,40.5,-3.5,30.30,WSW,251,40.0,43.0,15,0.00,,SKC,0.00,VWS V14.01,2013-01-22 12:28:00,
2013-01-22 05:29:00,40.5,-3.5,30.30,West,275,45.0,46.0,15,0.00,,SKC,0.00,VWS V14.01,2013-01-22 12:29:00,
2013-01-22 05:30:00,40.5,-2.2,30.30,WNW,290,27.0,45.0,16,0.00,,SKC,0.00,VWS V14.01,2013-01-22 12:30:00,
2013-01-22 05:31:00,40.4,-2.2,30.30,West,277,34.0,37.0,16,0.00,,SKC,0.00,VWS V14.01,2013-01-22 12:31:00,
2013-01-22 05:32:00,40.2,-2.4,30.30,North,360,28.0,38.0,16,0.00,,SKC,0.00,VWS V14.01,2013-01-22 12:32:00,
2013-01-22 05:33:00,40.2,-2.4,30.28,WSW,238,21.0,33.0,16,0.00,,SKC,0.00,VWS V14.01,2013-01-22 12:33:00,
2013-01-22 05:34:00,40.1,-2.5,30.29,West,268,35.0,41.0,16,0.00,,SKC,0.00,VWS V14.01,2013-01-22 12:34:00,
2013-01-22 05:35:00,40.0,-2.6,30.29,WNW,293,35.0,41.0,16,0.00,,SKC,0.00,VWS V14.01,2013-01-22 12:35:00,
2013-01-22 05:36:00,40.0,-2.6,30.30,West,268,29.0,35.0,16,0.00,,SKC,0.00,VWS V14.01,2013-01-22 12:36:00,
2013-01-22 05:37:00,40.0,-2.6,30.30,West,269,23.0,31.0,16,0.00,,SKC,0.00,VWS V14.01,2013-01-22 12:37:00,
2013-01-22 05:38:00,40.0,-2.6,30.29,SW,227,34.0,36.0,16,0.00,,SKC,0.00,VWS V14.01,2013-01-22 12:38:00,
2013-01-22 05:39:00,39.9,-2.6,30.29,SW,231,29.0,34.0,16,0.00,,SKC,0.00,VWS V14.01,2013-01-22 12:39:00,
2013-01-22 05:40:00,39.9,-2.6,30.30,WSW,257,27.0,29.0,16,0.00,,SKC,0.00,VWS V14.01,2013-01-22 12:40:00,
2013-01-22 05:41:00,39.9,-4.0,30.30,WSW,246,26.0,42.0,15,0.00,,SKC,0.00,VWS V14.01,2013-01-22 12:41:00,
2013-01-22 05:42:00,39.9,-2.6,30.29,West,259,33.0,33.0,16,0.00,,SKC,0.00,VWS V14.01,2013-01-22 12:42:00,
2013-01-22 05:43:00,39.8,-2.7,30.30,WSW,237,38.0,41.0,16,0.00,,SKC,0.00,VWS V14.01,2013-01-22 12:43:00,
2013-01-22 05:44:00,39.8,-2.7,30.29,WSW,249,33.0,40.0,16,0.00,,SKC,0.00,VWS V14.01,2013-01-22 12:44:00,
2013-01-22 05:45:00,39.9,-2.6,30.29,West,262,33.0,43.0,16,0.00,,SKC,0.00,VWS V14.01,2013-01-22 12:45:00,
2013-01-22 05:46:00,40.0,-2.6,30.28,North,360,35.0,43.0,16,0.00,,SKC,0.00,VWS V14.01,2013-01-22 12:46:00,
2013-01-22 05:47:00,40.1,-3.8,30.30,West,262,40.0,40.0,15,0.00,,SKC,0.00,VWS V14.01,2013-01-22 12:47:00,
2013-01-22 05:48:00,40.1,-2.5,30.30,North,360,22.0,40.0,16,0.00,,SKC,0.00,VWS V14.01,2013-01-22 12:48:00,
2013-01-22 05:49:00,40.1,-2.5,30.30,SW,235,27.0,28.0,16,0.00,,SKC,0.00,VWS V14.01,2013-01-22 12:49:00,
2013-01-22 05:50:00,40.0,-2.6,30.30,WSW,245,33.0,35.0,16,0.00,,SKC,0.00,VWS V14.01,2013-01-22 12:50:00,
2013-01-22 05:51:00,40.0,-2.6,30.29,WSW,243,29.0,33.0,16,0.00,,SKC,0.00,VWS V14.01,2013-01-22 12:51:00,
2013-01-22 05:52:00,40.0,-3.9,30.30,North,360,36.0,37.0,15,0.00,,SKC,0.00,VWS V14.01,2013-01-22 12:52:00,
2013-01-22 05:53:00,40.0,-3.9,30.29,SW,233,36.0,41.0,15,0.00,,SKC,0.00,VWS V14.01,2013-01-22 12:53:00,
2013-01-22 05:54:00,40.0,-3.9,30.29,WSW,252,26.0,38.0,15,0.00,,SKC,0.00,VWS V14.01,2013-01-22 12:54:00,
2013-01-22 05:55:00,40.1,-3.8,30.29,West,269,31.0,40.0,15,0.00,,SKC,0.00,VWS V14.01,2013-01-22 12:55:00,
2013-01-22 05:56:00,40.1,-3.8,30.30,North,360,22.0,37.0,15,0.00,,SKC,0.00,VWS V14.01,2013-01-22 12:56:00,
2013-01-22 05:57:00,40.1,-3.8,30.31,WSW,257,17.0,33.0,15,0.00,,SKC,0.00,VWS V14.01,2013-01-22 12:57:00,
2013-01-22 05:58:00,40.1,-3.8,30.29,SW,236,24.0,34.0,15,0.00,,SKC,0.00,VWS V14.01,2013-01-22 12:58:00,
2013-01-22 05:59:00,40.0,-3.9,30.30,West,265,21.0,30.0,15,0.00,,SKC,0.00,VWS V14.01,2013-01-22 12:59:00,
2013-01-22 06:00:00,40.0,-3.9,30.29,WSW,257,38.0,38.0,15,0.00,,SKC,0.00,VWS V14.01,2013-01-22 13:00:00,
2013-01-22 06:01:00,40.1,-3.8,30.31,WSW,245,31.0,46.0,15,0.00,,SKC,0.00,VWS V14.01,2013-01-22 13:01:00,
2013-01-22 06:02:00,40.2,-3.8,30.30,SW,224,40.0,40.0,15,0.00,,SKC,0.00,VWS V14.01,2013-01-22 13:02:00,
2013-01-22 06:03:00,40.3,-3.7,30.30,North,360,24.0,44.0,15,0.00,,SKC,0.00,VWS V14.01,2013-01-22 13:03:00,
2013-01-22 06:04:00,40.4,-3.6,30.30,West,275,40.0,40.0,15,0.00,,SKC,0.00,VWS V14.01,2013-01-22 13:04:00,
2013-01-22 06:05:00,40.4,-3.6,30.30,WSW,246,33.0,40.0,15,0.00,,SKC,0.00,VWS V14.01,2013-01-22 13:05:00,
2013-01-22 06:06:00,40.4,-3.6,30.31,West,277,33.0,40.0,15,0.00,,SKC,0.00,VWS V14.01,2013-01-22 13:06:00,
2013-01-22 06:07:00,40.5,-3.5,30.31,WSW,250,45.0,45.0,15,0.00,,SKC,0.00,VWS V14.01,2013-01-22 13:07:00,
2013-01-22 06:08:00,40.5,-3.5,30.31,WSW,250,36.0,45.0,15,0.00,,SKC,0.00,VWS V14.01,2013-01-22 13:08:00,
2013-01-22 06:09:00,40.6,-3.4,30.31,WSW,258,30.0,38.0,15,0.00,,SKC,0.00,VWS V14.01,2013-01-22 13:09:00,
2013-01-22 06:10:00,40.6,-3.4,30.32,WSW,240,25.0,30.0,15,0.00,,SKC,0.00,VWS V14.01,2013-01-22 13:10:00,
2013-01-22 06:11:00,40.6,-3.4,30.31,West,273,25.0,38.0,15,0.00,,SKC,0.00,VWS V14.01,2013-01-22 13:11:00,
2013-01-22 06:12:00,40.6,-3.4,30.31,WSW,247,27.0,35.0,15,0.00,,SKC,0.00,VWS V14.01,2013-01-22 13:12:00,
2013-01-22 06:13:00,40.5,-3.5,30.32,West,278,27.0,27.0,15,0.00,,SKC,0.00,VWS V14.01,2013-01-22 13:13:00,
2013-01-22 06:14:00,40.4,-3.6,30.32,WSW,254,36.0,38.0,15,0.00,,SKC,0.00,VWS V14.01,2013-01-22 13:14:00,
2013-01-22 06:15:00,40.4,-3.6,30.33,West,272,32.0,36.0,15,0.00,,SKC,0.00,VWS V14.01,2013-01-22 13:15:00,
2013-01-22 06:16:00,40.3,-3.7,30.33,West,281,25.0,33.0,15,0.00,,SKC,0.00,VWS V14.01,2013-01-22 13:16:00,
2013-01-22 06:17:00,40.3,-3.7,30.32,NW,304,22.0,27.0,15,0.00,,SKC,0.00,VWS V14.01,2013-01-22 13:17:00,
2013-01-22 06:20:00,40.2,-3.8,30.31,WSW,253,33.0,48.0,15,0.00,,SKC,0.00,VWS V14.01,2013-01-22 13:20:00,
2013-01-22 06:21:00,40.3,-3.7,30.32,WSW,247,29.0,38.0,15,0.00,,SKC,0.00,VWS V14.01,2013-01-22 13:21:00,
2013-01-22 06:22:00,40.4,-3.6,30.33,WSW,240,15.0,35.0,15,0.00,,SKC,0.00,VWS V14.01,2013-01-22 13:22:00,
2013-01-22 06:23:00,40.5,-3.5,30.32,WSW,256,33.0,48.0,15,0.00,,SKC,0.00,VWS V14.01,2013-01-22 13:23:00,
2013-01-22 06:24:00,40.6,-3.4,30.33,North,360,30.0,33.0,15,0.00,,SKC,0.00,VWS V14.01,2013-01-22 13:24:00,
2013-01-22 06:25:00,40.6,-3.4,30.32,SW,227,24.0,32.0,15,0.00,,SKC,0.00,VWS V14.01,2013-01-22 13:25:00,
2013-01-22 06:28:00,40.7,-4.8,30.31,West,271,39.0,40.0,14,0.00,,SKC,0.00,VWS V14.01,2013-01-22 13:28:00,
2013-01-22 06:29:00,40.7,-4.8,30.33,WSW,247,23.0,40.0,14,0.00,,SKC,0.00,VWS V14.01,2013-01-22 13:29:00,
2013-01-22 06:30:00,40.8,-4.7,30.32,West,262,31.0,31.0,14,0.00,,SKC,0.00,VWS V14.01,2013-01-22 13:30:00,
2013-01-22 06:31:00,40.9,-4.6,30.32,WSW,252,17.0,33.0,14,0.00,,SKC,0.00,VWS V14.01,2013-01-22 13:31:00,
2013-01-22 06:32:00,40.9,-4.6,30.33,WSW,250,30.0,37.0,14,0.00,,SKC,0.00,VWS V14.01,2013-01-22 13:32:00,
2013-01-22 06:33:00,40.9,-4.6,30.32,West,265,33.0,33.0,14,0.00,,SKC,0.00,VWS V14.01,2013-01-22 13:33:00,
2013-01-22 06:34:00,40.9,-4.6,30.32,WSW,252,39.0,39.0,14,0.00,,SKC,0.00,VWS V14.01,2013-01-22 13:34:00,
2013-01-22 06:35:00,40.9,-4.6,30.33,West,279,23.0,39.0,14,0.00,,SKC,0.00,VWS V14.01,2013-01-22 13:35:00,
2013-01-22 06:36:00,40.9,-4.6,30.32,SW,224,21.0,33.0,14,0.00,,SKC,0.00,VWS V14.01,2013-01-22 13:36:00,
2013-01-22 06:37:00,40.9,-4.6,30.32,West,263,19.0,24.0,14,0.00,,SKC,0.00,VWS V14.01,2013-01-22 13:37:00,
2013-01-22 06:38:00,40.8,-4.7,30.32,WSW,248,14.0,30.0,14,0.00,,SKC,0.00,VWS V14.01,2013-01-22 13:38:00,
2013-01-22 06:39:00,40.8,-4.7,30.32,WSW,255,21.0,24.0,14,0.00,,SKC,0.00,VWS V14.01,2013-01-22 13:39:00,
2013-01-22 06:40:00,40.7,-4.8,30.32,WSW,256,33.0,36.0,14,0.00,,SKC,0.00,VWS V14.01,2013-01-22 13:40:00,
2013-01-22 06:41:00,40.8,-4.7,30.31,West,269,24.0,33.0,14,0.00,,SKC,0.00,VWS V14.01,2013-01-22 13:41:00,
2013-01-22 06:42:00,40.8,-4.7,30.31,WSW,252,31.0,31.0,14,0.00,,SKC,0.00,VWS V14.01,2013-01-22 13:42:00,
2013-01-22 06:43:00,40.9,-4.6,30.32,WSW,244,24.0,35.0,14,0.00,,SKC,0.00,VWS V14.01,2013-01-22 13:43:00,
2013-01-22 06:44:00,41.1,-4.5,30.32,West,263,19.0,26.0,14,0.00,,SKC,0.00,VWS V14.01,2013-01-22 13:44:00,
2013-01-22 06:45:00,41.1,-4.5,30.32,WSW,244,29.0,33.0,14,0.00,,SKC,0.00,VWS V14.01,2013-01-22 13:45:00,
2013-01-22 06:46:00,41.2,-4.4,30.32,West,278,16.0,30.0,14,0.00,,SKC,0.00,VWS V14.01,2013-01-22 13:46:00,
2013-01-22 06:47:00,41.2,-4.4,30.33,West,273,26.0,26.0,14,0.00,,SKC,0.00,VWS V14.01,2013-01-22 13:47:00,
2013-01-22 06:48:00,41.3,-5.8,30.33,SW,214,20.0,26.0,13,0.00,,SKC,0.00,VWS V14.01,2013-01-22 13:48:00,
2013-01-22 06:49:00,41.4,-5.8,30.32,WNW,286,17.0,33.0,13,0.00,,SKC,0.00,VWS V14.01,2013-01-22 13:49:00,
2013-01-22 06:50:00,41.4,-4.2,30.32,West,270,19.0,33.0,14,0.00,,SKC,0.00,VWS V14.01,2013-01-22 13:50:00,
2013-01-22 06:51:00,41.3,-4.3,30.32,WNW,298,41.0,41.0,14,0.00,,SKC,0.00,VWS V14.01,2013-01-22 13:51:00,
2013-01-22 06:52:00,41.3,-4.3,30.32,West,259,19.0,41.0,14,0.00,,SKC,0.00,VWS V14.01,2013-01-22 13:52:00,
2013-01-22 06:53:00,41.3,-4.3,30.32,West,259,23.0,27.0,14,0.00,,SKC,0.00,VWS V14.01,2013-01-22 13:53:00,
2013-01-22 06:54:00,41.3,-5.8,30.33,West,261,19.0,24.0,13,0.00,,SKC,0.00,VWS V14.01,2013-01-22 13:54:00,
2013-01-22 06:55:00,41.3,-5.8,30.32,North,360,22.0,29.0,13,0.00,,SKC,0.00,VWS V14.01,2013-01-22 13:55:00,
2013-01-22 06:56:00,41.4,-5.8,30.32,West,262,26.0,30.0,13,0.00,,SKC,0.00,VWS V14.01,2013-01-22 13:56:00,
2013-01-22 06:57:00,41.4,-5.8,30.32,WSW,254,22.0,27.0,13,0.00,,SKC,0.00,VWS V14.01,2013-01-22 13:57:00,
2013-01-22 06:58:00,41.5,-5.7,30.33,North,360,26.0,30.0,13,0.00,,SKC,0.00,VWS V14.01,2013-01-22 13:58:00,
2013-01-22 06:59:00,41.5,-5.7,30.33,West,270,22.0,33.0,13,0.00,,SKC,0.00,VWS V14.01,2013-01-22 13:59:00,
2013-01-22 07:00:00,41.5,-5.7,30.33,SSW,193,23.0,31.0,13,0.00,,SKC,0.00,VWS V14.01,2013-01-22 14:00:00,
2013-01-22 07:01:00,41.5,-5.7,30.32,West,271,23.0,33.0,13,0.00,,SKC,0.00,VWS V14.01,2013-01-22 14:01:00,
2013-01-22 07:02:00,41.5,-5.7,30.33,West,272,24.0,30.0,13,0.00,,SKC,0.00,VWS V14.01,2013-01-22 14:02:00,
2013-01-22 07:03:00,41.6,-5.6,30.33,West,262,33.0,33.0,13,0.00,,SKC,0.00,VWS V14.01,2013-01-22 14:03:00,
2013-01-22 07:04:00,41.6,-5.6,30.33,WNW,284,27.0,33.0,13,0.00,,SKC,0.00,VWS V14.01,2013-01-22 14:04:00,
2013-01-22 07:05:00,41.7,-5.5,30.33,West,277,22.0,35.0,13,0.00,,SKC,0.00,VWS V14.01,2013-01-22 14:05:00,
2013-01-22 07:06:00,41.7,-5.5,30.32,West,275,15.0,28.0,13,0.00,,SKC,0.00,VWS V14.01,2013-01-22 14:06:00,
2013-01-22 07:07:00,41.7,-5.5,30.33,West,269,19.0,24.0,13,0.00,,SKC,0.00,VWS V14.01,2013-01-22 14:07:00,
2013-01-22 07:08:00,41.6,-5.6,30.33,West,273,27.0,27.0,13,0.00,,SKC,0.00,VWS V14.01,2013-01-22 14:08:00,
2013-01-22 07:09:00,41.5,-5.7,30.33,North,360,26.0,30.0,13,0.00,,SKC,0.00,VWS V14.01,2013-01-22 14:09:00,
2013-01-22 07:10:00,41.6,-5.6,30.32,WSW,247,33.0,34.0,13,0.00,,SKC,0.00,VWS V14.01,2013-01-22 14:10:00,
2013-01-22 07:11:00,41.6,-5.6,30.33,West,263,18.0,39.0,13,0.00,,SKC,0.00,VWS V14.01,2013-01-22 14:11:00,
2013-01-22 07:12:00,41.6,-5.6,30.33,North,360,14.0,22.0,13,0.00,,SKC,0.00,VWS V14.01,2013-01-22 14:12:00,
2013-01-22 07:13:00,41.5,-5.7,30.33,North,360,10.0,16.0,13,0.00,,SKC,0.00,VWS V14.01,2013-01-22 14:13:00,
2013-01-22 07:14:00,41.4,-5.8,30.33,North,360,13.0,20.0,13,0.00,,SKC,0.00,VWS V14.01,2013-01-22 14:14:00,
2013-01-22 07:15:00,41.4,-5.8,30.32,WSW,245,33.0,33.0,13,0.00,,SKC,0.00,VWS V14.01,2013-01-22 14:15:00,
2013-01-22 07:16:00,41.4,-5.8,30.33,SW,229,19.0,33.0,13,0.00,,SKC,0.00,VWS V14.01,2013-01-22 14:16:00,
2013-01-22 07:17:00,41.4,-5.8,30.33,SW,229,19.0,33.0,13,0.00,,SKC,0.00,VWS V14.01,2013-01-22 14:17:00,
2013-01-22 07:18:00,41.5,-5.7,30.33,North,360,13.0,21.0,13,0.00,,SKC,0.00,VWS V14.01,2013-01-22 14:18:00,
2013-01-22 07:19:00,41.5,-5.7,30.32,WNW,283,16.0,19.0,13,0.00,,SKC,0.00,VWS V14.01,2013-01-22 14:19:00,
2013-01-22 07:20:00,41.5,-5.7,30.33,West,259,9.0,16.0,13,0.00,,SKC,0.00,VWS V14.01,2013-01-22 14:20:00,
2013-01-22 07:21:00,41.4,-5.8,30.33,WNW,294,14.0,17.0,13,0.00,,SKC,0.00,VWS V14.01,2013-01-22 14:21:00,
2013-01-22 07:22:00,41.4,-5.8,30.33,SW,222,17.0,33.0,13,0.00,,SKC,0.00,VWS V14.01,2013-01-22 14:22:00,
2013-01-22 07:23:00,41.4,-5.8,30.32,SW,223,21.0,22.0,13,0.00,,SKC,0.00,VWS V14.01,2013-01-22 14:23:00,
2013-01-22 07:24:00,41.5,-5.7,30.32,WSW,255,20.0,26.0,13,0.00,,SKC,0.00,VWS V14.01,2013-01-22 14:24:00,
2013-01-22 07:25:00,41.5,-5.7,30.32,WSW,257,22.0,25.0,13,0.00,,SKC,0.00,VWS V14.01,2013-01-22 14:25:00,
2013-01-22 07:26:00,41.4,-5.8,30.32,SW,228,23.0,33.0,13,0.00,,SKC,0.00,VWS V14.01,2013-01-22 14:26:00,
2013-01-22 07:27:00,41.4,-5.8,30.32,North,360,27.0,35.0,13,0.00,,SKC,0.00,VWS V14.01,2013-01-22 14:27:00,
2013-01-22 07:28:00,41.4,-5.8,30.32,North,360,17.0,34.0,13,0.00,,SKC,0.00,VWS V14.01,2013-01-22 14:28:00,
2013-01-22 07:29:00,41.5,-5.7,30.32,WNW,300,18.0,33.0,13,0.00,,SKC,0.00,VWS V14.01,2013-01-22 14:29:00,
2013-01-22 07:30:00,41.4,-5.8,30.32,WNW,282,14.0,29.0,13,0.00,,SKC,0.00,VWS V14.01,2013-01-22 14:30:00,
2013-01-22 07:31:00,41.4,-5.8,30.33,West,276,18.0,24.0,13,0.00,,SKC,0.00,VWS V14.01,2013-01-22 14:31:00,
2013-01-22 07:32:00,41.4,-5.8,30.33,North,360,35.0,43.0,13,0.00,,SKC,0.00,VWS V14.01,2013-01-22 14:32:00,
2013-01-22 07:33:00,41.6,-5.6,30.32,North,360,22.0,35.0,13,0.00,,SKC,0.00,VWS V14.01,2013-01-22 14:33:00,
2013-01-22 07:34:00,41.6,-5.6,30.33,WSW,254,13.0,31.0,13,0.00,,SKC,0.00,VWS V14.01,2013-01-22 14:34:00,
2013-01-22 07:35:00,41.7,-5.5,30.32,West,259,20.0,31.0,13,0.00,,SKC,0.00,VWS V14.01,2013-01-22 14:35:00,
2013-01-22 07:36:00,41.7,-5.5,30.32,West,261,36.0,36.0,13,0.00,,SKC,0.00,VWS V14.01,2013-01-22 14:36:00,
2013-01-22 07:37:00,41.7,-5.5,30.31,North,360,27.0,36.0,13,0.00,,SKC,0.00,VWS V14.01,2013-01-22 14:37:00,
2013-01-22 07:38:00,41.7,-5.5,30.33,West,279,33.0,33.0,13,0.00,,SKC,0.00,VWS V14.01,2013-01-22 14:38:00,
2013-01-22 07:39:00,41.8,-5.4,30.33,WNW,295,26.0,33.0,13,0.00,,SKC,0.00,VWS V14.01,2013-01-22 14:39:00,
2013-01-22 07:40:00,41.8,-5.4,30.31,North,360,24.0,38.0,13,0.00,,SKC,0.00,VWS V14.01,2013-01-22 14:40:00,
2013-01-22 07:41:00,41.9,-5.3,30.33,North,360,19.0,28.0,13,0.00,,SKC,0.00,VWS V14.01,2013-01-22 14:41:00,
2013-01-22 07:42:00,41.9,-5.3,30.33,West,267,17.0,31.0,13,0.00,,SKC,0.00,VWS V14.01,2013-01-22 14:42:00,
2013-01-22 07:43:00,42.0,-5.3,30.33,West,261,33.0,34.0,13,0.00,,SKC,0.00,VWS V14.01,2013-01-22 14:43:00,
2013-01-22 07:44:00,41.9,-5.3,30.32,SW,217,22.0,33.0,13,0.00,,SKC,0.00,VWS V14.01,2013-01-22 14:44:00,
2013-01-22 07:45:00,41.9,-5.3,30.33,West,266,18.0,31.0,13,0.00,,SKC,0.00,VWS V14.01,2013-01-22 14:45:00,
2013-01-22 07:46:00,42.0,-5.3,30.33,West,273,11.0,29.0,13,0.00,,SKC,0.00,VWS V14.01,2013-01-22 14:46:00,
2013-01-22 07:47:00,42.0,-5.3,30.33,WNW,290,21.0,33.0,13,0.00,,SKC,0.00,VWS V14.01,2013-01-22 14:47:00,
2013-01-22 07:48:00,42.1,-5.2,30.32,West,261,28.0,30.0,13,0.00,,SKC,0.00,VWS V14.01,2013-01-22 14:48:00,
2013-01-22 07:49:00,42.1,-5.2,30.33,West,263,23.0,40.0,13,0.00,,SKC,0.00,VWS V14.01,2013-01-22 14:49:00,
2013-01-22 07:50:00,42.2,-5.1,30.33,WSW,257,17.0,27.0,13,0.00,,SKC,0.00,VWS V14.01,2013-01-22 14:50:00,
2013-01-22 07:51:00,42.2,-5.1,30.33,North,360,17.0,23.0,13,0.00,,SKC,0.00,VWS V14.01,2013-01-22 14:51:00,
2013-01-22 07:52:00,42.2,-5.1,30.33,West,277,19.0,22.0,13,0.00,,SKC,0.00,VWS V14.01,2013-01-22 14:52:00,
2013-01-22 07:53:00,42.1,-5.2,30.33,WNW,286,35.0,36.0,13,0.00,,SKC,0.00,VWS V14.01,2013-01-22 14:53:00,
2013-01-22 07:54:00,42.1,-5.2,30.33,North,360,25.0,35.0,13,0.00,,SKC,0.00,VWS V14.01,2013-01-22 14:54:00,
2013-01-22 07:55:00,42.1,-5.2,30.32,West,281,14.0,29.0,13,0.00,,SKC,0.00,VWS V14.01,2013-01-22 14:55:00,
2013-01-22 07:56:00,42.2,-5.1,30.32,West,264,15.0,33.0,13,0.00,,SKC,0.00,VWS V14.01,2013-01-22 14:56:00,
2013-01-22 07:57:00,42.2,-5.1,30.33,West,274,21.0,23.0,13,0.00,,SKC,0.00,VWS V14.01,2013-01-22 14:57:00,
2013-01-22 07:58:00,42.2,-5.1,30.33,West,269,30.0,34.0,13,0.00,,SKC,0.00,VWS V14.01,2013-01-22 14:58:00,
2013-01-22 07:59:00,42.3,-5.0,30.31,West,277,31.0,40.0,13,0.00,,SKC,0.00,VWS V14.01,2013-01-22 14:59:00,
2013-01-22 08:00:00,42.4,-4.9,30.31,West,273,39.0,40.0,13,0.00,,SKC,0.00,VWS V14.01,2013-01-22 15:00:00,
2013-01-22 08:01:00,42.5,-4.9,30.32,WNW,288,24.0,39.0,13,0.00,,SKC,0.00,VWS V14.01,2013-01-22 15:01:00,
2013-01-22 08:02:00,42.6,-4.8,30.32,WNW,290,20.0,30.0,13,0.00,,SKC,0.00,VWS V14.01,2013-01-22 15:02:00,
2013-01-22 08:03:00,42.6,-4.8,30.32,West,271,23.0,33.0,13,0.00,,SKC,0.00,VWS V14.01,2013-01-22 15:03:00,
2013-01-22 08:04:00,42.7,-4.7,30.32,West,275,27.0,38.0,13,0.00,,SKC,0.00,VWS V14.01,2013-01-22 15:04:00,
2013-01-22 08:05:00,42.7,-4.7,30.32,West,265,30.0,37.0,13,0.00,,SKC,0.00,VWS V14.01,2013-01-22 15:05:00,
2013-01-22 08:06:00,42.7,-4.7,30.32,North,360,21.0,31.0,13,0.00,,SKC,0.00,VWS V14.01,2013-01-22 15:06:00,
2013-01-22 08:07:00,42.8,-4.6,30.33,WSW,257,23.0,30.0,13,0.00,,SKC,0.00,VWS V14.01,2013-01-22 15:07:00,
2013-01-22 08:08:00,42.8,-4.6,30.33,WNW,298,36.0,36.0,13,0.00,,SKC,0.00,VWS V14.01,2013-01-22 15:08:00,
2013-01-22 08:09:00,42.9,-4.6,30.33,WNW,285,27.0,36.0,13,0.00,,SKC,0.00,VWS V14.01,2013-01-22 15:09:00,
2013-01-22 08:10:00,43.0,-4.5,30.33,West,279,20.0,31.0,13,0.00,,SKC,0.00,VWS V14.01,2013-01-22 15:10:00,
2013-01-22 08:11:00,43.0,-4.5,30.33,North,360,31.0,38.0,13,0.00,,SKC,0.00,VWS V14.01,2013-01-22 15:11:00,
2013-01-22 08:12:00,43.0,-4.5,30.33,West,259,37.0,37.0,13,0.00,,SKC,0.00,VWS V14.01,2013-01-22 15:12:00,
2013-01-22 08:13:00,43.0,-4.5,30.33,WSW,257,14.0,37.0,13,0.00,,SKC,0.00,VWS V14.01,2013-01-22 15:13:00,
2013-01-22 08:14:00,43.0,-4.5,30.33,WNW,288,21.0,29.0,13,0.00,,SKC,0.00,VWS V14.01,2013-01-22 15:14:00,
2013-01-22 08:15:00,43.1,-4.4,30.33,WNW,293,30.0,33.0,13,0.00,,SKC,0.00,VWS V14.01,2013-01-22 15:15:00,
2013-01-22 08:16:00,43.1,-4.4,30.33,North,360,29.0,37.0,13,0.00,,SKC,0.00,VWS V14.01,2013-01-22 15:16:00,
2013-01-22 08:17:00,43.1,-4.4,30.33,WNW,282,20.0,32.0,13,0.00,,SKC,0.00,VWS V14.01,2013-01-22 15:17:00,
2013-01-22 08:18:00,43.2,-4.3,30.33,WSW,258,29.0,34.0,13,0.00,,SKC,0.00,VWS V14.01,2013-01-22 15:18:00,
2013-01-22 08:19:00,43.3,-4.2,30.33,WSW,248,13.0,33.0,13,0.00,,SKC,0.00,VWS V14.01,2013-01-22 15:19:00,
2013-01-22 08:20:00,43.5,-4.1,30.33,WSW,248,31.0,31.0,13,0.00,,SKC,0.00,VWS V14.01,2013-01-22 15:20:00,
2013-01-22 08:21:00,43.6,-4.0,30.33,North,360,25.0,31.0,13,0.00,,SKC,0.00,VWS V14.01,2013-01-22 15:21:00,
2013-01-22 08:22:00,43.6,-4.0,30.33,WSW,256,32.0,38.0,13,0.00,,SKC,0.00,VWS V14.01,2013-01-22 15:22:00,
2013-01-22 08:23:00,43.7,-3.9,30.33,North,360,24.0,33.0,13,0.00,,SKC,0.00,VWS V14.01,2013-01-22 15:23:00,
2013-01-22 08:24:00,43.8,-3.8,30.33,WSW,240,14.0,24.0,13,0.00,,SKC,0.00,VWS V14.01,2013-01-22 15:24:00,
2013-01-22 08:25:00,43.8,-3.8,30.33,North,360,27.0,31.0,13,0.00,,SKC,0.00,VWS V14.01,2013-01-22 15:25:00,
2013-01-22 08:26:00,43.9,-3.8,30.33,WSW,244,23.0,30.0,13,0.00,,SKC,0.00,VWS V14.01,2013-01-22 15:26:00,
2013-01-22 08:27:00,43.9,-3.8,30.33,West,259,19.0,32.0,13,0.00,,SKC,0.00,VWS V14.01,2013-01-22 15:27:00,
2013-01-22 08:28:00,43.9,-3.8,30.32,West,270,36.0,36.0,13,0.00,,SKC,0.00,VWS V14.01,2013-01-22 15:28:00,
2013-01-22 08:29:00,43.9,-3.8,30.33,West,275,35.0,40.0,13,0.00,,SKC,0.00,VWS V14.01,2013-01-22 15:29:00,
2013-01-22 08:30:00,43.9,-3.8,30.33,West,275,35.0,40.0,13,0.00,,SKC,0.00,VWS V14.01,2013-01-22 15:30:00,
2013-01-22 08:31:00,43.8,-3.8,30.33,WSW,244,18.0,26.0,13,0.00,,SKC,0.00,VWS V14.01,2013-01-22 15:31:00,
2013-01-22 08:32:00,43.9,-3.8,30.33,WSW,255,37.0,37.0,13,0.00,,SKC,0.00,VWS V14.01,2013-01-22 15:32:00,
2013-01-22 08:33:00,43.9,-5.4,30.31,WSW,253,28.0,37.0,12,0.00,,SKC,0.00,VWS V14.01,2013-01-22 15:33:00,
2013-01-22 08:34:00,44.1,-5.3,30.32,WSW,238,37.0,40.0,12,0.00,,SKC,0.00,VWS V14.01,2013-01-22 15:34:00,
2013-01-22 08:35:00,44.3,-5.1,30.31,SW,227,25.0,37.0,12,0.00,,SKC,0.00,VWS V14.01,2013-01-22 15:35:00,
2013-01-22 08:36:00,44.4,-5.0,30.32,WSW,245,40.0,47.0,12,0.00,,SKC,0.00,VWS V14.01,2013-01-22 15:36:00,
2013-01-22 08:37:00,44.4,-5.0,30.30,WSW,254,43.0,46.0,12,0.00,,SKC,0.00,VWS V14.01,2013-01-22 15:37:00,
2013-01-22 08:38:00,44.4,-5.0,30.30,West,259,41.0,43.0,12,0.00,,SKC,0.00,VWS V14.01,2013-01-22 15:38:00,
2013-01-22 08:39:00,44.4,-5.0,30.30,WSW,257,33.0,43.0,12,0.00,,SKC,0.00,VWS V14.01,2013-01-22 15:39:00,
2013-01-22 08:40:00,44.4,-5.0,30.30,WSW,240,31.0,40.0,12,0.00,,SKC,0.00,VWS V14.01,2013-01-22 15:40:00,
2013-01-22 08:41:00,44.5,-4.9,30.31,SW,231,38.0,40.0,12,0.00,,SKC,0.00,VWS V14.01,2013-01-22 15:41:00,
2013-01-22 08:42:00,44.5,-4.9,30.30,WSW,244,26.0,38.0,12,0.00,,SKC,0.00,VWS V14.01,2013-01-22 15:42:00,
2013-01-22 08:43:00,44.5,-4.9,30.31,WSW,246,36.0,46.0,12,0.00,,SKC,0.00,VWS V14.01,2013-01-22 15:43:00,
2013-01-22 08:44:00,44.5,-4.9,30.30,West,259,40.0,48.0,12,0.00,,SKC,0.00,VWS V14.01,2013-01-22 15:44:00,
2013-01-22 08:45:00,44.5,-3.3,30.31,West,259,43.0,46.0,13,0.00,,SKC,0.00,VWS V14.01,2013-01-22 15:45:00,
2013-01-22 08:46:00,44.4,-3.4,30.30,WSW,245,40.0,43.0,13,0.00,,SKC,0.00,VWS V14.01,2013-01-22 15:46:00,
2013-01-22 08:47:00,44.4,-3.4,30.30,WSW,250,28.0,40.0,13,0.00,,SKC,0.00,VWS V14.01,2013-01-22 15:47:00,
2013-01-22 08:48:00,44.4,-3.4,30.32,WSW,254,22.0,37.0,13,0.00,,SKC,0.00,VWS V14.01,2013-01-22 15:48:00,
2013-01-22 08:49:00,44.3,-3.4,30.31,West,276,34.0,34.0,13,0.00,,SKC,0.00,VWS V14.01,2013-01-22 15:49:00,
2013-01-22 08:50:00,44.3,-3.4,30.32,West,268,19.0,34.0,13,0.00,,SKC,0.00,VWS V14.01,2013-01-22 15:50:00,
2013-01-22 08:51:00,44.3,-3.4,30.31,West,277,30.0,33.0,13,0.00,,SKC,0.00,VWS V14.01,2013-01-22 15:51:00,
2013-01-22 08:52:00,44.4,-3.4,30.31,North,360,27.0,31.0,13,0.00,,SKC,0.00,VWS V14.01,2013-01-22 15:52:00,
2013-01-22 08:53:00,44.4,-3.4,30.31,WSW,257,20.0,29.0,13,0.00,,SKC,0.00,VWS V14.01,2013-01-22 15:53:00,
2013-01-22 08:54:00,44.4,-3.4,30.31,West,268,37.0,41.0,13,0.00,,SKC,0.00,VWS V14.01,2013-01-22 15:54:00,
2013-01-22 08:56:00,44.5,-3.3,30.31,WNW,289,24.0,29.0,13,0.00,,SKC,0.00,VWS V14.01,2013-01-22 15:56:00,
2013-01-22 08:57:00,44.6,-3.2,30.32,WSW,250,18.0,24.0,13,0.00,,SKC,0.00,VWS V14.01,2013-01-22 15:57:00,
2013-01-22 08:58:00,44.6,-3.2,30.31,West,276,21.0,24.0,13,0.00,,SKC,0.00,VWS V14.01,2013-01-22 15:58:00,
2013-01-22 08:59:00,44.7,-3.1,30.31,West,261,25.0,37.0,13,0.00,,SKC,0.00,VWS V14.01,2013-01-22 15:59:00,
2013-01-22 09:00:00,44.7,-3.1,30.31,West,259,25.0,32.0,13,0.00,,SKC,0.00,VWS V14.01,2013-01-22 16:00:00,
2013-01-22 09:01:00,44.7,-3.1,30.31,WSW,242,20.0,34.0,13,0.00,,SKC,0.00,VWS V14.01,2013-01-22 16:01:00,
2013-01-22 09:02:00,44.8,-3.0,30.31,West,280,16.0,24.0,13,0.00,,SKC,0.00,VWS V14.01,2013-01-22 16:02:00,
2013-01-22 09:03:00,44.9,-3.0,30.31,WNW,288,27.0,33.0,13,0.00,,SKC,0.00,VWS V14.01,2013-01-22 16:03:00,
2013-01-22 09:04:00,45.0,-2.9,30.32,North,360,21.0,27.0,13,0.00,,SKC,0.00,VWS V14.01,2013-01-22 16:04:00,
2013-01-22 09:05:00,45.0,-2.9,30.32,West,272,7.0,30.0,13,0.00,,SKC,0.00,VWS V14.01,2013-01-22 16:05:00,
2013-01-22 09:06:00,45.1,-2.8,30.31,West,278,11.0,32.0,13,0.00,,SKC,0.00,VWS V14.01,2013-01-22 16:06:00,
2013-01-22 09:07:00,45.2,-2.7,30.30,West,271,10.0,21.0,13,0.00,,SKC,0.00,VWS V14.01,2013-01-22 16:07:00,
2013-01-22 09:08:00,45.3,-2.6,30.32,West,267,30.0,36.0,13,0.00,,SKC,0.00,VWS V14.01,2013-01-22 16:08:00,
2013-01-22 09:09:00,45.3,-2.6,30.32,WNW,292,23.0,34.0,13,0.00,,SKC,0.00,VWS V14.01,2013-01-22 16:09:00,
2013-01-22 09:10:00,45.4,-2.6,30.32,WNW,282,21.0,27.0,13,0.00,,SKC,0.00,VWS V14.01,2013-01-22 16:10:00,
2013-01-22 09:11:00,45.5,-2.5,30.32,West,278,19.0,23.0,13,0.00,,SKC,0.00,VWS V14.01,2013-01-22 16:11:00,
2013-01-22 09:12:00,45.5,-2.5,30.32,North,360,33.0,41.0,13,0.00,,SKC,0.00,VWS V14.01,2013-01-22 16:12:00,
2013-01-22 09:13:00,45.5,-2.5,30.32,West,279,22.0,33.0,13,0.00,,SKC,0.00,VWS V14.01,2013-01-22 16:13:00,
2013-01-22 09:14:00,45.6,-2.4,30.33,WNW,301,17.0,26.0,13,0.00,,SKC,0.00,VWS V14.01,2013-01-22 16:14:00,
2013-01-22 09:15:00,45.7,-2.3,30.33,WNW,284,15.0,24.0,13,0.00,,SKC,0.00,VWS V14.01,2013-01-22 16:15:00,
2013-01-22 09:16:00,45.9,-2.2,30.32,North,360,22.0,33.0,13,0.00,,SKC,0.00,VWS V14.01,2013-01-22 16:16:00,
2013-01-22 09:17:00,45.9,-2.2,30.33,WSW,247,19.0,29.0,13,0.00,,SKC,0.00,VWS V14.01,2013-01-22 16:17:00,
2013-01-22 09:18:00,46.0,-2.1,30.33,West,273,16.0,19.0,13,0.00,,SKC,0.00,VWS V14.01,2013-01-22 16:18:00,
2013-01-22 09:19:00,46.1,-2.0,30.33,North,360,19.0,28.0,13,0.00,,SKC,0.00,VWS V14.01,2013-01-22 16:19:00,
2013-01-22 09:20:00,46.1,-3.7,30.32,WNW,294,23.0,31.0,12,0.00,,SKC,0.00,VWS V14.01,2013-01-22 16:20:00,
2013-01-22 09:21:00,46.0,-3.8,30.32,West,271,18.0,34.0,12,0.00,,SKC,0.00,VWS V14.01,2013-01-22 16:21:00,
2013-01-22 09:22:00,45.9,-2.2,30.32,North,360,14.0,28.0,13,0.00,,SKC,0.00,VWS V14.01,2013-01-22 16:22:00,
2013-01-22 09:23:00,45.9,-2.2,30.31,WSW,248,30.0,33.0,13,0.00,,SKC,0.00,VWS V14.01,2013-01-22 16:23:00,
2013-01-22 09:24:00,45.8,-2.2,30.32,West,271,23.0,31.0,13,0.00,,SKC,0.00,VWS V14.01,2013-01-22 16:24:00,
2013-01-22 09:25:00,45.8,-2.2,30.32,West,279,24.0,28.0,13,0.00,,SKC,0.00,VWS V14.01,2013-01-22 16:25:00,
2013-01-22 09:26:00,45.7,-2.3,30.31,West,274,30.0,36.0,13,0.00,,SKC,0.00,VWS V14.01,2013-01-22 16:26:00,
2013-01-22 09:27:00,45.6,-2.4,30.31,West,259,19.0,44.0,13,0.00,,SKC,0.00,VWS V14.01,2013-01-22 16:27:00,
2013-01-22 09:28:00,45.6,-2.4,30.31,North,360,26.0,31.0,13,0.00,,SKC,0.00,VWS V14.01,2013-01-22 16:28:00,
2013-01-22 09:29:00,45.6,-2.4,30.30,WSW,255,20.0,36.0,13,0.00,,SKC,0.00,VWS V14.01,2013-01-22 16:29:00,
2013-01-22 09:30:00,45.6,-2.4,30.30,WNW,286,31.0,33.0,13,0.00,,SKC,0.00,VWS V14.01,2013-01-22 16:30:00,
2013-01-22 09:31:00,45.6,-2.4,30.31,WNW,287,21.0,31.0,13,0.00,,SKC,0.00,VWS V14.01,2013-01-22 16:31:00,
2013-01-22 09:32:00,45.7,-2.3,30.32,West,280,18.0,35.0,13,0.00,,SKC,0.00,VWS V14.01,2013-01-22 16:32:00,
2013-01-22 09:33:00,45.7,-2.3,30.32,West,265,15.0,29.0,13,0.00,,SKC,0.00,VWS V14.01,2013-01-22 16:33:00,
2013-01-22 09:34:00,45.8,-2.2,30.32,WNW,299,31.0,32.0,13,0.00,,SKC,0.00,VWS V14.01,2013-01-22 16:34:00,
2013-01-22 09:35:00,45.9,-2.2,30.32,WNW,295,29.0,33.0,13,0.00,,SKC,0.00,VWS V14.01,2013-01-22 16:35:00,
2013-01-22 09:36:00,45.9,-2.2,30.32,WNW,288,32.0,40.0,13,0.00,,SKC,0.00,VWS V14.01,2013-01-22 16:36:00,
2013-01-22 09:37:00,45.9,-2.2,30.32,West,281,28.0,34.0,13,0.00,,SKC,0.00,VWS V14.01,2013-01-22 16:37:00,
2013-01-22 09:38:00,46.0,-2.1,30.32,WNW,300,19.0,32.0,13,0.00,,SKC,0.00,VWS V14.01,2013-01-22 16:38:00,
2013-01-22 09:39:00,46.1,-2.0,30.33,WNW,292,30.0,31.0,13,0.00,,SKC,0.00,VWS V14.01,2013-01-22 16:39:00,
2013-01-22 09:40:00,46.2,-1.9,30.33,North,360,24.0,34.0,13,0.00,,SKC,0.00,VWS V14.01,2013-01-22 16:40:00,
2013-01-22 09:41:00,46.2,-1.9,30.32,West,274,38.0,44.0,13,0.00,,SKC,0.00,VWS V14.01,2013-01-22 16:41:00,
2013-01-22 09:42:00,46.3,-3.5,30.34,West,281,32.0,38.0,12,0.00,,SKC,0.00,VWS V14.01,2013-01-22 16:42:00,
2013-01-22 09:43:00,46.3,-1.8,30.34,West,266,15.0,32.0,13,0.00,,SKC,0.00,VWS V14.01,2013-01-22 16:43:00,
2013-01-22 09:44:00,46.3,-1.8,30.33,North,360,16.0,25.0,13,0.00,,SKC,0.00,VWS V14.01,2013-01-22 16:44:00,
2013-01-22 09:45:00,46.4,-3.4,30.33,North,360,36.0,36.0,12,0.00,,SKC,0.00,VWS V14.01,2013-01-22 16:45:00,
2013-01-22 09:46:00,46.4,-3.4,30.33,West,268,14.0,36.0,12,0.00,,SKC,0.00,VWS V14.01,2013-01-22 16:46:00,
2013-01-22 09:47:00,46.5,-1.7,30.33,North,360,20.0,24.0,13,0.00,,SKC,0.00,VWS V14.01,2013-01-22 16:47:00,
2013-01-22 09:48:00,46.6,-3.3,30.33,West,273,21.0,27.0,12,0.00,,SKC,0.00,VWS V14.01,2013-01-22 16:48:00,
2013-01-22 09:49:00,46.7,-3.2,30.33,NW,317,17.0,24.0,12,0.00,,SKC,0.00,VWS V14.01,2013-01-22 16:49:00,
2013-01-22 09:50:00,46.9,-3.0,30.33,WNW,284,14.0,23.0,12,0.00,,SKC,0.00,VWS V14.01,2013-01-22 16:50:00,
2013-01-22 09:51:00,47.0,-3.0,30.33,WSW,254,26.0,33.0,12,0.00,,SKC,0.00,VWS V14.01,2013-01-22 16:51:00,
2013-01-22 09:52:00,47.1,-2.9,30.33,WNW,284,16.0,30.0,12,0.00,,SKC,0.00,VWS V14.01,2013-01-22 16:52:00,
2013-01-22 09:53:00,47.1,-2.9,30.33,North,360,29.0,29.0,12,0.00,,SKC,0.00,VWS V14.01,2013-01-22 16:53:00,
2013-01-22 09:54:00,47.2,-2.8,30.33,North,360,17.0,30.0,12,0.00,,SKC,0.00,VWS V14.01,2013-01-22 16:54:00,
2013-01-22 09:55:00,47.1,-2.9,30.33,NNW,346,11.0,20.0,12,0.00,,SKC,0.00,VWS V14.01,2013-01-22 16:55:00,
2013-01-22 09:56:00,47.1,-2.9,30.33,West,259,17.0,27.0,12,0.00,,SKC,0.00,VWS V14.01,2013-01-22 16:56:00,
2013-01-22 09:57:00,47.2,-2.8,30.33,WSW,237,18.0,21.0,12,0.00,,SKC,0.00,VWS V14.01,2013-01-22 16:57:00,
2013-01-22 09:58:00,47.2,-2.8,30.33,WSW,258,20.0,22.0,12,0.00,,SKC,0.00,VWS V14.01,2013-01-22 16:58:00,
2013-01-22 09:59:00,47.2,-4.6,30.32,NW,325,19.0,25.0,11,0.00,,SKC,0.00,VWS V14.01,2013-01-22 16:59:00,
2013-01-22 10:00:00,47.2,-2.8,30.32,SW,220,13.0,20.0,12,0.00,,SKC,0.00,VWS V14.01,2013-01-22 17:00:00,
2013-01-22 10:01:00,47.2,-2.8,30.32,WSW,258,22.0,23.0,12,0.00,,SKC,0.00,VWS V14.01,2013-01-22 17:01:00,
2013-01-22 10:02:00,47.3,-2.7,30.33,SW,217,21.0,34.0,12,0.00,,SKC,0.00,VWS V14.01,2013-01-22 17:02:00,
2013-01-22 10:03:00,47.2,-2.8,30.32,WNW,302,27.0,34.0,12,0.00,,SKC,0.00,VWS V14.01,2013-01-22 17:03:00,
2013-01-22 10:04:00,47.3,-2.7,30.33,WSW,248,20.0,33.0,12,0.00,,SKC,0.00,VWS V14.01,2013-01-22 17:04:00,
2013-01-22 10:05:00,47.2,-2.8,30.31,WNW,288,15.0,30.0,12,0.00,,SKC,0.00,VWS V14.01,2013-01-22 17:05:00,
2013-01-22 10:06:00,47.3,-2.7,30.31,NW,306,21.0,26.0,12,0.00,,SKC,0.00,VWS V14.01,2013-01-22 17:06:00,
2013-01-22 10:07:00,47.5,-2.6,30.32,WSW,250,30.0,38.0,12,0.00,,SKC,0.00,VWS V14.01,2013-01-22 17:07:00,
2013-01-22 10:08:00,47.6,-2.5,30.32,North,360,17.0,32.0,12,0.00,,SKC,0.00,VWS V14.01,2013-01-22 17:08:00,
2013-01-22 10:09:00,47.5,-2.6,30.30,West,272,31.0,35.0,12,0.00,,SKC,0.00,VWS V14.01,2013-01-22 17:09:00,
2013-01-22 10:10:00,47.5,-2.6,30.31,West,269,25.0,31.0,12,0.00,,SKC,0.00,VWS V14.01,2013-01-22 17:10:00,
2013-01-22 10:11:00,47.5,-2.6,30.32,West,271,10.0,33.0,12,0.00,,SKC,0.00,VWS V14.01,2013-01-22 17:11:00,
2013-01-22 10:12:00,47.6,-2.5,30.31,West,281,15.0,15.0,12,0.00,,SKC,0.00,VWS V14.01,2013-01-22 17:12:00,
2013-01-22 10:13:00,47.7,-2.4,30.32,WSW,250,28.0,29.0,12,0.00,,SKC,0.00,VWS V14.01,2013-01-22 17:13:00,
2013-01-22 10:14:00,47.9,-2.3,30.32,WNW,284,24.0,33.0,12,0.00,,SKC,0.00,VWS V14.01,2013-01-22 17:14:00,
2013-01-22 10:15:00,47.9,-2.3,30.32,West,263,14.0,24.0,12,0.00,,SKC,0.00,VWS V14.01,2013-01-22 17:15:00,
2013-01-22 10:16:00,47.9,-2.3,30.32,North,360,22.0,25.0,12,0.00,,SKC,0.00,VWS V14.01,2013-01-22 17:16:00,
2013-01-22 10:17:00,48.1,-3.9,30.32,North,360,41.0,41.0,11,0.00,,SKC,0.00,VWS V14.01,2013-01-22 17:17:00,
2013-01-22 10:18:00,48.1,-3.9,30.33,West,267,25.0,41.0,11,0.00,,SKC,0.00,VWS V14.01,2013-01-22 17:18:00,
2013-01-22 10:19:00,48.1,-3.9,30.33,West,267,25.0,41.0,11,0.00,,SKC,0.00,VWS V14.01,2013-01-22 17:19:00,
2013-01-22 10:20:00,48.3,-3.8,30.32,North,360,17.0,26.0,11,0.00,,SKC,0.00,VWS V14.01,2013-01-22 17:20:00,
2013-01-22 10:21:00,48.4,-3.7,30.32,North,360,12.0,21.0,11,0.00,,SKC,0.00,VWS V14.01,2013-01-22 17:21:00,
2013-01-22 10:22:00,48.6,-1.7,30.31,SW,231,18.0,33.0,12,0.00,,SKC,0.00,VWS V14.01,2013-01-22 17:22:00,
2013-01-22 10:23:00,48.7,-1.6,30.31,WNW,300,17.0,21.0,12,0.00,,SKC,0.00,VWS V14.01,2013-01-22 17:23:00,
2013-01-22 10:24:00,48.8,-3.4,30.32,WNW,289,25.0,25.0,11,0.00,,SKC,0.00,VWS V14.01,2013-01-22 17:24:00,
2013-01-22 10:25:00,48.9,-1.5,30.31,West,279,12.0,25.0,12,0.00,,SKC,0.00,VWS V14.01,2013-01-22 17:25:00,
2013-01-22 10:26:00,49.1,-1.3,30.31,West,280,16.0,32.0,12,0.00,,SKC,0.00,VWS V14.01,2013-01-22 17:26:00,
2013-01-22 10:27:00,49.1,-3.1,30.32,North,360,22.0,26.0,11,0.00,,SKC,0.00,VWS V14.01,2013-01-22 17:27:00,
2013-01-22 10:28:00,49.1,-3.1,30.31,NW,309,28.0,28.0,11,0.00,,SKC,0.00,VWS V14.01,2013-01-22 17:28:00,
2013-01-22 10:29:00,49.2,-3.1,30.31,NW,317,18.0,28.0,11,0.00,,SKC,0.00,VWS V14.01,2013-01-22 17:29:00,
2013-01-22 10:30:00,49.2,-1.2,30.31,WSW,254,18.0,26.0,12,0.00,,SKC,0.00,VWS V14.01,2013-01-22 17:30:00,
2013-01-22 10:31:00,49.2,-3.1,30.31,WSW,246,17.0,21.0,11,0.00,,SKC,0.00,VWS V14.01,2013-01-22 17:31:00,
2013-01-22 10:32:00,49.4,-2.9,30.31,West,277,16.0,21.0,11,0.00,,SKC,0.00,VWS V14.01,2013-01-22 17:32:00,
2013-01-22 10:33:00,49.5,-2.8,30.31,West,259,16.0,21.0,11,0.00,,SKC,0.00,VWS V14.01,2013-01-22 17:33:00,
2013-01-22 10:34:00,49.6,-2.8,30.31,WSW,252,17.0,24.0,11,0.00,,SKC,0.00,VWS V14.01,2013-01-22 17:34:00,
2013-01-22 10:35:00,49.7,-2.7,30.31,WSW,251,22.0,22.0,11,0.00,,SKC,0.00,VWS V14.01,2013-01-22 17:35:00,
2013-01-22 10:36:00,49.7,-2.7,30.30,West,275,23.0,23.0,11,0.00,,SKC,0.00,VWS V14.01,2013-01-22 17:36:00,
2013-01-22 10:37:00,49.8,-2.6,30.30,North,360,16.0,25.0,11,0.00,,SKC,0.00,VWS V14.01,2013-01-22 17:37:00,
2013-01-22 10:38:00,49.9,-2.5,30.30,North,360,29.0,33.0,11,0.00,,SKC,0.00,VWS V14.01,2013-01-22 17:38:00,
2013-01-22 10:39:00,50.0,-2.4,30.29,West,277,25.0,37.0,11,0.00,,SKC,0.00,VWS V14.01,2013-01-22 17:39:00,
2013-01-22 10:40:00,50.0,-2.4,30.29,WNW,287,21.0,25.0,11,0.00,,SKC,0.00,VWS V14.01,2013-01-22 17:40:00,
2013-01-22 10:41:00,50.1,-2.4,30.30,SW,219,28.0,28.0,11,0.00,,SKC,0.00,VWS V14.01,2013-01-22 17:41:00,
2013-01-22 10:42:00,50.1,-2.4,30.30,WSW,240,19.0,28.0,11,0.00,,SKC,0.00,VWS V14.01,2013-01-22 17:42:00,
2013-01-22 10:43:00,50.1,-2.4,30.29,WSW,252,37.0,37.0,11,0.00,,SKC,0.00,VWS V14.01,2013-01-22 17:43:00,
2013-01-22 10:44:00,49.9,-2.5,30.30,West,273,27.0,39.0,11,0.00,,SKC,0.00,VWS V14.01,2013-01-22 17:44:00,
2013-01-22 10:45:00,49.7,-2.7,30.29,WSW,250,19.0,28.0,11,0.00,,SKC,0.00,VWS V14.01,2013-01-22 17:45:00,
2013-01-22 10:46:00,49.6,-2.8,30.29,West,268,18.0,25.0,11,0.00,,SKC,0.00,VWS V14.01,2013-01-22 17:46:00,
2013-01-22 10:47:00,49.6,-2.8,30.30,WSW,257,27.0,33.0,11,0.00,,SKC,0.00,VWS V14.01,2013-01-22 17:47:00,
2013-01-22 10:49:00,49.6,-2.8,30.29,SW,232,29.0,38.0,11,0.00,,SKC,0.00,VWS V14.01,2013-01-22 17:49:00,
2013-01-22 10:50:00,49.6,-2.8,30.29,West,274,36.0,37.0,11,0.00,,SKC,0.00,VWS V14.01,2013-01-22 17:50:00,
2013-01-22 10:51:00,49.6,-2.8,30.28,WSW,248,27.0,36.0,11,0.00,,SKC,0.00,VWS V14.01,2013-01-22 17:51:00,
2013-01-22 10:52:00,49.6,-2.8,30.29,WSW,252,31.0,31.0,11,0.00,,SKC,0.00,VWS V14.01,2013-01-22 17:52:00,
2013-01-22 10:53:00,49.8,-2.6,30.29,West,278,20.0,33.0,11,0.00,,SKC,0.00,VWS V14.01,2013-01-22 17:53:00,
2013-01-22 10:54:00,49.9,-2.5,30.29,West,277,23.0,29.0,11,0.00,,SKC,0.00,VWS V14.01,2013-01-22 17:54:00,
2013-01-22 10:55:00,50.1,-2.4,30.30,West,279,26.0,33.0,11,0.00,,SKC,0.00,VWS V14.01,2013-01-22 17:55:00,
2013-01-22 10:56:00,50.2,-4.3,30.29,WSW,250,20.0,26.0,10,0.00,,SKC,0.00,VWS V14.01,2013-01-22 17:56:00,
2013-01-22 10:57:00,50.3,-2.2,30.29,West,265,19.0,34.0,11,0.00,,SKC,0.00,VWS V14.01,2013-01-22 17:57:00,
2013-01-22 10:58:00,50.5,-4.0,30.29,WSW,250,20.0,26.0,10,0.00,,SKC,0.00,VWS V14.01,2013-01-22 17:58:00,
2013-01-22 10:59:00,50.7,-3.9,30.30,West,268,22.0,28.0,10,0.00,,SKC,0.00,VWS V14.01,2013-01-22 17:59:00,
2013-01-22 11:00:00,50.9,-3.7,30.30,WSW,254,23.0,27.0,10,0.00,,SKC,0.00,VWS V14.01,2013-01-22 18:00:00,
2013-01-22 11:01:00,51.1,-3.6,30.30,WSW,243,15.0,23.0,10,0.00,,SKC,0.00,VWS V14.01,2013-01-22 18:01:00,
2013-01-22 11:02:00,51.3,-3.4,30.30,WSW,254,17.0,22.0,10,0.00,,SKC,0.00,VWS V14.01,2013-01-22 18:02:00,
2013-01-22 11:03:00,51.5,-3.3,30.30,SW,215,8.0,17.0,10,0.00,,SKC,0.00,VWS V14.01,2013-01-22 18:03:00,
2013-01-22 11:04:00,51.5,-3.3,30.30,SW,220,13.0,13.0,10,0.00,,SKC,0.00,VWS V14.01,2013-01-22 18:04:00,
2013-01-22 11:05:00,51.7,-3.1,30.30,West,276,19.0,19.0,10,0.00,,SKC,0.00,VWS V14.01,2013-01-22 18:05:00,
2013-01-22 11:06:00,51.9,-3.0,30.30,WSW,244,23.0,25.0,10,0.00,,SKC,0.00,VWS V14.01,2013-01-22 18:06:00,
2013-01-22 11:07:00,52.1,-2.8,30.30,West,261,15.0,25.0,10,0.00,,SKC,0.00,VWS V14.01,2013-01-22 18:07:00,
2013-01-22 11:08:00,52.2,-2.7,30.31,WSW,256,15.0,17.0,10,0.00,,SKC,0.00,VWS V14.01,2013-01-22 18:08:00,
2013-01-22 11:09:00,52.2,-4.9,30.31,WNW,294,13.0,17.0,9,0.00,,SKC,0.00,VWS V14.01,2013-01-22 18:09:00,
2013-01-22 11:10:00,52.3,-2.7,30.31,North,360,13.0,15.0,10,0.00,,SKC,0.00,VWS V14.01,2013-01-22 18:10:00,
2013-01-22 11:11:00,52.4,-2.6,30.31,SW,234,6.0,16.0,10,0.00,,SKC,0.00,VWS V14.01,2013-01-22 18:11:00,
2013-01-22 11:12:00,52.5,-4.7,30.31,SW,217,7.0,12.0,9,0.00,,SKC,0.00,VWS V14.01,2013-01-22 18:12:00,
2013-01-22 11:13:00,52.5,-2.5,30.30,WNW,291,6.0,11.0,10,0.00,,SKC,0.00,VWS V14.01,2013-01-22 18:13:00,
2013-01-22 11:14:00,52.6,-2.4,30.31,WSW,255,6.0,9.0,10,0.00,,SKC,0.00,VWS V14.01,2013-01-22 18:14:00,
2013-01-22 11:15:00,52.7,-2.3,30.30,WSW,244,12.0,12.0,10,0.00,,SKC,0.00,VWS V14.01,2013-01-22 18:15:00,
2013-01-22 11:16:00,52.9,-4.4,30.31,North,360,16.0,19.0,9,0.00,,SKC,0.00,VWS V14.01,2013-01-22 18:16:00,
2013-01-22 11:17:00,53.1,-6.7,30.31,West,267,15.0,21.0,8,0.00,,SKC,0.00,VWS V14.01,2013-01-22 18:17:00,
2013-01-22 11:18:00,53.4,-4.0,30.32,WNW,294,14.0,21.0,9,0.00,,SKC,0.00,VWS V14.01,2013-01-22 18:18:00,
2013-01-22 11:19:00,53.8,-3.7,30.32,NNW,329,7.0,14.0,9,0.00,,SKC,0.00,VWS V14.01,2013-01-22 18:19:00,
2013-01-22 11:20:00,54.2,-3.4,30.32,NNE,12,8.0,8.0,9,0.00,,SKC,0.00,VWS V14.01,2013-01-22 18:20:00,
2013-01-22 11:21:00,54.5,-3.2,30.32,West,276,17.0,18.0,9,0.00,,SKC,0.00,VWS V14.01,2013-01-22 18:21:00,
2013-01-22 11:22:00,54.9,-2.9,30.32,WNW,293,13.0,18.0,9,0.00,,SKC,0.00,VWS V14.01,2013-01-22 18:22:00,
2013-01-22 11:23:00,55.2,-5.1,30.31,West,281,11.0,21.0,8,0.00,,SKC,0.00,VWS V14.01,2013-01-22 18:23:00,
2013-01-22 11:24:00,55.4,-4.9,30.32,WNW,293,13.0,20.0,8,0.00,,SKC,0.00,VWS V14.01,2013-01-22 18:24:00,
2013-01-22 11:25:00,55.5,-4.9,30.32,West,280,17.0,21.0,8,0.00,,SKC,0.00,VWS V14.01,2013-01-22 18:25:00,
2013-01-22 11:26:00,55.6,-4.8,30.32,West,279,22.0,27.0,8,0.00,,SKC,0.00,VWS V14.01,2013-01-22 18:26:00,
2013-01-22 11:27:00,55.7,-4.7,30.32,WNW,301,10.0,22.0,8,0.00,,SKC,0.00,VWS V14.01,2013-01-22 18:27:00,
2013-01-22 11:28:00,55.7,-4.7,30.32,WSW,257,13.0,18.0,8,0.00,,SKC,0.00,VWS V14.01,2013-01-22 18:28:00,
2013-01-22 11:29:00,55.7,-4.7,30.31,WNW,294,14.0,21.0,8,0.00,,SKC,0.00,VWS V14.01,2013-01-22 18:29:00,
2013-01-22 11:30:00,55.7,-4.7,30.32,NW,305,14.0,14.0,8,0.00,,SKC,0.00,VWS V14.01,2013-01-22 18:30:00,
2013-01-22 11:31:00,55.7,-4.7,30.32,WSW,238,18.0,25.0,8,0.00,,SKC,0.00,VWS V14.01,2013-01-22 18:31:00,
2013-01-22 11:32:00,55.6,-4.8,30.32,WSW,256,17.0,24.0,8,0.00,,SKC,0.00,VWS V14.01,2013-01-22 18:32:00,
2013-01-22 11:33:00,55.7,-4.7,30.32,North,360,16.0,21.0,8,0.00,,SKC,0.00,VWS V14.01,2013-01-22 18:33:00,
2013-01-22 11:34:00,55.6,-7.5,30.32,West,277,23.0,23.0,7,0.00,,SKC,0.00,VWS V14.01,2013-01-22 18:34:00,
2013-01-22 11:35:00,55.6,-7.5,30.31,West,275,29.0,35.0,7,0.00,,SKC,0.00,VWS V14.01,2013-01-22 18:35:00,
2013-01-22 11:36:00,55.6,-7.5,30.31,West,273,25.0,30.0,7,0.00,,SKC,0.00,VWS V14.01,2013-01-22 18:36:00,
2013-01-22 11:37:00,55.6,-7.5,30.32,WSW,243,25.0,30.0,7,0.00,,SKC,0.00,VWS V14.01,2013-01-22 18:37:00,
2013-01-22 11:38:00,55.6,-7.5,30.31,West,261,13.0,25.0,7,0.00,,SKC,0.00,VWS V14.01,2013-01-22 18:38:00,
2013-01-22 11:39:00,55.6,-7.5,30.32,WNW,284,13.0,18.0,7,0.00,,SKC,0.00,VWS V14.01,2013-01-22 18:39:00,
2013-01-22 11:40:00,55.7,-4.7,30.32,West,267,21.0,23.0,8,0.00,,SKC,0.00,VWS V14.01,2013-01-22 18:40:00,
2013-01-22 11:41:00,55.7,-7.5,30.32,WSW,237,15.0,21.0,7,0.00,,SKC,0.00,VWS V14.01,2013-01-22 18:41:00,
2013-01-22 11:42:00,55.7,-7.5,30.32,SW,230,12.0,19.0,7,0.00,,SKC,0.00,VWS V14.01,2013-01-22 18:42:00,
2013-01-22 11:43:00,55.6,-7.5,30.32,West,277,15.0,19.0,7,0.00,,SKC,0.00,VWS V14.01,2013-01-22 18:43:00,
2013-01-22 11:44:00,55.7,-7.5,30.32,North,360,23.0,25.0,7,0.00,,SKC,0.00,VWS V14.01,2013-01-22 18:44:00,
2013-01-22 11:45:00,55.8,-7.4,30.31,WNW,288,21.0,28.0,7,0.00,,SKC,0.00,VWS V14.01,2013-01-22 18:45:00,
2013-01-22 11:46:00,55.8,-4.6,30.32,SW,224,16.0,21.0,8,0.00,,SKC,0.00,VWS V14.01,2013-01-22 18:46:00,
2013-01-22 11:47:00,55.8,-7.4,30.32,SSW,209,9.0,16.0,7,0.00,,SKC,0.00,VWS V14.01,2013-01-22 18:47:00,
2013-01-22 11:48:00,55.7,-4.7,30.32,SSW,209,6.0,13.0,8,0.00,,SKC,0.00,VWS V14.01,2013-01-22 18:48:00,
2013-01-22 11:49:00,55.5,-2.4,30.32,SSW,196,10.0,10.0,9,0.00,,SKC,0.00,VWS V14.01,2013-01-22 18:49:00,
2013-01-22 11:50:00,55.4,-2.5,30.32,West,259,15.0,15.0,9,0.00,,SKC,0.00,VWS V14.01,2013-01-22 18:50:00,
2013-01-22 11:51:00,55.3,-5.0,30.32,WSW,245,16.0,18.0,8,0.00,,SKC,0.00,VWS V14.01,2013-01-22 18:51:00,
2013-01-22 11:52:00,55.2,-5.1,30.32,North,360,16.0,20.0,8,0.00,,SKC,0.00,VWS V14.01,2013-01-22 18:52:00,
2013-01-22 11:53:00,55.1,-5.2,30.32,SSW,199,10.0,16.0,8,0.00,,SKC,0.00,VWS V14.01,2013-01-22 18:53:00,
2013-01-22 11:54:00,55.1,-2.7,30.32,North,360,17.0,17.0,9,0.00,,SKC,0.00,VWS V14.01,2013-01-22 18:54:00,
2013-01-22 11:55:00,55.3,-2.6,30.32,SSW,205,13.0,23.0,9,0.00,,SKC,0.00,VWS V14.01,2013-01-22 18:55:00,
2013-01-22 11:56:00,55.3,-2.6,30.32,SW,216,6.0,14.0,9,0.00,,SKC,0.00,VWS V14.01,2013-01-22 18:56:00,
2013-01-22 11:57:00,55.4,-2.5,30.32,SW,223,9.0,19.0,9,0.00,,SKC,0.00,VWS V14.01,2013-01-22 18:57:00,
2013-01-22 11:58:00,55.4,-2.5,30.32,SW,229,6.0,15.0,9,0.00,,SKC,0.00,VWS V14.01,2013-01-22 18:58:00,
2013-01-22 11:59:00,55.5,-4.9,30.32,WSW,242,4.0,17.0,8,0.00,,SKC,0.00,VWS V14.01,2013-01-22 18:59:00,
2013-01-22 12:00:00,55.5,-4.9,30.32,WSW,242,4.0,17.0,8,0.00,,SKC,0.00,VWS V14.01,2013-01-22 19:00:00,
2013-01-22 12:01:00,55.7,0.0,30.32,SW,215,12.0,14.0,10,0.00,,SKC,0.00,VWS V14.01,2013-01-22 19:01:00,
2013-01-22 12:02:00,55.8,-2.2,30.32,South,175,9.0,13.0,9,0.00,,SKC,0.00,VWS V14.01,2013-01-22 19:02:00,
2013-01-22 12:03:00,55.8,-2.2,30.31,SSW,201,13.0,17.0,9,0.00,,SKC,0.00,VWS V14.01,2013-01-22 19:03:00,
2013-01-22 12:04:00,55.7,-2.2,30.31,West,267,13.0,16.0,9,0.00,,SKC,0.00,VWS V14.01,2013-01-22 19:04:00,
2013-01-22 12:05:00,55.5,-2.4,30.31,West,263,14.0,20.0,9,0.00,,SKC,0.00,VWS V14.01,2013-01-22 19:05:00,
2013-01-22 12:06:00,55.5,-2.4,30.31,West,269,9.0,14.0,9,0.00,,SKC,0.00,VWS V14.01,2013-01-22 19:06:00,
2013-01-22 12:07:00,55.4,-2.5,30.31,SSW,209,14.0,22.0,9,0.00,,SKC,0.00,VWS V14.01,2013-01-22 19:07:00,
2013-01-22 12:08:00,55.2,-2.6,30.30,WSW,245,17.0,19.0,9,0.00,,SKC,0.00,VWS V14.01,2013-01-22 19:08:00,
2013-01-22 12:09:00,55.0,-2.8,30.30,SSW,207,9.0,18.0,9,0.00,,SKC,0.00,VWS V14.01,2013-01-22 19:09:00,
2013-01-22 12:10:00,54.9,-2.9,30.30,South,178,13.0,22.0,9,0.00,,SKC,0.00,VWS V14.01,2013-01-22 19:10:00,
2013-01-22 12:11:00,54.8,-0.7,30.30,North,360,12.0,21.0,10,0.00,,SKC,0.00,VWS V14.01,2013-01-22 19:11:00,
2013-01-22 12:12:00,54.5,-3.2,30.30,WSW,248,19.0,22.0,9,0.00,,SKC,0.00,VWS V14.01,2013-01-22 19:12:00,
2013-01-22 12:13:00,54.2,-3.4,30.30,SW,216,18.0,21.0,9,0.00,,SKC,0.00,VWS V14.01,2013-01-22 19:13:00,
2013-01-22 12:14:00,53.9,-3.6,30.30,South,188,11.0,18.0,9,0.00,,SKC,0.00,VWS V14.01,2013-01-22 19:14:00,
2013-01-22 12:15:00,53.8,-3.7,30.31,West,269,12.0,16.0,9,0.00,,SKC,0.00,VWS V14.01,2013-01-22 19:15:00,
2013-01-22 12:16:00,53.8,-1.5,30.31,SW,226,12.0,17.0,10,0.00,,SKC,0.00,VWS V14.01,2013-01-22 19:16:00,
2013-01-22 12:17:00,53.8,-1.5,30.31,SW,226,12.0,17.0,10,0.00,,SKC,0.00,VWS V14.01,2013-01-22 19:17:00,
2013-01-22 12:18:00,53.9,-3.6,30.30,WSW,237,13.0,19.0,9,0.00,,SKC,0.00,VWS V14.01,2013-01-22 19:18:00,
2013-01-22 12:19:00,54.0,-3.5,30.30,SSW,197,15.0,17.0,9,0.00,,SKC,0.00,VWS V14.01,2013-01-22 19:19:00,
2013-01-22 12:20:00,54.0,-1.3,30.30,SW,230,17.0,20.0,10,0.00,,SKC,0.00,VWS V14.01,2013-01-22 19:20:00,
2013-01-22 12:21:00,54.1,-1.3,30.31,WSW,257,6.0,17.0,10,0.00,,SKC,0.00,VWS V14.01,2013-01-22 19:21:00,
2013-01-22 12:22:00,54.3,-1.1,30.31,West,269,8.0,11.0,10,0.00,,SKC,0.00,VWS V14.01,2013-01-22 19:22:00,
2013-01-22 12:23:00,54.4,-1.0,30.30,SW,221,10.0,13.0,10,0.00,,SKC,0.00,VWS V14.01,2013-01-22 19:23:00,
2013-01-22 12:24:00,54.5,-0.9,30.30,SSW,201,12.0,17.0,10,0.00,,SKC,0.00,VWS V14.01,2013-01-22 19:24:00,
2013-01-22 12:25:00,54.5,-0.9,30.30,SSW,200,12.0,19.0,10,0.00,,SKC,0.00,VWS V14.01,2013-01-22 19:25:00,
2013-01-22 12:26:00,54.4,-1.0,30.30,WSW,249,7.0,15.0,10,0.00,,SKC,0.00,VWS V14.01,2013-01-22 19:26:00,
2013-01-22 12:27:00,54.3,-1.1,30.31,SW,225,13.0,13.0,10,0.00,,SKC,0.00,VWS V14.01,2013-01-22 19:27:00,
2013-01-22 12:28:00,54.3,-1.1,30.31,West,263,7.0,13.0,10,0.00,,SKC,0.00,VWS V14.01,2013-01-22 19:28:00,
2013-01-22 12:29:00,54.4,-1.0,30.31,SW,219,4.0,7.0,10,0.00,,SKC,0.00,VWS V14.01,2013-01-22 19:29:00,
2013-01-22 12:30:00,54.5,-0.9,30.30,South,190,10.0,12.0,10,0.00,,SKC,0.00,VWS V14.01,2013-01-22 19:30:00,
2013-01-22 12:31:00,54.6,-0.9,30.30,SW,217,10.0,13.0,10,0.00,,SKC,0.00,VWS V14.01,2013-01-22 19:31:00,
2013-01-22 12:32:00,54.8,-2.9,30.30,SSW,212,12.0,22.0,9,0.00,,SKC,0.00,VWS V14.01,2013-01-22 19:32:00,
2013-01-22 12:33:00,54.8,-0.7,30.30,South,179,12.0,15.0,10,0.00,,SKC,0.00,VWS V14.01,2013-01-22 19:33:00,
2013-01-22 12:34:00,54.9,-0.6,30.30,SW,216,16.0,17.0,10,0.00,,SKC,0.00,VWS V14.01,2013-01-22 19:34:00,
2013-01-22 12:35:00,54.9,-2.9,30.30,West,271,15.0,21.0,9,0.00,,SKC,0.00,VWS V14.01,2013-01-22 19:35:00,
2013-01-22 12:36:00,55.0,-2.8,30.30,SSW,212,15.0,18.0,9,0.00,,SKC,0.00,VWS V14.01,2013-01-22 19:36:00,
2013-01-22 12:37:00,55.0,-0.6,30.30,SSW,199,15.0,19.0,10,0.00,,SKC,0.00,VWS V14.01,2013-01-22 19:37:00,
2013-01-22 12:38:00,54.8,-2.9,30.30,SW,220,10.0,16.0,9,0.00,,SKC,0.00,VWS V14.01,2013-01-22 19:38:00,
2013-01-22 12:39:00,54.7,-0.8,30.30,SW,220,11.0,12.0,10,0.00,,SKC,0.00,VWS V14.01,2013-01-22 19:39:00,
2013-01-22 12:40:00,54.6,-0.9,30.30,SSW,203,19.0,19.0,10,0.00,,SKC,0.00,VWS V14.01,2013-01-22 19:40:00,
2013-01-22 12:41:00,54.6,-0.9,30.29,SSW,194,13.0,19.0,10,0.00,,SKC,0.00,VWS V14.01,2013-01-22 19:41:00,
2013-01-22 12:42:00,54.5,-0.9,30.29,South,184,9.0,13.0,10,0.00,,SKC,0.00,VWS V14.01,2013-01-22 19:42:00,
2013-01-22 12:43:00,54.4,-1.0,30.29,SSW,196,12.0,14.0,10,0.00,,SKC,0.00,VWS V14.01,2013-01-22 19:43:00,
2013-01-22 12:44:00,54.3,-1.1,30.29,South,173,10.0,16.0,10,0.00,,SKC,0.00,VWS V14.01,2013-01-22 19:44:00,
2013-01-22 12:45:00,54.3,-1.1,30.29,South,174,14.0,17.0,10,0.00,,SKC,0.00,VWS V14.01,2013-01-22 19:45:00,
2013-01-22 12:46:00,54.3,-1.1,30.29,WSW,247,12.0,16.0,10,0.00,,SKC,0.00,VWS V14.01,2013-01-22 19:46:00,
2013-01-22 12:48:00,54.5,-0.9,30.29,South,186,18.0,23.0,10,0.00,,SKC,0.00,VWS V14.01,2013-01-22 19:48:00,
2013-01-22 12:52:00,54.1,-1.3,30.29,South,183,16.0,18.0,10,0.00,,SKC,0.00,VWS V14.01,2013-01-22 19:52:00,
2013-01-22 12:53:00,54.1,-1.3,30.29,SW,217,11.0,16.0,10,0.00,,SKC,0.00,VWS V14.01,2013-01-22 19:53:00,
2013-01-22 12:54:00,54.0,-1.3,30.29,South,187,11.0,13.0,10,0.00,,SKC,0.00,VWS V14.01,2013-01-22 19:54:00,
2013-01-22 12:55:00,53.9,-1.4,30.28,South,188,18.0,19.0,10,0.00,,SKC,0.00,VWS V14.01,2013-01-22 19:55:00,
2013-01-22 12:56:00,53.8,-1.5,30.29,South,178,12.0,18.0,10,0.00,,SKC,0.00,VWS V14.01,2013-01-22 19:56:00,
2013-01-22 12:57:00,53.7,-3.8,30.29,SSW,204,18.0,21.0,9,0.00,,SKC,0.00,VWS V14.01,2013-01-22 19:57:00,
2013-01-22 12:58:00,53.6,-1.6,30.28,South,180,10.0,19.0,10,0.00,,SKC,0.00,VWS V14.01,2013-01-22 19:58:00,
2013-01-22 12:59:00,53.6,-1.6,30.28,SSW,198,9.0,18.0,10,0.00,,SKC,0.00,VWS V14.01,2013-01-22 19:59:00,
2013-01-22 13:00:00,53.7,-1.6,30.28,South,170,13.0,17.0,10,0.00,,SKC,0.00,VWS V14.01,2013-01-22 20:00:00,
2013-01-22 13:01:00,53.8,-1.5,30.28,South,186,17.0,18.0,10,0.00,,SKC,0.00,VWS V14.01,2013-01-22 20:01:00,
2013-01-22 13:02:00,53.8,-1.5,30.29,SSW,193,12.0,17.0,10,0.00,,SKC,0.00,VWS V14.01,2013-01-22 20:02:00,
2013-01-22 13:03:00,53.9,-1.4,30.28,South,181,9.0,17.0,10,0.00,,SKC,0.00,VWS V14.01,2013-01-22 20:03:00,
2013-01-22 13:04:00,54.0,-1.3,30.28,South,188,10.0,12.0,10,0.00,,SKC,0.00,VWS V14.01,2013-01-22 20:04:00,
2013-01-22 13:05:00,54.1,-1.3,30.28,SSW,203,9.0,14.0,10,0.00,,SKC,0.00,VWS V14.01,2013-01-22 20:05:00,
2013-01-22 13:06:00,54.2,-1.2,30.28,SSW,200,13.0,14.0,10,0.00,,SKC,0.00,VWS V14.01,2013-01-22 20:06:00,
2013-01-22 13:07:00,54.3,-1.1,30.28,South,182,6.0,14.0,10,0.00,,SKC,0.00,VWS V14.01,2013-01-22 20:07:00,
2013-01-22 13:08:00,54.4,-1.0,30.28,North,360,7.0,12.0,10,0.00,,SKC,0.00,VWS V14.01,2013-01-22 20:08:00,
2013-01-22 13:09:00,54.4,-1.0,30.28,SSW,207,9.0,13.0,10,0.00,,SKC,0.00,VWS V14.01,2013-01-22 20:09:00,
2013-01-22 13:10:00,54.5,-0.9,30.28,SSW,207,14.0,14.0,10,0.00,,SKC,0.00,VWS V14.01,2013-01-22 20:10:00,
2013-01-22 13:11:00,54.6,-0.9,30.28,South,178,14.0,15.0,10,0.00,,SKC,0.00,VWS V14.01,2013-01-22 20:11:00,
2013-01-22 13:12:00,54.7,-0.8,30.28,SW,232,11.0,15.0,10,0.00,,SKC,0.00,VWS V14.01,2013-01-22 20:12:00,
2013-01-22 13:13:00,54.8,-0.7,30.28,South,183,13.0,18.0,10,0.00,,SKC,0.00,VWS V14.01,2013-01-22 20:13:00,
2013-01-22 13:14:00,54.8,-2.9,30.28,SSW,197,7.0,21.0,9,0.00,,SKC,0.00,VWS V14.01,2013-01-22 20:14:00,
2013-01-22 13:15:00,54.8,-0.7,30.28,SSW,212,15.0,16.0,10,0.00,,SKC,0.00,VWS V14.01,2013-01-22 20:15:00,
2013-01-22 13:16:00,54.7,-0.8,30.28,South,178,10.0,20.0,10,0.00,,SKC,0.00,VWS V14.01,2013-01-22 20:16:00,
2013-01-22 13:17:00,54.7,-0.8,30.28,SSW,200,6.0,12.0,10,0.00,,SKC,0.00,VWS V14.01,2013-01-22 20:17:00,
2013-01-22 13:18:00,54.8,-0.7,30.28,SW,228,10.0,12.0,10,0.00,,SKC,0.00,VWS V14.01,2013-01-22 20:18:00,
2013-01-22 13:19:00,54.9,-0.6,30.28,WSW,257,11.0,13.0,10,0.00,,SKC,0.00,VWS V14.01,2013-01-22 20:19:00,
2013-01-22 13:20:00,55.1,-2.7,30.28,WSW,242,19.0,19.0,9,0.00,,SKC,0.00,VWS V14.01,2013-01-22 20:20:00,
2013-01-22 13:21:00,55.4,-2.5,30.28,North,360,4.0,19.0,9,0.00,,SKC,0.00,VWS V14.01,2013-01-22 20:21:00,
2013-01-22 13:22:00,55.5,-4.9,30.28,SW,217,14.0,17.0,8,0.00,,SKC,0.00,VWS V14.01,2013-01-22 20:22:00,
2013-01-22 13:23:00,55.7,-2.2,30.28,SSW,196,5.0,17.0,9,0.00,,SKC,0.00,VWS V14.01,2013-01-22 20:23:00,
2013-01-22 13:24:00,56.0,-2.0,30.28,SSW,197,7.0,11.0,9,0.00,,SKC,0.00,VWS V14.01,2013-01-22 20:24:00,
2013-01-22 13:25:00,56.2,0.4,30.28,WSW,248,16.0,21.0,10,0.00,,SKC,0.00,VWS V14.01,2013-01-22 20:25:00,
2013-01-22 13:26:00,56.5,-4.1,30.28,North,360,6.0,17.0,8,0.00,,SKC,0.00,VWS V14.01,2013-01-22 20:26:00,
2013-01-22 13:27:00,56.5,-1.6,30.28,South,186,9.0,14.0,9,0.00,,SKC,0.00,VWS V14.01,2013-01-22 20:27:00,
2013-01-22 13:28:00,56.5,-1.6,30.28,SSW,198,17.0,18.0,9,0.00,,SKC,0.00,VWS V14.01,2013-01-22 20:28:00,
2013-01-22 13:29:00,56.4,-1.7,30.27,South,189,10.0,17.0,9,0.00,,SKC,0.00,VWS V14.01,2013-01-22 20:29:00,
2013-01-22 13:30:00,56.2,-1.9,30.28,SW,219,10.0,19.0,9,0.00,,SKC,0.00,VWS V14.01,2013-01-22 20:30:00,
2013-01-22 13:31:00,56.1,-2.0,30.27,SSW,194,18.0,24.0,9,0.00,,SKC,0.00,VWS V14.01,2013-01-22 20:31:00,
2013-01-22 13:32:00,56.0,-2.0,30.27,SW,223,10.0,18.0,9,0.00,,SKC,0.00,VWS V14.01,2013-01-22 20:32:00,
2013-01-22 13:33:00,55.7,-2.2,30.27,SSW,194,6.0,10.0,9,0.00,,SKC,0.00,VWS V14.01,2013-01-22 20:33:00,
2013-01-22 13:34:00,55.5,-2.4,30.27,SSW,196,15.0,15.0,9,0.00,,SKC,0.00,VWS V14.01,2013-01-22 20:34:00,
2013-01-22 13:35:00,55.3,-0.3,30.27,SW,217,14.0,26.0,10,0.00,,SKC,0.00,VWS V14.01,2013-01-22 20:35:00,
2013-01-22 13:36:00,55.0,-2.8,30.25,SW,215,13.0,17.0,9,0.00,,SKC,0.00,VWS V14.01,2013-01-22 20:36:00,
2013-01-22 13:37:00,54.8,-0.7,30.26,SSW,205,13.0,19.0,10,0.00,,SKC,0.00,VWS V14.01,2013-01-22 20:37:00,
2013-01-22 13:38:00,54.6,-0.9,30.26,SW,229,11.0,20.0,10,0.00,,SKC,0.00,VWS V14.01,2013-01-22 20:38:00,
2013-01-22 13:39:00,54.6,-0.9,30.25,SW,232,12.0,15.0,10,0.00,,SKC,0.00,VWS V14.01,2013-01-22 20:39:00,
2013-01-22 13:40:00,54.6,-0.9,30.25,South,189,15.0,19.0,10,0.00,,SKC,0.00,VWS V14.01,2013-01-22 20:40:00,
2013-01-22 13:41:00,54.5,-0.9,30.26,North,360,15.0,16.0,10,0.00,,SKC,0.00,VWS V14.01,2013-01-22 20:41:00,
2013-01-22 13:42:00,54.5,-0.9,30.25,SSW,192,7.0,15.0,10,0.00,,SKC,0.00,VWS V14.01,2013-01-22 20:42:00,
2013-01-22 13:43:00,54.6,-0.9,30.25,South,187,12.0,12.0,10,0.00,,SKC,0.00,VWS V14.01,2013-01-22 20:43:00,
2013-01-22 13:44:00,54.7,-0.8,30.25,SW,215,14.0,19.0,10,0.00,,SKC,0.00,VWS V14.01,2013-01-22 20:44:00,
2013-01-22 13:45:00,54.8,-0.7,30.26,SSW,205,14.0,16.0,10,0.00,,SKC,0.00,VWS V14.01,2013-01-22 20:45:00,
2013-01-22 13:46:00,54.8,-0.7,30.25,SSW,205,6.0,14.0,10,0.00,,SKC,0.00,VWS V14.01,2013-01-22 20:46:00,
2013-01-22 13:47:00,54.8,-0.7,30.26,WSW,240,5.0,13.0,10,0.00,,SKC,0.00,VWS V14.01,2013-01-22 20:47:00,
2013-01-22 13:48:00,55.0,-0.6,30.25,WSW,255,15.0,17.0,10,0.00,,SKC,0.00,VWS V14.01,2013-01-22 20:48:00,
2013-01-22 13:49:00,55.1,-2.7,30.26,WSW,248,6.0,17.0,9,0.00,,SKC,0.00,VWS V14.01,2013-01-22 20:49:00,
2013-01-22 13:50:00,55.3,-2.6,30.25,SSW,201,14.0,14.0,9,0.00,,SKC,0.00,VWS V14.01,2013-01-22 20:50:00,
2013-01-22 13:51:00,55.4,-0.3,30.25,SW,219,13.0,18.0,10,0.00,,SKC,0.00,VWS V14.01,2013-01-22 20:51:00,
2013-01-22 13:52:00,55.6,-2.3,30.24,West,272,9.0,15.0,9,0.00,,SKC,0.00,VWS V14.01,2013-01-22 20:52:00,
2013-01-22 13:53:00,55.7,-2.2,30.24,West,259,6.0,10.0,9,0.00,,SKC,0.00,VWS V14.01,2013-01-22 20:53:00,
2013-01-22 13:54:00,55.7,-2.2,30.25,West,259,11.0,14.0,9,0.00,,SKC,0.00,VWS V14.01,2013-01-22 20:54:00,
2013-01-22 13:55:00,55.8,-2.2,30.25,SSW,212,10.0,14.0,9,0.00,,SKC,0.00,VWS V14.01,2013-01-22 20:55:00,
2013-01-22 13:56:00,55.8,-4.6,30.25,WSW,246,11.0,13.0,8,0.00,,SKC,0.00,VWS V14.01,2013-01-22 20:56:00,
2013-01-22 13:57:00,55.9,-2.1,30.25,West,261,9.0,11.0,9,0.00,,SKC,0.00,VWS V14.01,2013-01-22 20:57:00,
2013-01-22 13:58:00,56.0,-2.0,30.25,SW,234,11.0,14.0,9,0.00,,SKC,0.00,VWS V14.01,2013-01-22 20:58:00,
2013-01-22 13:59:00,56.0,-2.0,30.25,SW,225,13.0,20.0,9,0.00,,SKC,0.00,VWS V14.01,2013-01-22 20:59:00,
2013-01-22 14:00:00,56.0,-2.0,30.25,SW,223,12.0,17.0,9,0.00,,SKC,0.00,VWS V14.01,2013-01-22 21:00:00,
2013-01-22 14:01:00,56.1,-4.4,30.25,SW,214,10.0,16.0,8,0.00,,SKC,0.00,VWS V14.01,2013-01-22 21:01:00,
2013-01-22 14:02:00,56.3,-4.3,30.25,SSW,210,11.0,14.0,8,0.00,,SKC,0.00,VWS V14.01,2013-01-22 21:02:00,
2013-01-22 14:03:00,56.5,-4.1,30.25,North,360,10.0,14.0,8,0.00,,SKC,0.00,VWS V14.01,2013-01-22 21:03:00,
2013-01-22 14:04:00,56.6,-4.0,30.25,WSW,253,8.0,15.0,8,0.00,,SKC,0.00,VWS V14.01,2013-01-22 21:04:00,
2013-01-22 14:05:00,56.8,-1.4,30.25,SW,232,16.0,17.0,9,0.00,,SKC,0.00,VWS V14.01,2013-01-22 21:05:00,
2013-01-22 14:06:00,56.9,-1.3,30.25,SSW,198,9.0,16.0,9,0.00,,SKC,0.00,VWS V14.01,2013-01-22 21:06:00,
2013-01-22 14:07:00,56.9,-3.8,30.25,SW,236,10.0,11.0,8,0.00,,SKC,0.00,VWS V14.01,2013-01-22 21:07:00,
2013-01-22 14:08:00,57.0,-1.3,30.25,West,263,14.0,14.0,9,0.00,,SKC,0.00,VWS V14.01,2013-01-22 21:08:00,
2013-01-22 14:09:00,57.1,-1.2,30.25,North,360,13.0,18.0,9,0.00,,SKC,0.00,VWS V14.01,2013-01-22 21:09:00,
2013-01-22 14:10:00,57.2,-3.6,30.25,West,266,6.0,14.0,8,0.00,,SKC,0.00,VWS V14.01,2013-01-22 21:10:00,
2013-01-22 14:11:00,57.3,-3.5,30.25,SW,229,10.0,10.0,8,0.00,,SKC,0.00,VWS V14.01,2013-01-22 21:11:00,
2013-01-22 14:12:00,57.3,-3.5,30.25,SW,226,4.0,12.0,8,0.00,,SKC,0.00,VWS V14.01,2013-01-22 21:12:00,
2013-01-22 14:13:00,57.3,-3.5,30.25,SW,226,4.0,12.0,8,0.00,,SKC,0.00,VWS V14.01,2013-01-22 21:13:00,
2013-01-22 14:14:00,57.2,-1.1,30.25,South,182,13.0,13.0,9,0.00,,SKC,0.00,VWS V14.01,2013-01-22 21:14:00,
2013-01-22 14:15:00,57.2,-1.1,30.25,SW,231,9.0,13.0,9,0.00,,SKC,0.00,VWS V14.01,2013-01-22 21:15:00,
2013-01-22 14:16:00,57.2,-1.1,30.25,SW,236,13.0,13.0,9,0.00,,SKC,0.00,VWS V14.01,2013-01-22 21:16:00,
2013-01-22 14:17:00,57.1,-3.7,30.25,SW,215,14.0,21.0,8,0.00,,SKC,0.00,VWS V14.01,2013-01-22 21:17:00,
2013-01-22 14:18:00,57.0,-3.7,30.25,West,277,13.0,14.0,8,0.00,,SKC,0.00,VWS V14.01,2013-01-22 21:18:00,
2013-01-22 14:19:00,56.9,-3.8,30.26,SSW,205,9.0,16.0,8,0.00,,SKC,0.00,VWS V14.01,2013-01-22 21:19:00,
2013-01-22 14:20:00,56.8,-1.4,30.26,SSW,209,12.0,12.0,9,0.00,,SKC,0.00,VWS V14.01,2013-01-22 21:20:00,
2013-01-22 14:21:00,56.8,-1.4,30.26,North,360,5.0,12.0,9,0.00,,SKC,0.00,VWS V14.01,2013-01-22 21:21:00,
2013-01-22 14:22:00,56.9,-1.3,30.26,West,278,6.0,11.0,9,0.00,,SKC,0.00,VWS V14.01,2013-01-22 21:22:00,
2013-01-22 14:23:00,56.8,-1.4,30.26,West,265,7.0,12.0,9,0.00,,SKC,0.00,VWS V14.01,2013-01-22 21:23:00,
2013-01-22 14:24:00,56.8,-1.4,30.26,WNW,283,6.0,11.0,9,0.00,,SKC,0.00,VWS V14.01,2013-01-22 21:24:00,
2013-01-22 14:25:00,56.6,-1.6,30.26,South,189,11.0,15.0,9,0.00,,SKC,0.00,VWS V14.01,2013-01-22 21:25:00,
2013-01-22 14:26:00,56.5,-1.6,30.26,WSW,247,10.0,12.0,9,0.00,,SKC,0.00,VWS V14.01,2013-01-22 21:26:00,
2013-01-22 14:27:00,56.4,-1.7,30.26,WNW,293,1.0,11.0,9,0.00,,SKC,0.00,VWS V14.01,2013-01-22 21:27:00,
2013-01-22 14:28:00,56.3,-1.8,30.25,West,259,5.0,7.0,9,0.00,,SKC,0.00,VWS V14.01,2013-01-22 21:28:00,
2013-01-22 14:29:00,56.3,-1.8,30.26,SSW,198,11.0,12.0,9,0.00,,SKC,0.00,VWS V14.01,2013-01-22 21:29:00,
2013-01-22 14:30:00,56.3,-1.8,30.26,WSW,239,7.0,14.0,9,0.00,,SKC,0.00,VWS V14.01,2013-01-22 21:30:00,
2013-01-22 14:31:00,56.4,-1.7,30.26,West,273,5.0,7.0,9,0.00,,SKC,0.00,VWS V14.01,2013-01-22 21:31:00,
2013-01-22 14:32:00,56.4,-1.7,30.25,SW,225,6.0,11.0,9,0.00,,SKC,0.00,VWS V14.01,2013-01-22 21:32:00,
2013-01-22 14:33:00,56.4,-1.7,30.26,West,262,6.0,8.0,9,0.00,,SKC,0.00,VWS V14.01,2013-01-22 21:33:00,
2013-01-22 14:34:00,56.4,-1.7,30.26,South,184,5.0,12.0,9,0.00,,SKC,0.00,VWS V14.01,2013-01-22 21:34:00,
2013-01-22 14:35:00,56.5,-1.6,30.26,SW,234,12.0,16.0,9,0.00,,SKC,0.00,VWS V14.01,2013-01-22 21:35:00,
2013-01-22 14:36:00,56.6,-4.0,30.26,North,360,17.0,18.0,8,0.00,,SKC,0.00,VWS V14.01,2013-01-22 21:36:00,
2013-01-22 14:37:00,56.8,-3.9,30.26,SW,233,11.0,17.0,8,0.00,,SKC,0.00,VWS V14.01,2013-01-22 21:37:00,
2013-01-22 14:38:00,56.8,-1.4,30.26,North,360,10.0,13.0,9,0.00,,SKC,0.00,VWS V14.01,2013-01-22 21:38:00,
2013-01-22 14:39:00,56.8,-1.4,30.26,SSW,203,5.0,11.0,9,0.00,,SKC,0.00,VWS V14.01,2013-01-22 21:39:00,
2013-01-22 14:40:00,56.6,-1.6,30.26,West,259,14.0,19.0,9,0.00,,SKC,0.00,VWS V14.01,2013-01-22 21:40:00,
2013-01-22 14:41:00,56.4,-4.2,30.25,SSW,194,10.0,19.0,8,0.00,,SKC,0.00,VWS V14.01,2013-01-22 21:41:00,
2013-01-22 14:42:00,56.4,-1.7,30.26,West,261,10.0,17.0,9,0.00,,SKC,0.00,VWS V14.01,2013-01-22 21:42:00,
2013-01-22 14:43:00,56.4,-1.7,30.26,North,360,6.0,13.0,9,0.00,,SKC,0.00,VWS V14.01,2013-01-22 21:43:00,
2013-01-22 14:44:00,56.4,-1.7,30.26,SW,222,9.0,9.0,9,0.00,,SKC,0.00,VWS V14.01,2013-01-22 21:44:00,
2013-01-22 14:45:00,56.3,-1.8,30.26,SSW,192,6.0,12.0,9,0.00,,SKC,0.00,VWS V14.01,2013-01-22 21:45:00,
2013-01-22 14:46:00,56.2,-1.9,30.26,West,271,7.0,13.0,9,0.00,,SKC,0.00,VWS V14.01,2013-01-22 21:46:00,
2013-01-22 14:47:00,56.2,-1.9,30.26,SW,217,11.0,14.0,9,0.00,,SKC,0.00,VWS V14.01,2013-01-22 21:47:00,
2013-01-22 14:48:00,56.2,-4.3,30.26,WSW,246,24.0,26.0,8,0.00,,SKC,0.00,VWS V14.01,2013-01-22 21:48:00,
2013-01-22 14:49:00,56.2,-4.3,30.26,SSW,199,11.0,24.0,8,0.00,,SKC,0.00,VWS V14.01,2013-01-22 21:49:00,
2013-01-22 14:50:00,56.2,-4.3,30.26,SW,223,8.0,11.0,8,0.00,,SKC,0.00,VWS V14.01,2013-01-22 21:50:00,
2013-01-22 14:51:00,56.2,-1.9,30.26,SW,221,10.0,13.0,9,0.00,,SKC,0.00,VWS V14.01,2013-01-22 21:51:00,
2013-01-22 14:52:00,56.1,-2.0,30.26,SSW,201,7.0,10.0,9,0.00,,SKC,0.00,VWS V14.01,2013-01-22 21:52:00,
2013-01-22 14:53:00,56.0,-2.0,30.26,South,184,6.0,7.0,9,0.00,,SKC,0.00,VWS V14.01,2013-01-22 21:53:00,
2013-01-22 14:54:00,56.0,-2.0,30.26,SW,228,4.0,7.0,9,0.00,,SKC,0.00,VWS V14.01,2013-01-22 21:54:00,
2013-01-22 14:55:00,55.9,-2.1,30.27,WNW,287,0.0,6.0,9,0.00,,SKC,0.00,VWS V14.01,2013-01-22 21:55:00,
2013-01-22 14:56:00,55.8,-2.2,30.27,SSW,210,6.0,7.0,9,0.00,,SKC,0.00,VWS V14.01,2013-01-22 21:56:00,
2013-01-22 14:57:00,55.8,-2.2,30.27,North,360,5.0,7.0,9,0.00,,SKC,0.00,VWS V14.01,2013-01-22 21:57:00,
2013-01-22 14:58:00,55.7,-2.2,30.27,SW,219,6.0,6.0,9,0.00,,SKC,0.00,VWS V14.01,2013-01-22 21:58:00,
2013-01-22 14:59:00,55.7,-2.2,30.27,West,272,13.0,13.0,9,0.00,,SKC,0.00,VWS V14.01,2013-01-22 21:59:00,
2013-01-22 15:00:00,55.7,-7.5,30.27,SSW,194,9.0,16.0,7,0.00,,SKC,0.00,VWS V14.01,2013-01-22 22:00:00,
2013-01-22 15:01:00,55.7,-4.7,30.27,SSW,200,4.0,9.0,8,0.00,,SKC,0.00,VWS V14.01,2013-01-22 22:01:00,
2013-01-22 15:02:00,55.7,-2.2,30.27,SSW,196,4.0,4.0,9,0.00,,SKC,0.00,VWS V14.01,2013-01-22 22:02:00,
2013-01-22 15:04:00,55.5,-2.4,30.27,SSW,192,11.0,12.0,9,0.00,,SKC,0.00,VWS V14.01,2013-01-22 22:04:00,
2013-01-22 15:05:00,55.4,-2.5,30.27,South,189,9.0,15.0,9,0.00,,SKC,0.00,VWS V14.01,2013-01-22 22:05:00,
2013-01-22 15:06:00,55.2,-2.6,30.27,SW,232,1.0,10.0,9,0.00,,SKC,0.00,VWS V14.01,2013-01-22 22:06:00,
2013-01-22 15:07:00,55.1,-2.7,30.28,South,171,3.0,8.0,9,0.00,,SKC,0.00,VWS V14.01,2013-01-22 22:07:00,
2013-01-22 15:08:00,55.0,-2.8,30.28,SSW,197,8.0,10.0,9,0.00,,SKC,0.00,VWS V14.01,2013-01-22 22:08:00,
2013-01-22 15:09:00,55.0,-2.8,30.28,South,180,4.0,9.0,9,0.00,,SKC,0.00,VWS V14.01,2013-01-22 22:09:00,
2013-01-22 15:10:00,55.0,-2.8,30.28,South,180,4.0,9.0,9,0.00,,SKC,0.00,VWS V14.01,2013-01-22 22:10:00,
2013-01-22 15:11:00,55.1,-2.7,30.28,SSW,200,14.0,17.0,9,0.00,,SKC,0.00,VWS V14.01,2013-01-22 22:11:00,
2013-01-22 15:12:00,55.1,-2.7,30.28,SW,228,14.0,15.0,9,0.00,,SKC,0.00,VWS V14.01,2013-01-22 22:12:00,
2013-01-22 15:13:00,55.0,-2.8,30.27,West,279,15.0,15.0,9,0.00,,SKC,0.00,VWS V14.01,2013-01-22 22:13:00,
2013-01-22 15:14:00,54.9,-2.9,30.28,West,261,6.0,17.0,9,0.00,,SKC,0.00,VWS V14.01,2013-01-22 22:14:00,
2013-01-22 15:15:00,54.9,-2.9,30.28,North,360,10.0,11.0,9,0.00,,SKC,0.00,VWS V14.01,2013-01-22 22:15:00,
2013-01-22 15:16:00,54.9,-2.9,30.28,WSW,257,24.0,24.0,9,0.00,,SKC,0.00,VWS V14.01,2013-01-22 22:16:00,
2013-01-22 15:17:00,54.7,-3.0,30.28,SW,227,17.0,24.0,9,0.00,,SKC,0.00,VWS V14.01,2013-01-22 22:17:00,
2013-01-22 15:18:00,54.5,-3.2,30.28,SW,221,18.0,27.0,9,0.00,,SKC,0.00,VWS V14.01,2013-01-22 22:18:00,
2013-01-22 15:19:00,54.3,-3.3,30.28,West,260,10.0,22.0,9,0.00,,SKC,0.00,VWS V14.01,2013-01-22 22:19:00,
2013-01-22 15:20:00,54.2,-3.4,30.28,SW,232,12.0,14.0,9,0.00,,SKC,0.00,VWS V14.01,2013-01-22 22:20:00,
2013-01-22 15:21:00,54.0,-3.5,30.28,WSW,238,22.0,26.0,9,0.00,,SKC,0.00,VWS V14.01,2013-01-22 22:21:00,
2013-01-22 15:22:00,53.8,-3.7,30.28,WSW,248,17.0,25.0,9,0.00,,SKC,0.00,VWS V14.01,2013-01-22 22:22:00,
2013-01-22 15:23:00,53.5,-3.9,30.28,WSW,237,12.0,21.0,9,0.00,,SKC,0.00,VWS V14.01,2013-01-22 22:23:00,
2013-01-22 15:24:00,53.1,-4.2,30.29,North,360,14.0,16.0,9,0.00,,SKC,0.00,VWS V14.01,2013-01-22 22:24:00,
2013-01-22 15:25:00,53.0,-4.3,30.29,SW,233,10.0,14.0,9,0.00,,SKC,0.00,VWS V14.01,2013-01-22 22:25:00,
2013-01-22 15:26:00,53.0,-4.3,30.29,WSW,240,20.0,20.0,9,0.00,,SKC,0.00,VWS V14.01,2013-01-22 22:26:00,
2013-01-22 15:27:00,53.0,-4.3,30.29,WSW,240,20.0,20.0,9,0.00,,SKC,0.00,VWS V14.01,2013-01-22 22:27:00,
2013-01-22 15:28:00,52.9,-4.4,30.29,West,263,8.0,20.0,9,0.00,,SKC,0.00,VWS V14.01,2013-01-22 22:28:00,
2013-01-22 15:29:00,53.0,-4.3,30.29,SSW,200,13.0,19.0,9,0.00,,SKC,0.00,VWS V14.01,2013-01-22 22:29:00,
2013-01-22 15:30:00,53.0,-4.3,30.29,SW,219,13.0,15.0,9,0.00,,SKC,0.00,VWS V14.01,2013-01-22 22:30:00,
2013-01-22 15:31:00,53.1,-4.2,30.29,SSW,202,12.0,13.0,9,0.00,,SKC,0.00,VWS V14.01,2013-01-22 22:31:00,
2013-01-22 15:32:00,53.2,-4.2,30.29,SSW,202,9.0,12.0,9,0.00,,SKC,0.00,VWS V14.01,2013-01-22 22:32:00,
2013-01-22 15:33:00,53.3,-4.1,30.29,WSW,257,6.0,10.0,9,0.00,,SKC,0.00,VWS V14.01,2013-01-22 22:33:00,
2013-01-22 15:34:00,53.3,-4.1,30.29,SW,216,2.0,14.0,9,0.00,,SKC,0.00,VWS V14.01,2013-01-22 22:34:00,
2013-01-22 15:35:00,53.4,-4.0,30.29,North,360,10.0,13.0,9,0.00,,SKC,0.00,VWS V14.01,2013-01-22 22:35:00,
2013-01-22 15:36:00,53.4,-4.0,30.29,SSW,209,12.0,21.0,9,0.00,,SKC,0.00,VWS V14.01,2013-01-22 22:36:00,
2013-01-22 15:37:00,53.4,-4.0,30.29,South,183,10.0,15.0,9,0.00,,SKC,0.00,VWS V14.01,2013-01-22 22:37:00,
2013-01-22 15:38:00,53.4,-4.0,30.29,SW,229,20.0,22.0,9,0.00,,SKC,0.00,VWS V14.01,2013-01-22 22:38:00,
2013-01-22 15:39:00,53.3,-4.1,30.29,SW,222,11.0,20.0,9,0.00,,SKC,0.00,VWS V14.01,2013-01-22 22:39:00,
2013-01-22 15:40:00,53.2,-4.2,30.29,West,279,13.0,17.0,9,0.00,,SKC,0.00,VWS V14.01,2013-01-22 22:40:00,
2013-01-22 15:41:00,53.1,-4.2,30.29,SW,236,9.0,17.0,9,0.00,,SKC,0.00,VWS V14.01,2013-01-22 22:41:00,
2013-01-22 15:42:00,53.0,-4.3,30.29,SW,227,10.0,11.0,9,0.00,,SKC,0.00,VWS V14.01,2013-01-22 22:42:00,
2013-01-22 15:43:00,52.9,-4.4,30.29,SW,222,10.0,17.0,9,0.00,,SKC,0.00,VWS V14.01,2013-01-22 22:43:00,
2013-01-22 15:44:00,52.8,-4.5,30.29,WSW,240,9.0,11.0,9,0.00,,SKC,0.00,VWS V14.01,2013-01-22 22:44:00,
2013-01-22 15:45:00,52.7,-4.5,30.29,SSW,198,10.0,11.0,9,0.00,,SKC,0.00,VWS V14.01,2013-01-22 22:45:00,
2013-01-22 15:46:00,52.7,-4.5,30.29,SSW,209,12.0,19.0,9,0.00,,SKC,0.00,VWS V14.01,2013-01-22 22:46:00,
2013-01-22 15:47:00,52.7,-4.5,30.29,SW,234,13.0,15.0,9,0.00,,SKC,0.00,VWS V14.01,2013-01-22 22:47:00,
2013-01-22 15:48:00,52.6,-4.6,30.29,WSW,239,11.0,20.0,9,0.00,,SKC,0.00,VWS V14.01,2013-01-22 22:48:00,
2013-01-22 15:49:00,52.6,-4.6,30.29,SSW,200,14.0,16.0,9,0.00,,SKC,0.00,VWS V14.01,2013-01-22 22:49:00,
2013-01-22 15:50:00,52.5,-4.7,30.29,SW,219,9.0,17.0,9,0.00,,SKC,0.00,VWS V14.01,2013-01-22 22:50:00,
2013-01-22 15:51:00,52.4,-4.8,30.29,SW,215,18.0,19.0,9,0.00,,SKC,0.00,VWS V14.01,2013-01-22 22:51:00,
2013-01-22 15:52:00,52.3,-4.8,30.29,WSW,246,13.0,20.0,9,0.00,,SKC,0.00,VWS V14.01,2013-01-22 22:52:00,
2013-01-22 15:53:00,52.2,-4.9,30.29,SSW,195,13.0,17.0,9,0.00,,SKC,0.00,VWS V14.01,2013-01-22 22:53:00,
2013-01-22 15:54:00,52.1,-5.0,30.29,SW,219,17.0,17.0,9,0.00,,SKC,0.00,VWS V14.01,2013-01-22 22:54:00,
2013-01-22 15:55:00,52.0,-5.1,30.29,SSW,197,17.0,19.0,9,0.00,,SKC,0.00,VWS V14.01,2013-01-22 22:55:00,
2013-01-22 15:56:00,51.9,-5.2,30.29,SW,216,19.0,25.0,9,0.00,,SKC,0.00,VWS V14.01,2013-01-22 22:56:00,
2013-01-22 15:57:00,51.9,-5.2,30.29,SSW,202,21.0,24.0,9,0.00,,SKC,0.00,VWS V14.01,2013-01-22 22:57:00,
2013-01-22 15:58:00,51.8,-5.2,30.29,South,181,13.0,22.0,9,0.00,,SKC,0.00,VWS V14.01,2013-01-22 22:58:00,
2013-01-22 15:59:00,51.7,-5.3,30.28,WSW,240,19.0,25.0,9,0.00,,SKC,0.00,VWS V14.01,2013-01-22 22:59:00,
2013-01-22 16:00:00,51.5,-5.5,30.28,SW,215,14.0,19.0,9,0.00,,SKC,0.00,VWS V14.01,2013-01-22 23:00:00,
2013-01-22 16:01:00,51.5,-5.5,30.28,SW,217,11.0,17.0,9,0.00,,SKC,0.00,VWS V14.01,2013-01-22 23:01:00,
2013-01-22 16:02:00,51.4,-5.5,30.28,SW,214,13.0,15.0,9,0.00,,SKC,0.00,VWS V14.01,2013-01-22 23:02:00,
2013-01-22 16:03:00,51.4,-5.5,30.29,SSW,192,13.0,18.0,9,0.00,,SKC,0.00,VWS V14.01,2013-01-22 23:03:00,
2013-01-22 16:04:00,51.4,-5.5,30.28,South,185,18.0,20.0,9,0.00,,SKC,0.00,VWS V14.01,2013-01-22 23:04:00,
2013-01-22 16:05:00,51.3,-5.6,30.29,SSW,207,19.0,27.0,9,0.00,,SKC,0.00,VWS V14.01,2013-01-22 23:05:00,
2013-01-22 16:06:00,51.2,-5.7,30.28,SW,230,15.0,22.0,9,0.00,,SKC,0.00,VWS V14.01,2013-01-22 23:06:00,
2013-01-22 16:07:00,51.1,-5.8,30.29,SSW,207,11.0,17.0,9,0.00,,SKC,0.00,VWS V14.01,2013-01-22 23:07:00,
2013-01-22 16:08:00,51.0,-5.8,30.28,SSW,213,15.0,15.0,9,0.00,,SKC,0.00,VWS V14.01,2013-01-22 23:08:00,
2013-01-22 16:09:00,51.0,-5.8,30.29,South,190,10.0,15.0,9,0.00,,SKC,0.00,VWS V14.01,2013-01-22 23:09:00,
2013-01-22 16:10:00,51.0,-5.8,30.28,SW,232,10.0,14.0,9,0.00,,SKC,0.00,VWS V14.01,2013-01-22 23:10:00,
2013-01-22 16:11:00,51.0,-5.8,30.29,WSW,239,10.0,14.0,9,0.00,,SKC,0.00,VWS V14.01,2013-01-22 23:11:00,
2013-01-22 16:12:00,50.9,-5.9,30.29,SW,220,11.0,11.0,9,0.00,,SKC,0.00,VWS V14.01,2013-01-22 23:12:00,
2013-01-22 16:13:00,50.9,-5.9,30.28,West,261,11.0,16.0,9,0.00,,SKC,0.00,VWS V14.01,2013-01-22 23:13:00,
2013-01-22 16:14:00,50.8,-6.0,30.29,WSW,257,15.0,18.0,9,0.00,,SKC,0.00,VWS V14.01,2013-01-22 23:14:00,
2013-01-22 16:15:00,50.8,-6.0,30.29,SW,229,9.0,18.0,9,0.00,,SKC,0.00,VWS V14.01,2013-01-22 23:15:00,
2013-01-22 16:16:00,50.7,-6.1,30.29,North,360,15.0,15.0,9,0.00,,SKC,0.00,VWS V14.01,2013-01-22 23:16:00,
2013-01-22 16:17:00,50.7,-6.1,30.29,WSW,248,18.0,20.0,9,0.00,,SKC,0.00,VWS V14.01,2013-01-22 23:17:00,
2013-01-22 16:18:00,50.6,-6.2,30.29,WSW,258,20.0,25.0,9,0.00,,SKC,0.00,VWS V14.01,2013-01-22 23:18:00,
2013-01-22 16:19:00,50.5,-6.2,30.29,North,360,21.0,24.0,9,0.00,,SKC,0.00,VWS V14.01,2013-01-22 23:19:00,
2013-01-22 16:20:00,50.3,-6.4,30.29,West,273,11.0,21.0,9,0.00,,SKC,0.00,VWS V14.01,2013-01-22 23:20:00,
2013-01-22 16:21:00,50.1,-6.5,30.29,West,265,15.0,18.0,9,0.00,,SKC,0.00,VWS V14.01,2013-01-22 23:21:00,
2013-01-22 16:22:00,50.0,-6.6,30.29,SW,229,10.0,18.0,9,0.00,,SKC,0.00,VWS V14.01,2013-01-22 23:22:00,
2013-01-22 16:23:00,49.8,-6.8,30.28,WNW,296,10.0,12.0,9,0.00,,SKC,0.00,VWS V14.01,2013-01-22 23:23:00,
2013-01-22 16:24:00,49.7,-6.8,30.29,West,280,5.0,11.0,9,0.00,,SKC,0.00,VWS V14.01,2013-01-22 23:24:00,
2013-01-22 16:25:00,49.6,-6.9,30.29,WSW,242,4.0,10.0,9,0.00,,SKC,0.00,VWS V14.01,2013-01-22 23:25:00,
2013-01-22 16:26:00,49.5,-7.0,30.29,West,261,10.0,16.0,9,0.00,,SKC,0.00,VWS V14.01,2013-01-22 23:26:00,
2013-01-22 16:27:00,49.3,-7.1,30.29,West,269,5.0,12.0,9,0.00,,SKC,0.00,VWS V14.01,2013-01-22 23:27:00,
2013-01-22 16:28:00,49.2,-7.2,30.29,North,360,7.0,11.0,9,0.00,,SKC,0.00,VWS V14.01,2013-01-22 23:28:00,
2013-01-22 16:29:00,49.1,-7.3,30.30,West,278,16.0,20.0,9,0.00,,SKC,0.00,VWS V14.01,2013-01-22 23:29:00,
2013-01-22 16:30:00,49.0,-7.4,30.29,North,360,12.0,16.0,9,0.00,,SKC,0.00,VWS V14.01,2013-01-22 23:30:00,
2013-01-22 16:31:00,48.9,-7.4,30.29,West,280,13.0,18.0,9,0.00,,SKC,0.00,VWS V14.01,2013-01-22 23:31:00,
2013-01-22 16:32:00,48.8,-7.5,30.30,North,360,11.0,19.0,9,0.00,,SKC,0.00,VWS V14.01,2013-01-22 23:32:00,
2013-01-22 16:33:00,48.7,-7.6,30.29,North,360,12.0,18.0,9,0.00,,SKC,0.00,VWS V14.01,2013-01-22 23:33:00,
2013-01-22 16:34:00,48.6,-7.7,30.30,North,360,18.0,18.0,9,0.00,,SKC,0.00,VWS V14.01,2013-01-22 23:34:00,
2013-01-22 16:35:00,48.5,-7.8,30.30,WSW,240,6.0,18.0,9,0.00,,SKC,0.00,VWS V14.01,2013-01-22 23:35:00,
2013-01-22 16:36:00,48.4,-7.8,30.30,SW,229,0.0,6.0,9,0.00,,SKC,0.00,VWS V14.01,2013-01-22 23:36:00,
2013-01-22 16:37:00,48.3,-7.9,30.30,WSW,241,6.0,6.0,9,0.00,,SKC,0.00,VWS V14.01,2013-01-22 23:37:00,
2013-01-22 16:38:00,48.3,-7.9,30.29,West,269,3.0,12.0,9,0.00,,SKC,0.00,VWS V14.01,2013-01-22 23:38:00,
2013-01-22 16:39:00,48.2,-5.8,30.29,North,360,17.0,17.0,10,0.00,,SKC,0.00,VWS V14.01,2013-01-22 23:39:00,
2013-01-22 16:40:00,48.1,-5.9,30.30,North,360,7.0,17.0,10,0.00,,SKC,0.00,VWS V14.01,2013-01-22 23:40:00,
2013-01-22 16:41:00,48.0,-6.0,30.30,North,360,5.0,7.0,10,0.00,,SKC,0.00,VWS V14.01,2013-01-22 23:41:00,
2013-01-22 16:42:00,47.9,-6.1,30.30,SW,229,4.0,6.0,10,0.00,,SKC,0.00,VWS V14.01,2013-01-22 23:42:00,
2013-01-22 16:43:00,47.8,-6.1,30.29,NNW,332,2.0,12.0,10,0.00,,SKC,0.00,VWS V14.01,2013-01-22 23:43:00,
2013-01-22 16:44:00,47.8,-8.3,30.29,West,263,5.0,11.0,9,0.00,,SKC,0.00,VWS V14.01,2013-01-22 23:44:00,
2013-01-22 16:45:00,47.7,-6.2,30.29,WNW,290,0.0,6.0,10,0.00,,SKC,0.00,VWS V14.01,2013-01-22 23:45:00,
2013-01-22 16:46:00,47.7,-8.4,30.29,NW,319,5.0,9.0,9,0.00,,SKC,0.00,VWS V14.01,2013-01-22 23:46:00,
2013-01-22 16:47:00,47.7,-8.4,30.29,North,360,14.0,18.0,9,0.00,,SKC,0.00,VWS V14.01,2013-01-22 23:47:00,
2013-01-22 16:48:00,47.7,-8.4,30.29,WNW,300,7.0,16.0,9,0.00,,SKC,0.00,VWS V14.01,2013-01-22 23:48:00,
2013-01-22 16:49:00,47.7,-8.4,30.29,West,265,6.0,21.0,9,0.00,,SKC,0.00,VWS V14.01,2013-01-22 23:49:00,
2013-01-22 16:50:00,47.8,-8.3,30.29,North,360,22.0,25.0,9,0.00,,SKC,0.00,VWS V14.01,2013-01-22 23:50:00,
2013-01-22 16:51:00,47.8,-8.3,30.29,West,276,13.0,22.0,9,0.00,,SKC,0.00,VWS V14.01,2013-01-22 23:51:00,
2013-01-22 16:52:00,47.8,-8.3,30.29,North,360,10.0,18.0,9,0.00,,SKC,0.00,VWS V14.01,2013-01-22 23:52:00,
2013-01-22 16:53:00,47.7,-8.4,30.30,SSW,210,14.0,14.0,9,0.00,,SKC,0.00,VWS V14.01,2013-01-22 23:53:00,
2013-01-22 16:54:00,47.7,-8.4,30.29,West,274,19.0,19.0,9,0.00,,SKC,0.00,VWS V14.01,2013-01-22 23:54:00,
2013-01-22 16:55:00,47.6,-6.3,30.29,West,265,16.0,21.0,10,0.00,,SKC,0.00,VWS V14.01,2013-01-22 23:55:00,
2013-01-22 16:56:00,47.6,-6.3,30.29,North,360,14.0,16.0,10,0.00,,SKC,0.00,VWS V14.01,2013-01-22 23:56:00,
2013-01-22 16:57:00,47.5,-6.4,30.29,West,278,23.0,23.0,10,0.00,,SKC,0.00,VWS V14.01,2013-01-22 23:57:00,
2013-01-22 16:58:00,47.4,-6.4,30.30,WNW,301,12.0,23.0,10,0.00,,SKC,0.00,VWS V14.01,2013-01-22 23:58:00,
2013-01-22 16:59:00,47.4,-6.4,30.28,West,274,12.0,24.0,10,0.00,,SKC,0.00,VWS V14.01,2013-01-22 23:59:00,
2013-01-22 17:00:00,47.3,-6.5,30.29,WNW,286,15.0,20.0,10,0.00,,SKC,0.00,VWS V14.01,2013-01-23 00:00:00,
2013-01-22 17:01:00,47.3,-6.5,30.29,North,360,11.0,20.0,10,0.00,,SKC,0.00,VWS V14.01,2013-01-23 00:01:00,
2013-01-22 17:02:00,47.2,-6.6,30.29,North,360,16.0,26.0,10,0.00,,SKC,0.00,VWS V14.01,2013-01-23 00:02:00,
2013-01-22 17:03:00,47.2,-6.6,30.29,North,360,10.0,16.0,10,0.00,,SKC,0.00,VWS V14.01,2013-01-23 00:03:00,
2013-01-22 17:04:00,47.2,-6.6,30.29,North,360,18.0,24.0,10,0.00,,SKC,0.00,VWS V14.01,2013-01-23 00:04:00,
2013-01-22 17:05:00,47.1,-6.7,30.29,WNW,300,33.0,33.0,10,0.00,,SKC,0.00,VWS V14.01,2013-01-23 00:05:00,
2013-01-22 17:06:00,47.1,-6.7,30.29,North,360,15.0,33.0,10,0.00,,SKC,0.00,VWS V14.01,2013-01-23 00:06:00,
2013-01-22 17:07:00,47.1,-6.7,30.29,WNW,288,7.0,24.0,10,0.00,,SKC,0.00,VWS V14.01,2013-01-23 00:07:00,
2013-01-22 17:08:00,47.1,-6.7,30.29,WNW,303,28.0,28.0,10,0.00,,SKC,0.00,VWS V14.01,2013-01-23 00:08:00,
2013-01-22 17:09:00,47.1,-6.7,30.30,West,261,21.0,28.0,10,0.00,,SKC,0.00,VWS V14.01,2013-01-23 00:09:00,
2013-01-22 17:10:00,47.1,-6.7,30.29,North,360,20.0,29.0,10,0.00,,SKC,0.00,VWS V14.01,2013-01-23 00:10:00,
2013-01-22 17:11:00,47.0,-6.8,30.29,North,360,15.0,21.0,10,0.00,,SKC,0.00,VWS V14.01,2013-01-23 00:11:00,
2013-01-22 17:12:00,47.0,-6.8,30.30,West,279,20.0,20.0,10,0.00,,SKC,0.00,VWS V14.01,2013-01-23 00:12:00,
2013-01-22 17:13:00,46.9,-6.8,30.30,WNW,291,31.0,31.0,10,0.00,,SKC,0.00,VWS V14.01,2013-01-23 00:13:00,
2013-01-22 17:14:00,46.9,-6.8,30.29,West,269,12.0,31.0,10,0.00,,SKC,0.00,VWS V14.01,2013-01-23 00:14:00,
2013-01-22 17:15:00,47.0,-6.8,30.29,WNW,290,15.0,21.0,10,0.00,,SKC,0.00,VWS V14.01,2013-01-23 00:15:00,
2013-01-22 17:16:00,47.0,-6.8,30.29,West,261,9.0,22.0,10,0.00,,SKC,0.00,VWS V14.01,2013-01-23 00:16:00,
2013-01-22 17:17:00,47.0,-6.8,30.30,WNW,289,25.0,26.0,10,0.00,,SKC,0.00,VWS V14.01,2013-01-23 00:17:00,
2013-01-22 17:18:00,47.0,-6.8,30.30,North,360,11.0,25.0,10,0.00,,SKC,0.00,VWS V14.01,2013-01-23 00:18:00,
2013-01-22 17:20:00,47.0,-6.8,30.29,WNW,298,20.0,33.0,10,0.00,,SKC,0.00,VWS V14.01,2013-01-23 00:20:00,
2013-01-22 17:21:00,47.1,-6.7,30.29,West,269,18.0,29.0,10,0.00,,SKC,0.00,VWS V14.01,2013-01-23 00:21:00,
2013-01-22 17:22:00,47.1,-6.7,30.30,WNW,285,14.0,23.0,10,0.00,,SKC,0.00,VWS V14.01,2013-01-23 00:22:00,
2013-01-22 17:23:00,47.1,-6.7,30.30,West,277,17.0,21.0,10,0.00,,SKC,0.00,VWS V14.01,2013-01-23 00:23:00,
2013-01-22 17:24:00,47.1,-6.7,30.30,WNW,290,14.0,22.0,10,0.00,,SKC,0.00,VWS V14.01,2013-01-23 00:24:00,
2013-01-22 17:25:00,47.0,-6.8,30.30,WNW,302,23.0,23.0,10,0.00,,SKC,0.00,VWS V14.01,2013-01-23 00:25:00,
2013-01-22 17:26:00,46.9,-6.8,30.30,North,360,24.0,24.0,10,0.00,,SKC,0.00,VWS V14.01,2013-01-23 00:26:00,
2013-01-22 17:28:00,46.9,-6.8,30.30,WSW,258,9.0,27.0,10,0.00,,SKC,0.00,VWS V14.01,2013-01-23 00:28:00,
2013-01-22 17:29:00,46.9,-6.8,30.30,North,360,13.0,21.0,10,0.00,,SKC,0.00,VWS V14.01,2013-01-23 00:29:00,
2013-01-22 17:30:00,46.9,-6.8,30.30,West,276,22.0,24.0,10,0.00,,SKC,0.00,VWS V14.01,2013-01-23 00:30:00,
2013-01-22 17:31:00,46.9,-6.8,30.30,North,360,12.0,22.0,10,0.00,,SKC,0.00,VWS V14.01,2013-01-23 00:31:00,
2013-01-22 17:32:00,46.8,-6.9,30.31,West,265,11.0,23.0,10,0.00,,SKC,0.00,VWS V14.01,2013-01-23 00:32:00,
2013-01-22 17:33:00,46.8,-6.9,30.30,North,360,19.0,19.0,10,0.00,,SKC,0.00,VWS V14.01,2013-01-23 00:33:00,
2013-01-22 17:34:00,46.8,-6.9,30.31,North,360,24.0,25.0,10,0.00,,SKC,0.00,VWS V14.01,2013-01-23 00:34:00,
2013-01-22 17:35:00,46.8,-6.9,30.31,West,263,15.0,24.0,10,0.00,,SKC,0.00,VWS V14.01,2013-01-23 00:35:00,
2013-01-22 17:36:00,46.8,-6.9,30.31,West,259,10.0,19.0,10,0.00,,SKC,0.00,VWS V14.01,2013-01-23 00:36:00,
2013-01-22 17:37:00,46.8,-6.9,30.31,West,273,15.0,16.0,10,0.00,,SKC,0.00,VWS V14.01,2013-01-23 00:37:00,
2013-01-22 17:38:00,46.7,-7.0,30.31,SW,214,17.0,23.0,10,0.00,,SKC,0.00,VWS V14.01,2013-01-23 00:38:00,
2013-01-22 17:39:00,46.7,-7.0,30.31,WSW,251,12.0,19.0,10,0.00,,SKC,0.00,VWS V14.01,2013-01-23 00:39:00,
2013-01-22 17:40:00,46.7,-7.0,30.31,WSW,250,12.0,17.0,10,0.00,,SKC,0.00,VWS V14.01,2013-01-23 00:40:00,
2013-01-22 17:41:00,46.7,-7.0,30.30,West,259,15.0,16.0,10,0.00,,SKC,0.00,VWS V14.01,2013-01-23 00:41:00,
2013-01-22 17:42:00,46.6,-7.1,30.31,NW,311,15.0,24.0,10,0.00,,SKC,0.00,VWS V14.01,2013-01-23 00:42:00,
2013-01-22 17:43:00,46.6,-7.1,30.31,North,360,12.0,24.0,10,0.00,,SKC,0.00,VWS V14.01,2013-01-23 00:43:00,
2013-01-22 17:44:00,46.6,-7.1,30.31,West,271,15.0,16.0,10,0.00,,SKC,0.00,VWS V14.01,2013-01-23 00:44:00,
2013-01-22 17:45:00,46.5,-7.1,30.31,North,360,20.0,22.0,10,0.00,,SKC,0.00,VWS V14.01,2013-01-23 00:45:00,
2013-01-22 17:46:00,46.5,-7.1,30.31,North,360,13.0,20.0,10,0.00,,SKC,0.00,VWS V14.01,2013-01-23 00:46:00,
2013-01-22 17:47:00,46.6,-7.1,30.31,WNW,296,26.0,26.0,10,0.00,,SKC,0.00,VWS V14.01,2013-01-23 00:47:00,
2013-01-22 17:48:00,46.6,-7.1,30.31,NW,309,11.0,26.0,10,0.00,,SKC,0.00,VWS V14.01,2013-01-23 00:48:00,
2013-01-22 17:49:00,46.6,-7.1,30.32,North,360,15.0,17.0,10,0.00,,SKC,0.00,VWS V14.01,2013-01-23 00:49:00,
2013-01-22 17:50:00,46.6,-7.1,30.33,North,360,21.0,24.0,10,0.00,,SKC,0.00,VWS V14.01,2013-01-23 00:50:00,
2013-01-22 17:51:00,46.7,-7.0,30.32,WNW,292,14.0,25.0,10,0.00,,SKC,0.00,VWS V14.01,2013-01-23 00:51:00,
2013-01-22 17:52:00,46.7,-7.0,30.32,North,360,15.0,26.0,10,0.00,,SKC,0.00,VWS V14.01,2013-01-23 00:52:00,
2013-01-22 17:53:00,46.6,-7.1,30.32,WNW,300,15.0,22.0,10,0.00,,SKC,0.00,VWS V14.01,2013-01-23 00:53:00,
2013-01-22 17:54:00,46.6,-7.1,30.32,WNW,286,7.0,15.0,10,0.00,,SKC,0.00,VWS V14.01,2013-01-23 00:54:00,
2013-01-22 17:55:00,46.7,-7.0,30.32,NW,304,14.0,14.0,10,0.00,,SKC,0.00,VWS V14.01,2013-01-23 00:55:00,
2013-01-22 17:56:00,46.6,-7.1,30.32,WNW,285,10.0,21.0,10,0.00,,SKC,0.00,VWS V14.01,2013-01-23 00:56:00,
2013-01-22 17:57:00,46.6,-7.1,30.32,North,360,14.0,23.0,10,0.00,,SKC,0.00,VWS V14.01,2013-01-23 00:57:00,
2013-01-22 17:58:00,46.6,-7.1,30.33,WNW,290,20.0,26.0,10,0.00,,SKC,0.00,VWS V14.01,2013-01-23 00:58:00,
2013-01-22 17:59:00,46.6,-7.1,30.33,WNW,286,9.0,20.0,10,0.00,,SKC,0.00,VWS V14.01,2013-01-23 00:59:00,
2013-01-22 18:00:00,46.6,-7.1,30.33,NNW,336,10.0,15.0,10,0.00,,SKC,0.00,VWS V14.01,2013-01-23 01:00:00,
2013-01-22 18:01:00,46.6,-7.1,30.33,NW,313,9.0,13.0,10,0.00,,SKC,0.00,VWS V14.01,2013-01-23 01:01:00,
2013-01-22 18:02:00,46.6,-7.1,30.33,West,280,11.0,11.0,10,0.00,,SKC,0.00,VWS V14.01,2013-01-23 01:02:00,
2013-01-22 18:03:00,46.6,-7.1,30.33,WSW,249,14.0,19.0,10,0.00,,SKC,0.00,VWS V14.01,2013-01-23 01:03:00,
2013-01-22 18:04:00,46.5,-7.1,30.33,WSW,252,22.0,25.0,10,0.00,,SKC,0.00,VWS V14.01,2013-01-23 01:04:00,
2013-01-22 18:05:00,46.6,-7.1,30.33,West,277,12.0,27.0,10,0.00,,SKC,0.00,VWS V14.01,2013-01-23 01:05:00,
2013-01-22 18:06:00,46.6,-7.1,30.33,West,264,10.0,17.0,10,0.00,,SKC,0.00,VWS V14.01,2013-01-23 01:06:00,
2013-01-22 18:07:00,46.7,-7.0,30.33,West,279,9.0,12.0,10,0.00,,SKC,0.00,VWS V14.01,2013-01-23 01:07:00,
2013-01-22 18:08:00,46.7,-7.0,30.33,WSW,252,12.0,12.0,10,0.00,,SKC,0.00,VWS V14.01,2013-01-23 01:08:00,
2013-01-22 18:09:00,46.6,-7.1,30.33,West,275,10.0,15.0,10,0.00,,SKC,0.00,VWS V14.01,2013-01-23 01:09:00,
2013-01-22 18:10:00,46.5,-7.1,30.33,North,360,9.0,12.0,10,0.00,,SKC,0.00,VWS V14.01,2013-01-23 01:10:00,
2013-01-22 18:11:00,46.5,-7.1,30.33,SSW,200,11.0,14.0,10,0.00,,SKC,0.00,VWS V14.01,2013-01-23 01:11:00,
2013-01-22 18:12:00,46.4,-7.2,30.33,West,271,12.0,15.0,10,0.00,,SKC,0.00,VWS V14.01,2013-01-23 01:12:00,
2013-01-22 18:13:00,46.4,-7.2,30.33,West,261,16.0,22.0,10,0.00,,SKC,0.00,VWS V14.01,2013-01-23 01:13:00,
2013-01-22 18:14:00,46.3,-7.3,30.33,WSW,249,10.0,21.0,10,0.00,,SKC,0.00,VWS V14.01,2013-01-23 01:14:00,
2013-01-22 18:15:00,46.2,-7.4,30.33,West,262,19.0,22.0,10,0.00,,SKC,0.00,VWS V14.01,2013-01-23 01:15:00,
2013-01-22 18:16:00,46.3,-7.3,30.33,West,260,12.0,24.0,10,0.00,,SKC,0.00,VWS V14.01,2013-01-23 01:16:00,
2013-01-22 18:17:00,46.3,-7.3,30.33,West,259,11.0,14.0,10,0.00,,SKC,0.00,VWS V14.01,2013-01-23 01:17:00,
2013-01-22 18:18:00,46.3,-7.3,30.33,SW,215,11.0,12.0,10,0.00,,SKC,0.00,VWS V14.01,2013-01-23 01:18:00,
2013-01-22 18:19:00,46.3,-7.3,30.33,West,275,6.0,12.0,10,0.00,,SKC,0.00,VWS V14.01,2013-01-23 01:19:00,
2013-01-22 18:20:00,46.3,-7.3,30.33,West,261,4.0,11.0,10,0.00,,SKC,0.00,VWS V14.01,2013-01-23 01:20:00,
2013-01-22 18:21:00,46.3,-7.3,30.33,WNW,298,5.0,11.0,10,0.00,,SKC,0.00,VWS V14.01,2013-01-23 01:21:00,
2013-01-22 18:22:00,46.3,-7.3,30.33,WSW,237,16.0,21.0,10,0.00,,SKC,0.00,VWS V14.01,2013-01-23 01:22:00,
2013-01-22 18:23:00,46.4,-7.2,30.32,West,264,18.0,18.0,10,0.00,,SKC,0.00,VWS V14.01,2013-01-23 01:23:00,
2013-01-22 18:24:00,46.4,-7.2,30.33,WNW,286,5.0,18.0,10,0.00,,SKC,0.00,VWS V14.01,2013-01-23 01:24:00,
2013-01-22 18:25:00,46.5,-7.1,30.32,North,360,17.0,22.0,10,0.00,,SKC,0.00,VWS V14.01,2013-01-23 01:25:00,
2013-01-22 18:26:00,46.5,-7.1,30.33,WNW,292,7.0,19.0,10,0.00,,SKC,0.00,VWS V14.01,2013-01-23 01:26:00,
2013-01-22 18:27:00,46.5,-7.1,30.33,WSW,255,8.0,11.0,10,0.00,,SKC,0.00,VWS V14.01,2013-01-23 01:27:00,
2013-01-22 18:28:00,46.5,-7.1,30.32,West,264,14.0,16.0,10,0.00,,SKC,0.00,VWS V14.01,2013-01-23 01:28:00,
2013-01-22 18:29:00,46.5,-7.1,30.33,West,279,6.0,14.0,10,0.00,,SKC,0.00,VWS V14.01,2013-01-23 01:29:00,
2013-01-22 18:30:00,46.4,-7.2,30.32,North,360,2.0,6.0,10,0.00,,SKC,0.00,VWS V14.01,2013-01-23 01:30:00,
2013-01-22 18:31:00,46.4,-7.2,30.32,NW,325,6.0,11.0,10,0.00,,SKC,0.00,VWS V14.01,2013-01-23 01:31:00,
2013-01-22 18:32:00,46.3,-7.3,30.33,North,360,10.0,16.0,10,0.00,,SKC,0.00,VWS V14.01,2013-01-23 01:32:00,
2013-01-22 18:33:00,46.3,-7.3,30.33,NW,319,1.0,14.0,10,0.00,,SKC,0.00,VWS V14.01,2013-01-23 01:33:00,
2013-01-22 18:34:00,46.3,-7.3,30.33,NW,323,3.0,5.0,10,0.00,,SKC,0.00,VWS V14.01,2013-01-23 01:34:00,
2013-01-22 18:35:00,46.4,-7.2,30.32,NW,325,1.0,4.0,10,0.00,,SKC,0.00,VWS V14.01,2013-01-23 01:35:00,
2013-01-22 18:36:00,46.4,-7.2,30.32,NW,325,2.0,4.0,10,0.00,,SKC,0.00,VWS V14.01,2013-01-23 01:36:00,
2013-01-22 18:37:00,46.4,-7.2,30.33,NNW,333,2.0,5.0,10,0.00,,SKC,0.00,VWS V14.01,2013-01-23 01:37:00,
2013-01-22 18:38:00,46.4,-7.2,30.32,NNW,335,1.0,3.0,10,0.00,,SKC,0.00,VWS V14.01,2013-01-23 01:38:00,
2013-01-22 18:39:00,46.3,-7.3,30.33,North,360,3.0,4.0,10,0.00,,SKC,0.00,VWS V14.01,2013-01-23 01:39:00,
2013-01-22 18:40:00,46.2,-7.4,30.33,NNW,347,2.0,3.0,10,0.00,,SKC,0.00,VWS V14.01,2013-01-23 01:40:00,
2013-01-22 18:41:00,46.1,-7.4,30.33,North,11,5.0,5.0,10,0.00,,SKC,0.00,VWS V14.01,2013-01-23 01:41:00,
2013-01-22 18:42:00,46.0,-7.5,30.33,North,5,3.0,6.0,10,0.00,,SKC,0.00,VWS V14.01,2013-01-23 01:42:00,
2013-01-22 18:43:00,45.9,-7.6,30.33,North,5,0.0,3.0,10,0.00,,SKC,0.00,VWS V14.01,2013-01-23 01:43:00,
2013-01-22 18:44:00,45.8,-7.7,30.33,SSW,194,3.0,9.0,10,0.00,,SKC,0.00,VWS V14.01,2013-01-23 01:44:00,
2013-01-22 18:45:00,45.6,-7.8,30.33,North,360,17.0,17.0,10,0.00,,SKC,0.00,VWS V14.01,2013-01-23 01:45:00,
2013-01-22 18:46:00,45.6,-7.8,30.33,North,360,12.0,20.0,10,0.00,,SKC,0.00,VWS V14.01,2013-01-23 01:46:00,
2013-01-22 18:47:00,45.9,-9.8,30.33,WSW,244,12.0,23.0,9,0.00,,SKC,0.00,VWS V14.01,2013-01-23 01:47:00,
2013-01-22 18:48:00,46.1,-9.6,30.32,North,360,18.0,18.0,9,0.00,,SKC,0.00,VWS V14.01,2013-01-23 01:48:00,
2013-01-22 18:49:00,46.3,-9.4,30.32,WNW,297,9.0,25.0,9,0.00,,SKC,0.00,VWS V14.01,2013-01-23 01:49:00,
2013-01-22 18:50:00,46.5,-9.3,30.32,North,360,18.0,23.0,9,0.00,,SKC,0.00,VWS V14.01,2013-01-23 01:50:00,
2013-01-22 18:51:00,46.7,-9.1,30.32,West,274,10.0,19.0,9,0.00,,SKC,0.00,VWS V14.01,2013-01-23 01:51:00,
2013-01-22 18:52:00,46.8,-9.1,30.33,WNW,290,6.0,12.0,9,0.00,,SKC,0.00,VWS V14.01,2013-01-23 01:52:00,
2013-01-22 18:53:00,46.9,-9.0,30.33,NW,307,4.0,6.0,9,0.00,,SKC,0.00,VWS V14.01,2013-01-23 01:53:00,
2013-01-22 18:54:00,47.0,-8.9,30.33,North,360,7.0,7.0,9,0.00,,SKC,0.00,VWS V14.01,2013-01-23 01:54:00,
2013-01-22 18:55:00,47.0,-8.9,30.33,West,273,13.0,22.0,9,0.00,,SKC,0.00,VWS V14.01,2013-01-23 01:55:00,
2013-01-22 18:56:00,47.0,-11.3,30.33,West,273,11.0,22.0,8,0.00,,SKC,0.00,VWS V14.01,2013-01-23 01:56:00,
2013-01-22 18:57:00,47.2,-11.1,30.33,West,268,11.0,18.0,8,0.00,,SKC,0.00,VWS V14.01,2013-01-23 01:57:00,
2013-01-22 18:58:00,47.2,-11.1,30.33,WNW,283,5.0,11.0,8,0.00,,SKC,0.00,VWS V14.01,2013-01-23 01:58:00,
2013-01-22 18:59:00,47.2,-8.8,30.33,West,271,9.0,19.0,9,0.00,,SKC,0.00,VWS V14.01,2013-01-23 01:59:00,
2013-01-22 19:00:00,47.3,-8.7,30.33,North,360,11.0,11.0,9,0.00,,SKC,0.00,VWS V14.01,2013-01-23 02:00:00,
2013-01-22 19:01:00,47.2,-11.1,30.33,West,281,17.0,22.0,8,0.00,,SKC,0.00,VWS V14.01,2013-01-23 02:01:00,
2013-01-22 19:02:00,47.2,-11.1,30.33,North,360,11.0,17.0,8,0.00,,SKC,0.00,VWS V14.01,2013-01-23 02:02:00,
2013-01-22 19:03:00,47.3,-11.1,30.33,West,267,10.0,13.0,8,0.00,,SKC,0.00,VWS V14.01,2013-01-23 02:03:00,
2013-01-22 19:04:00,47.4,-11.0,30.33,WSW,255,17.0,23.0,8,0.00,,SKC,0.00,VWS V14.01,2013-01-23 02:04:00,
2013-01-22 19:05:00,47.4,-11.0,30.33,West,277,11.0,18.0,8,0.00,,SKC,0.00,VWS V14.01,2013-01-23 02:05:00,
2013-01-22 19:06:00,47.4,-11.0,30.34,WSW,254,24.0,26.0,8,0.00,,SKC,0.00,VWS V14.01,2013-01-23 02:06:00,
2013-01-22 19:07:00,47.4,-11.0,30.33,West,281,14.0,24.0,8,0.00,,SKC,0.00,VWS V14.01,2013-01-23 02:07:00,
2013-01-22 19:08:00,47.4,-11.0,30.33,West,271,19.0,20.0,8,0.00,,SKC,0.00,VWS V14.01,2013-01-23 02:08:00,
2013-01-22 19:09:00,47.4,-11.0,30.33,West,279,13.0,20.0,8,0.00,,SKC,0.00,VWS V14.01,2013-01-23 02:09:00,
2013-01-22 19:10:00,47.3,-8.7,30.33,NW,309,20.0,25.0,9,0.00,,SKC,0.00,VWS V14.01,2013-01-23 02:10:00,
2013-01-22 19:11:00,47.3,-11.1,30.33,WNW,287,21.0,24.0,8,0.00,,SKC,0.00,VWS V14.01,2013-01-23 02:11:00,
2013-01-22 19:12:00,47.3,-11.1,30.34,West,281,22.0,26.0,8,0.00,,SKC,0.00,VWS V14.01,2013-01-23 02:12:00,
2013-01-22 19:13:00,47.4,-11.0,30.33,North,360,19.0,23.0,8,0.00,,SKC,0.00,VWS V14.01,2013-01-23 02:13:00,
2013-01-22 19:14:00,47.4,-11.0,30.34,WSW,247,13.0,19.0,8,0.00,,SKC,0.00,VWS V14.01,2013-01-23 02:14:00,
2013-01-22 19:15:00,47.4,-11.0,30.34,West,281,10.0,13.0,8,0.00,,SKC,0.00,VWS V14.01,2013-01-23 02:15:00,
2013-01-22 19:16:00,47.5,-10.9,30.33,West,266,16.0,19.0,8,0.00,,SKC,0.00,VWS V14.01,2013-01-23 02:16:00,
2013-01-22 19:17:00,47.4,-11.0,30.33,WNW,283,14.0,18.0,8,0.00,,SKC,0.00,VWS V14.01,2013-01-23 02:17:00,
2013-01-22 19:18:00,47.4,-8.6,30.34,North,360,17.0,19.0,9,0.00,,SKC,0.00,VWS V14.01,2013-01-23 02:18:00,
2013-01-22 19:19:00,47.4,-11.0,30.33,WSW,244,25.0,27.0,8,0.00,,SKC,0.00,VWS V14.01,2013-01-23 02:19:00,
2013-01-22 19:20:00,47.4,-8.6,30.33,West,267,18.0,25.0,9,0.00,,SKC,0.00,VWS V14.01,2013-01-23 02:20:00,
2013-01-22 19:21:00,47.4,-8.6,30.33,West,281,15.0,20.0,9,0.00,,SKC,0.00,VWS V14.01,2013-01-23 02:21:00,
2013-01-22 19:22:00,47.4,-8.6,30.33,WSW,248,17.0,23.0,9,0.00,,SKC,0.00,VWS V14.01,2013-01-23 02:22:00,
2013-01-22 19:23:00,47.4,-8.6,30.33,WSW,250,16.0,19.0,9,0.00,,SKC,0.00,VWS V14.01,2013-01-23 02:23:00,
2013-01-22 19:24:00,47.3,-8.7,30.33,SW,226,15.0,19.0,9,0.00,,SKC,0.00,VWS V14.01,2013-01-23 02:24:00,
2013-01-22 19:25:00,47.3,-8.7,30.33,North,360,17.0,19.0,9,0.00,,SKC,0.00,VWS V14.01,2013-01-23 02:25:00,
2013-01-22 19:26:00,47.3,-8.7,30.33,North,360,11.0,18.0,9,0.00,,SKC,0.00,VWS V14.01,2013-01-23 02:26:00,
2013-01-22 19:27:00,47.3,-8.7,30.33,North,360,11.0,18.0,9,0.00,,SKC,0.00,VWS V14.01,2013-01-23 02:27:00,
2013-01-22 19:28:00,47.2,-8.8,30.33,West,273,14.0,19.0,9,0.00,,SKC,0.00,VWS V14.01,2013-01-23 02:28:00,
2013-01-22 19:29:00,47.2,-8.8,30.33,WSW,257,21.0,24.0,9,0.00,,SKC,0.00,VWS V14.01,2013-01-23 02:29:00,
2013-01-22 19:30:00,47.2,-8.8,30.33,WSW,257,18.0,23.0,9,0.00,,SKC,0.00,VWS V14.01,2013-01-23 02:30:00,
2013-01-22 19:31:00,47.2,-8.8,30.33,WSW,240,24.0,26.0,9,0.00,,SKC,0.00,VWS V14.01,2013-01-23 02:31:00,
2013-01-22 19:32:00,47.2,-8.8,30.33,WSW,240,24.0,26.0,9,0.00,,SKC,0.00,VWS V14.01,2013-01-23 02:32:00,
2013-01-22 19:33:00,47.3,-8.7,30.33,West,280,14.0,23.0,9,0.00,,SKC,0.00,VWS V14.01,2013-01-23 02:33:00,
2013-01-22 19:34:00,47.3,-8.7,30.33,WSW,258,20.0,25.0,9,0.00,,SKC,0.00,VWS V14.01,2013-01-23 02:34:00,
2013-01-22 19:35:00,47.3,-8.7,30.34,North,360,16.0,21.0,9,0.00,,SKC,0.00,VWS V14.01,2013-01-23 02:35:00,
2013-01-22 19:36:00,47.2,-8.8,30.33,WSW,250,17.0,19.0,9,0.00,,SKC,0.00,VWS V14.01,2013-01-23 02:36:00,
2013-01-22 19:37:00,47.2,-8.8,30.34,West,264,15.0,17.0,9,0.00,,SKC,0.00,VWS V14.01,2013-01-23 02:37:00,
2013-01-22 19:38:00,47.1,-8.8,30.33,WSW,249,13.0,17.0,9,0.00,,SKC,0.00,VWS V14.01,2013-01-23 02:38:00,
2013-01-22 19:39:00,47.0,-8.9,30.34,WSW,244,17.0,17.0,9,0.00,,SKC,0.00,VWS V14.01,2013-01-23 02:39:00,
2013-01-22 19:40:00,47.0,-8.9,30.33,WSW,247,17.0,22.0,9,0.00,,SKC,0.00,VWS V14.01,2013-01-23 02:40:00,
2013-01-22 19:41:00,46.9,-9.0,30.33,WSW,254,15.0,20.0,9,0.00,,SKC,0.00,VWS V14.01,2013-01-23 02:41:00,
2013-01-22 19:42:00,47.0,-8.9,30.33,West,263,13.0,20.0,9,0.00,,SKC,0.00,VWS V14.01,2013-01-23 02:42:00,
2013-01-22 19:43:00,47.0,-8.9,30.34,WSW,258,7.0,14.0,9,0.00,,SKC,0.00,VWS V14.01,2013-01-23 02:43:00,
2013-01-22 19:44:00,47.0,-8.9,30.34,North,360,12.0,13.0,9,0.00,,SKC,0.00,VWS V14.01,2013-01-23 02:44:00,
2013-01-22 19:45:00,46.9,-9.0,30.34,WSW,253,10.0,17.0,9,0.00,,SKC,0.00,VWS V14.01,2013-01-23 02:45:00,
2013-01-22 19:46:00,46.8,-9.1,30.34,West,270,15.0,16.0,9,0.00,,SKC,0.00,VWS V14.01,2013-01-23 02:46:00,
2013-01-22 19:47:00,46.7,-9.1,30.34,North,360,18.0,20.0,9,0.00,,SKC,0.00,VWS V14.01,2013-01-23 02:47:00,
2013-01-22 19:48:00,46.7,-9.1,30.34,SW,234,14.0,18.0,9,0.00,,SKC,0.00,VWS V14.01,2013-01-23 02:48:00,
2013-01-22 19:49:00,46.6,-9.2,30.34,West,269,16.0,16.0,9,0.00,,SKC,0.00,VWS V14.01,2013-01-23 02:49:00,
2013-01-22 19:50:00,46.5,-9.3,30.34,West,268,17.0,19.0,9,0.00,,SKC,0.00,VWS V14.01,2013-01-23 02:50:00,
2013-01-22 19:51:00,46.5,-9.3,30.34,West,259,18.0,22.0,9,0.00,,SKC,0.00,VWS V14.01,2013-01-23 02:51:00,
2013-01-22 19:52:00,46.5,-9.3,30.34,North,360,13.0,18.0,9,0.00,,SKC,0.00,VWS V14.01,2013-01-23 02:52:00,
2013-01-22 19:53:00,46.5,-9.3,30.34,WNW,283,14.0,19.0,9,0.00,,SKC,0.00,VWS V14.01,2013-01-23 02:53:00,
2013-01-22 19:54:00,46.5,-9.3,30.34,West,277,16.0,19.0,9,0.00,,SKC,0.00,VWS V14.01,2013-01-23 02:54:00,
2013-01-22 19:55:00,46.5,-9.3,30.34,North,360,17.0,22.0,9,0.00,,SKC,0.00,VWS V14.01,2013-01-23 02:55:00,
2013-01-22 19:56:00,46.5,-9.3,30.34,West,267,14.0,24.0,9,0.00,,SKC,0.00,VWS V14.01,2013-01-23 02:56:00,
2013-01-22 19:57:00,46.6,-9.2,30.34,WSW,246,16.0,24.0,9,0.00,,SKC,0.00,VWS V14.01,2013-01-23 02:57:00,
2013-01-22 19:58:00,46.7,-11.5,30.34,West,275,15.0,20.0,8,0.00,,SKC,0.00,VWS V14.01,2013-01-23 02:58:00,
2013-01-22 20:06:00,47.0,-11.3,30.34,WSW,248,20.0,24.0,8,0.00,,SKC,0.00,VWS V14.01,2013-01-23 03:06:00,
2013-01-22 20:07:00,47.1,-11.2,30.34,North,360,22.0,23.0,8,0.00,,SKC,0.00,VWS V14.01,2013-01-23 03:07:00,
2013-01-22 20:08:00,47.0,-11.3,30.34,SW,235,14.0,23.0,8,0.00,,SKC,0.00,VWS V14.01,2013-01-23 03:08:00,
2013-01-22 20:09:00,46.9,-11.4,30.34,North,360,22.0,27.0,8,0.00,,SKC,0.00,VWS V14.01,2013-01-23 03:09:00,
2013-01-22 20:10:00,46.8,-11.4,30.34,North,360,21.0,26.0,8,0.00,,SKC,0.00,VWS V14.01,2013-01-23 03:10:00,
2013-01-22 20:11:00,46.7,-9.1,30.34,WSW,258,21.0,28.0,9,0.00,,SKC,0.00,VWS V14.01,2013-01-23 03:11:00,
2013-01-22 20:12:00,46.7,-9.1,30.34,West,277,25.0,26.0,9,0.00,,SKC,0.00,VWS V14.01,2013-01-23 03:12:00,
2013-01-22 20:13:00,46.5,-9.3,30.34,West,259,22.0,25.0,9,0.00,,SKC,0.00,VWS V14.01,2013-01-23 03:13:00,
2013-01-22 20:14:00,46.4,-9.4,30.34,West,265,30.0,39.0,9,0.00,,SKC,0.00,VWS V14.01,2013-01-23 03:14:00,
2013-01-22 20:15:00,46.4,-9.4,30.34,WSW,254,22.0,30.0,9,0.00,,SKC,0.00,VWS V14.01,2013-01-23 03:15:00,
2013-01-22 20:16:00,46.3,-9.4,30.34,WNW,291,23.0,29.0,9,0.00,,SKC,0.00,VWS V14.01,2013-01-23 03:16:00,
2013-01-22 20:17:00,46.3,-9.4,30.34,West,259,19.0,24.0,9,0.00,,SKC,0.00,VWS V14.01,2013-01-23 03:17:00,
2013-01-22 20:18:00,46.3,-9.4,30.34,West,273,16.0,23.0,9,0.00,,SKC,0.00,VWS V14.01,2013-01-23 03:18:00,
2013-01-22 20:19:00,46.2,-9.5,30.34,West,277,14.0,21.0,9,0.00,,SKC,0.00,VWS V14.01,2013-01-23 03:19:00,
2013-01-22 20:20:00,46.1,-9.6,30.34,West,275,16.0,23.0,9,0.00,,SKC,0.00,VWS V14.01,2013-01-23 03:20:00,
2013-01-22 20:21:00,46.1,-9.6,30.34,West,280,16.0,21.0,9,0.00,,SKC,0.00,VWS V14.01,2013-01-23 03:21:00,
2013-01-22 20:22:00,46.1,-9.6,30.35,WNW,299,20.0,20.0,9,0.00,,SKC,0.00,VWS V14.01,2013-01-23 03:22:00,
2013-01-22 20:23:00,46.0,-9.7,30.34,North,360,23.0,28.0,9,0.00,,SKC,0.00,VWS V14.01,2013-01-23 03:23:00,
2013-01-22 20:24:00,46.1,-9.6,30.34,WNW,300,13.0,31.0,9,0.00,,SKC,0.00,VWS V14.01,2013-01-23 03:24:00,
2013-01-22 20:25:00,46.1,-9.6,30.34,NW,308,16.0,25.0,9,0.00,,SKC,0.00,VWS V14.01,2013-01-23 03:25:00,
2013-01-22 20:26:00,46.1,-9.6,30.34,West,264,9.0,18.0,9,0.00,,SKC,0.00,VWS V14.01,2013-01-23 03:26:00,
2013-01-22 20:27:00,46.1,-9.6,30.34,WSW,253,16.0,17.0,9,0.00,,SKC,0.00,VWS V14.01,2013-01-23 03:27:00,
2013-01-22 20:28:00,46.0,-9.7,30.34,West,263,15.0,23.0,9,0.00,,SKC,0.00,VWS V14.01,2013-01-23 03:28:00,
2013-01-22 20:29:00,45.9,-9.8,30.34,WSW,245,20.0,21.0,9,0.00,,SKC,0.00,VWS V14.01,2013-01-23 03:29:00,
2013-01-22 20:30:00,45.9,-9.8,30.33,West,279,16.0,20.0,9,0.00,,SKC,0.00,VWS V14.01,2013-01-23 03:30:00,
2013-01-22 20:31:00,45.8,-9.8,30.33,West,266,26.0,27.0,9,0.00,,SKC,0.00,VWS V14.01,2013-01-23 03:31:00,
2013-01-22 20:32:00,45.7,-9.9,30.33,WSW,240,18.0,30.0,9,0.00,,SKC,0.00,VWS V14.01,2013-01-23 03:32:00,
2013-01-22 20:33:00,45.6,-10.0,30.33,West,267,25.0,25.0,9,0.00,,SKC,0.00,VWS V14.01,2013-01-23 03:33:00,
2013-01-22 20:34:00,45.6,-10.0,30.33,WSW,245,18.0,27.0,9,0.00,,SKC,0.00,VWS V14.01,2013-01-23 03:34:00,
2013-01-22 20:35:00,45.5,-10.1,30.33,WSW,247,20.0,24.0,9,0.00,,SKC,0.00,VWS V14.01,2013-01-23 03:35:00,
2013-01-22 20:36:00,45.5,-10.1,30.32,North,360,32.0,34.0,9,0.00,,SKC,0.00,VWS V14.01,2013-01-23 03:36:00,
2013-01-22 20:37:00,45.5,-10.1,30.32,North,360,26.0,32.0,9,0.00,,SKC,0.00,VWS V14.01,2013-01-23 03:37:00,
2013-01-22 20:38:00,45.6,-10.0,30.32,West,271,14.0,26.0,9,0.00,,SKC,0.00,VWS V14.01,2013-01-23 03:38:00,
2013-01-22 20:39:00,45.6,-10.0,30.32,WNW,282,13.0,23.0,9,0.00,,SKC,0.00,VWS V14.01,2013-01-23 03:39:00,
2013-01-22 20:48:00,45.4,-10.1,30.33,North,360,18.0,26.0,9,0.00,,SKC,0.00,VWS V14.01,2013-01-23 03:48:00,
2013-01-22 20:53:00,45.6,-10.0,30.33,WNW,296,14.0,36.0,9,0.00,,SKC,0.00,VWS V14.01,2013-01-23 03:53:00,
2013-01-22 20:58:00,45.6,-10.0,30.34,West,267,21.0,23.0,9,0.00,,SKC,0.00,VWS V14.01,2013-01-23 03:58:00,
2013-01-22 21:04:00,45.6,-10.0,30.33,WSW,256,27.0,27.0,9,0.00,,SKC,0.00,VWS V14.01,2013-01-23 04:04:00,
2013-01-22 21:09:00,45.8,-9.8,30.33,North,360,20.0,20.0,9,0.00,,SKC,0.00,VWS V14.01,2013-01-23 04:09:00,
2013-01-22 21:15:00,45.9,-9.8,30.33,West,260,26.0,26.0,9,0.00,,SKC,0.00,VWS V14.01,2013-01-23 04:15:00,
2013-01-22 21:21:00,46.4,-11.7,30.33,WSW,240,18.0,30.0,8,0.00,,SKC,0.00,VWS V14.01,2013-01-23 04:21:00,
2013-01-22 21:26:00,46.3,-11.8,30.34,West,269,16.0,20.0,8,0.00,,SKC,0.00,VWS V14.01,2013-01-23 04:26:00,
2013-01-22 21:31:00,46.0,-9.7,30.34,West,262,15.0,22.0,9,0.00,,SKC,0.00,VWS V14.01,2013-01-23 04:31:00,
2013-01-22 21:37:00,46.1,-12.0,30.33,West,264,22.0,27.0,8,0.00,,SKC,0.00,VWS V14.01,2013-01-23 04:37:00,
2013-01-22 21:42:00,47.1,-11.2,30.33,WSW,253,23.0,30.0,8,0.00,,SKC,0.00,VWS V14.01,2013-01-23 04:42:00,
2013-01-22 21:47:00,47.4,-11.0,30.34,West,262,18.0,27.0,8,0.00,,SKC,0.00,VWS V14.01,2013-01-23 04:47:00,
2013-01-22 21:52:00,47.7,-10.8,30.34,West,269,14.0,16.0,8,0.00,,SKC,0.00,VWS V14.01,2013-01-23 04:52:00,
2013-01-22 21:57:00,47.4,-11.0,30.34,North,360,22.0,22.0,8,0.00,,SKC,0.00,VWS V14.01,2013-01-23 04:57:00,
2013-01-22 22:02:00,47.4,-11.0,30.34,WSW,242,24.0,28.0,8,0.00,,SKC,0.00,VWS V14.01,2013-01-23 05:02:00,
2013-01-22 22:03:00,47.7,-13.4,30.34,SW,236,22.0,23.0,7,0.00,,SKC,0.00,VWS V14.01,2013-01-23 05:03:00,
2013-01-22 22:04:00,47.8,-13.4,30.34,West,273,18.0,22.0,7,0.00,,SKC,0.00,VWS V14.01,2013-01-23 05:04:00,
2013-01-22 22:09:00,47.7,-10.8,30.34,West,261,11.0,19.0,8,0.00,,SKC,0.00,VWS V14.01,2013-01-23 05:09:00,
2013-01-22 22:14:00,47.7,-10.8,30.34,North,360,19.0,25.0,8,0.00,,SKC,0.00,VWS V14.01,2013-01-23 05:14:00,
2013-01-22 22:20:00,47.7,-10.8,30.34,West,268,13.0,22.0,8,0.00,,SKC,0.00,VWS V14.01,2013-01-23 05:20:00,
2013-01-22 22:25:00,47.8,-13.4,30.34,WNW,282,17.0,30.0,7,0.00,,SKC,0.00,VWS V14.01,2013-01-23 05:25:00,
2013-01-22 22:30:00,47.9,-13.3,30.34,WNW,283,25.0,31.0,7,0.00,,SKC,0.00,VWS V14.01,2013-01-23 05:30:00,
2013-01-22 22:37:00,48.2,-13.1,30.34,NW,317,14.0,26.0,7,0.00,,SKC,0.00,VWS V14.01,2013-01-23 05:37:00,
2013-01-22 22:43:00,48.1,-13.1,30.35,WNW,303,19.0,25.0,7,0.00,,SKC,0.00,VWS V14.01,2013-01-23 05:43:00,
2013-01-22 22:48:00,47.9,-10.6,30.34,NW,304,12.0,16.0,8,0.00,,SKC,0.00,VWS V14.01,2013-01-23 05:48:00,
2013-01-22 22:53:00,47.8,-13.4,30.34,NNW,327,12.0,15.0,7,0.00,,SKC,0.00,VWS V14.01,2013-01-23 05:53:00,
2013-01-22 22:58:00,47.6,-10.8,30.33,NW,306,15.0,17.0,8,0.00,,SKC,0.00,VWS V14.01,2013-01-23 05:58:00,
2013-01-22 23:03:00,47.4,-11.0,30.34,North,360,10.0,14.0,8,0.00,,SKC,0.00,VWS V14.01,2013-01-23 06:03:00,
2013-01-22 23:09:00,47.3,-11.1,30.34,WNW,301,7.0,14.0,8,0.00,,SKC,0.00,VWS V14.01,2013-01-23 06:09:00,
2013-01-22 23:14:00,47.3,-11.1,30.34,NW,312,10.0,22.0,8,0.00,,SKC,0.00,VWS V14.01,2013-01-23 06:14:00,
2013-01-22 23:19:00,47.2,-11.1,30.33,NW,325,10.0,14.0,8,0.00,,SKC,0.00,VWS V14.01,2013-01-23 06:19:00,
2013-01-22 23:24:00,47.1,-11.2,30.33,NW,305,9.0,13.0,8,0.00,,SKC,0.00,VWS V14.01,2013-01-23 06:24:00,
2013-01-22 23:29:00,47.0,-11.3,30.33,WNW,295,10.0,13.0,8,0.00,,SKC,0.00,VWS V14.01,2013-01-23 06:29:00,
2013-01-22 23:34:00,46.9,-11.4,30.33,WNW,284,20.0,20.0,8,0.00,,SKC,0.00,VWS V14.01,2013-01-23 06:34:00,
2013-01-22 23:39:00,46.7,-11.5,30.32,WNW,298,13.0,19.0,8,0.00,,SKC,0.00,VWS V14.01,2013-01-23 06:39:00,
2013-01-22 23:45:00,46.6,-11.6,30.32,NW,325,16.0,21.0,8,0.00,,SKC,0.00,VWS V14.01,2013-01-23 06:45:00,
2013-01-22 23:51:00,47.0,-11.3,30.32,West,279,16.0,22.0,8,0.00,,SKC,0.00,VWS V14.01,2013-01-23 06:51:00,
2013-01-22 23:57:00,46.9,-11.4,30.31,North,360,15.0,19.0,8,0.00,,SKC,0.00,VWS V14.01,2013-01-23 06:57:00,